GFSGL_500_spd_000.txt.gz
Wind_Speed
20 24 28 29 32 31 31 30 30 28 26 25 27 27 27 28 29 26 25 26 31 33 34 33 36 39 44 43 46 44 42 42 38 35 38 42 40 42 43 44 44 44 43
17 20 25 25 35 30 31 33 34 33 31 28 29 29 30 29 29 27 26 28 33 36 35 33 40 44 43 40 47 43 41 43 45 44 42 40 40 41 41 42 45 47 47
21 25 28 30 32 33 32 34 34 36 33 34 30 31 32 31 31 28 27 31 32 34 35 36 45 40 40 45 43 41 43 46 48 50 44 35 35 39 39 40 41 43 46
28 30 31 33 37 31 38 30 37 39 38 38 37 36 36 35 34 30 30 31 26 33 31 40 42 40 41 42 43 45 45 46 46 46 41 38 37 38 38 39 39 44 45
24 28 29 33 37 45 35 38 33 41 41 39 38 40 39 40 39 33 31 34 39 44 41 46 40 43 42 45 46 46 47 45 46 44 45 41 38 41 40 39 39 39 44
27 30 34 40 44 47 44 28 27 31 39 39 41 42 42 43 43 35 33 38 37 37 42 45 43 43 45 45 46 47 47 47 44 43 40 40 35 35 38 40 39 38 40
35 31 36 41 45 34 50 48 26 32 37 41 40 42 47 46 45 40 35 40 38 43 49 47 45 44 47 47 47 46 43 43 39 39 42 37 34 34 38 41 43 41 42
38 37 41 43 47 36 41 46 33 33 35 38 40 42 48 53 51 41 36 43 45 49 50 45 45 45 47 45 46 46 42 37 39 38 35 35 33 35 38 39 40 38 36
40 42 42 43 43 42 37 45 39 34 33 36 29 37 46 48 51 50 43 45 43 50 44 42 44 43 44 45 44 41 38 35 33 31 33 34 34 37 40 45 49 36 32
52 48 47 44 42 39 40 42 46 43 41 41 37 41 39 41 39 41 43 39 39 42 43 43 44 44 44 43 40 38 36 33 30 29 31 33 36 38 44 47 54 41 38
52 44 41 41 42 43 40 45 46 44 43 42 39 30 49 34 37 32 37 29 35 38 42 43 40 41 40 38 38 36 35 33 30 28 29 31 34 38 45 45 54 43 34
39 42 47 46 44 42 47 46 47 43 39 47 33 39 39 38 42 44 32 31 32 36 38 39 40 39 37 35 36 35 33 33 33 31 31 32 32 36 42 48 44 39 20
44 47 52 49 40 36 37 38 45 42 33 35 35 39 46 44 43 40 34 35 37 36 38 38 39 37 34 34 34 32 33 35 32 30 29 30 32 34 36 40 35 34 27
47 46 45 42 41 34 37 38 37 37 32 32 40 53 55 49 33 33 33 34 37 38 36 37 36 33 31 31 31 30 29 25 19 21 24 27 30 34 33 38 31 27 15
49 42 43 34 35 38 37 41 36 30 40 38 40 42 44 41 45 39 40 41 42 39 36 34 33 31 32 31 30 27 24 22 20 21 22 25 28 30 30 40 28 24 14
42 44 39 39 39 42 44 41 43 50 50 48 40 42 43 43 39 41 40 39 40 37 34 32 32 32 32 31 28 26 25 24 23 25 26 26 27 26 27 31 30 19 15
43 44 46 44 45 45 49 46 46 47 47 45 39 45 51 46 41 36 36 37 34 32 31 32 31 31 30 29 26 25 25 22 20 22 24 24 25 24 23 25 34 18 9
46 47 47 50 49 47 46 47 46 45 47 47 47 46 42 39 36 38 35 34 33 32 32 32 31 31 29 27 27 26 25 24 22 22 22 22 21 22 22 25 24 27 15
44 45 47 49 47 46 45 46 45 46 46 44 40 36 35 37 40 39 38 36 33 31 32 32 32 31 29 28 28 27 27 22 22 21 21 21 21 22 21 21 21 23 26
45 45 41 43 45 43 43 44 43 40 38 37 41 42 42 43 42 39 38 35 32 32 32 32 32 30 29 27 26 26 25 23 21 20 20 21 21 20 20 19 21 18 21
40 38 39 38 40 40 41 41 38 38 40 41 41 42 41 38 36 36 35 32 31 31 33 32 29 26 24 23 22 22 21 21 20 20 21 20 20 19 19 19 18 19 17
31 36 40 36 34 36 35 39 39 37 35 36 37 35 33 31 32 30 27 28 30 31 28 25 23 22 21 20 20 20 20 20 20 19 19 20 19 19 20 19 19 18 16
43 39 35 34 35 35 33 33 31 30 29 29 30 31 32 32 32 32 29 28 26 24 23 21 22 21 21 22 23 24 25 25 24 23 22 21 21 20 21 20 19 17 15
37 36 32 30 27 27 26 25 26 28 29 31 31 33 34 34 32 31 29 27 25 23 23 24 23 22 22 23 24 24 25 26 26 25 24 23 23 23 22 22 21 19 16
32 26 26 23 22 20 22 24 26 29 31 30 27 27 27 28 29 28 27 26 26 27 26 24 21 21 22 23 24 26 26 26 24 22 21 22 21 21 22 22 23 22 20
24 24 24 21 23 23 25 27 28 26 27 28 27 27 27 27 27 27 26 26 27 27 26 23 22 23 24 24 25 24 22 21 20 19 19 19 20 21 22 22 22 23 23

GFSGL_500_spd_003.txt.gz
Wind_Speed
8 10 12 17 21 20 23 34 24 27 31 30 26 26 28 28 29 29 29 28 30 27 25 29 28 30 29 33 36 32 34 36 36 38 39 41 44 49 48 48 48 48 49
12 13 17 21 22 32 34 30 37 32 24 33 31 30 29 29 31 32 31 30 29 28 26 24 21 23 28 33 34 36 36 40 43 47 45 45 46 48 48 45 43 42 44
13 18 19 21 26 31 38 38 42 36 38 31 35 34 35 35 35 34 34 32 31 30 30 30 26 33 37 38 40 38 37 41 45 52 48 48 46 48 46 45 44 42 44
19 20 22 23 28 33 38 47 46 50 40 30 29 34 38 36 36 35 37 35 35 34 32 33 34 32 40 45 40 40 38 42 50 51 49 48 45 48 48 47 43 44 45
20 22 24 29 33 35 41 51 54 50 49 27 21 37 41 35 35 40 37 35 35 34 34 35 36 40 46 52 47 42 40 44 49 48 46 46 49 49 48 45 41 39 41
22 26 28 29 34 38 41 49 40 49 47 35 26 24 35 35 38 37 35 35 37 39 34 35 45 43 52 53 47 40 42 45 46 47 45 45 49 45 41 36 36 35 33
28 29 31 35 39 44 44 45 40 42 44 38 33 27 30 41 39 37 41 43 43 45 41 45 44 41 48 44 42 43 43 47 45 45 44 45 46 35 33 34 35 35 36
35 37 39 43 48 52 52 47 43 37 36 36 38 32 35 38 24 30 35 35 42 49 48 40 33 38 39 40 41 44 46 47 47 45 43 43 42 34 34 34 33 35 36
40 41 44 43 47 49 51 46 42 41 39 36 34 36 40 37 31 31 37 31 32 35 32 27 32 31 40 42 41 41 46 45 46 43 42 43 39 35 35 34 36 40 42
47 48 49 48 54 43 45 45 47 45 42 34 33 30 28 25 27 22 23 27 28 41 43 48 35 39 39 40 41 43 43 44 42 44 43 42 38 37 38 39 40 41 47
53 51 57 56 45 50 47 48 48 45 34 35 32 30 30 33 24 26 27 30 39 39 44 42 39 43 40 40 43 44 43 41 40 42 41 40 40 40 41 41 40 43 49
62 52 41 54 51 44 47 46 46 39 36 36 33 30 29 27 34 36 40 36 36 34 35 40 40 40 41 43 42 40 38 37 41 39 39 38 38 36 37 34 35 37 48
43 40 42 51 52 51 47 47 38 35 29 35 33 35 26 34 33 45 43 33 32 31 37 41 41 40 42 40 37 36 35 37 38 35 32 30 29 27 30 31 32 33 41
47 45 51 53 51 47 44 44 36 34 34 36 34 34 39 36 35 36 39 37 39 37 41 41 40 40 40 36 34 33 34 36 34 29 30 31 29 27 28 29 29 29 35
51 50 48 41 36 37 34 34 37 39 42 40 38 41 45 43 37 35 41 45 40 40 42 39 40 38 35 32 32 33 34 33 31 29 30 30 30 30 30 29 28 30 37
46 43 43 44 42 40 38 40 42 44 43 43 44 43 40 39 39 41 43 37 35 38 39 38 36 34 33 32 33 33 32 30 28 26 28 27 27 26 26 26 25 29 31
40 42 44 45 46 47 43 46 48 46 43 42 41 39 42 44 43 41 33 33 36 39 37 34 36 35 33 33 32 33 31 30 30 27 28 28 26 23 23 23 24 26 24
45 46 48 47 46 44 43 43 43 41 39 39 40 40 39 39 34 34 34 36 37 37 37 36 34 32 31 32 34 33 31 30 29 26 25 26 24 21 21 21 22 23 22
43 43 42 42 43 43 41 39 38 38 38 38 38 36 34 34 37 36 35 35 36 35 33 32 30 29 29 30 31 31 30 28 26 24 22 22 21 20 19 19 19 20 22
42 41 42 39 38 39 39 39 36 38 37 39 36 34 34 34 31 30 28 30 30 28 27 25 25 26 27 29 30 29 24 23 22 21 20 20 20 19 19 16 17 18 19
42 42 35 37 36 35 33 36 35 35 35 36 33 29 28 27 29 30 30 29 26 24 24 24 25 25 25 25 25 22 19 19 18 18 18 19 19 18 18 15 15 16 16
33 33 32 31 34 33 39 37 33 34 33 29 28 24 25 27 30 32 33 32 28 25 23 22 22 21 20 19 18 18 18 20 21 21 22 21 21 20 19 17 15 14 15
38 38 37 40 39 37 36 29 28 29 26 22 24 25 27 30 29 29 29 28 27 24 21 21 20 19 20 21 20 20 21 22 22 22 22 22 23 23 22 20 17 15 13
33 32 30 30 30 30 24 26 26 24 23 24 25 26 24 25 27 27 25 24 24 22 21 21 21 20 20 20 20 20 21 23 25 26 25 24 23 22 22 21 20 18 15
25 27 28 26 23 25 24 23 23 23 23 24 23 23 25 26 27 25 24 23 22 22 22 22 21 21 21 21 21 22 22 23 25 23 22 20 19 18 20 20 20 19 18
25 24 24 23 22 22 22 23 23 23 23 21 24 25 26 24 24 24 24 25 24 24 24 24 24 23 22 23 24 25 23 23 23 22 20 19 19 18 18 19 19 19 19

GFSGL_500_spd_006.txt.gz
Wind_Speed
12 9 9 13 16 17 16 16 25 32 25 37 30 28 29 27 30 32 30 30 29 28 27 30 30 29 27 23 22 24 28 30 31 35 35 37 40 47 52 54 56 53 44
10 9 12 13 12 14 19 21 28 30 38 35 26 41 40 32 37 33 32 35 32 30 30 30 31 32 30 26 33 32 32 35 37 36 37 38 44 49 53 56 54 52 47
9 11 13 14 18 22 26 25 30 33 39 40 44 36 38 33 34 35 33 33 33 31 32 32 34 35 35 37 33 32 38 39 41 40 37 40 48 52 55 53 50 49 50
15 16 18 20 20 23 25 30 36 39 43 40 33 37 16 26 28 33 37 35 33 35 36 32 32 35 39 37 36 41 47 48 49 40 38 44 50 54 55 50 48 47 50
22 21 19 22 21 23 27 31 38 41 45 37 37 31 20 26 29 35 37 34 34 37 39 35 35 36 39 41 39 38 41 38 40 39 43 47 52 55 52 49 44 50 45
21 20 23 25 28 33 33 37 39 44 44 34 30 34 35 30 26 32 33 37 39 38 40 43 43 41 43 44 45 47 46 50 44 45 43 50 52 51 49 48 46 46 40
23 22 25 30 34 36 36 41 42 46 44 42 39 39 40 36 29 35 32 33 33 35 41 39 40 43 44 40 38 37 44 45 46 45 43 50 50 49 49 49 47 43 40
27 29 32 36 38 40 41 43 47 48 48 44 42 42 42 38 34 34 29 27 22 35 39 37 34 25 33 37 40 40 44 46 45 47 48 50 51 51 50 48 43 39 40
33 34 35 37 43 46 48 50 55 61 45 47 44 45 45 39 29 29 26 32 24 22 23 32 34 37 41 45 41 44 48 48 48 49 51 51 52 50 50 42 40 39 40
34 37 40 45 50 52 56 49 56 53 50 49 46 41 41 37 32 31 33 33 28 30 33 33 39 43 41 48 46 49 51 50 50 53 53 52 48 47 46 42 43 41 39
37 40 44 50 55 56 47 42 51 48 45 48 45 38 36 35 32 37 30 29 35 40 40 43 40 39 39 41 47 50 51 51 52 54 49 45 46 45 42 38 36 34 32
42 44 49 52 57 55 56 48 54 52 50 42 41 38 36 35 34 37 33 32 33 37 45 39 39 39 41 45 47 50 51 51 51 46 42 42 41 37 36 34 32 30 32
40 44 49 52 60 53 52 51 48 44 38 39 39 36 37 36 41 38 35 36 37 39 40 41 45 45 44 44 49 47 48 45 41 39 40 38 36 36 35 35 33 32 32
40 44 46 52 47 54 55 50 46 44 37 36 34 38 42 44 40 40 45 43 40 40 41 45 48 44 43 44 40 42 41 37 36 36 35 33 33 35 33 32 30 29 31
49 51 48 47 52 45 42 46 44 41 39 39 43 43 44 45 41 40 39 41 41 41 44 45 40 38 38 39 38 38 36 34 34 33 31 31 31 32 32 32 30 27 28
52 47 49 46 42 44 46 44 44 43 41 42 43 43 44 43 40 40 41 44 41 42 40 38 39 39 38 38 38 37 34 32 31 32 31 32 31 30 30 29 28 26 27
42 43 46 47 45 46 44 42 43 43 45 45 44 46 45 40 40 42 41 40 38 37 40 42 43 43 39 39 38 35 34 31 30 30 30 31 29 29 28 26 26 25 25
47 50 51 50 48 47 45 43 42 43 43 42 41 40 40 39 40 38 36 36 36 36 35 34 34 34 35 36 35 34 33 30 29 29 28 27 26 27 24 23 23 23 23
51 45 44 45 47 46 43 44 46 45 43 40 42 39 36 35 35 33 32 30 31 30 29 29 30 32 33 33 32 31 30 29 27 26 23 22 24 24 22 21 21 21 20
45 42 43 44 43 43 45 46 42 41 43 38 38 37 34 34 32 29 26 27 27 29 30 32 31 29 28 29 29 28 27 25 22 21 20 20 20 21 20 20 19 19 19
41 38 40 42 44 45 41 38 39 37 35 39 38 34 32 32 31 27 28 28 31 33 33 32 29 27 26 24 23 23 22 19 18 19 20 21 22 23 22 21 20 19 19
38 40 42 40 36 36 37 38 39 40 36 34 31 27 30 27 27 28 29 26 27 30 29 26 25 25 23 21 21 21 21 20 20 21 22 22 22 23 23 22 21 20 20
38 36 37 39 39 40 39 36 32 31 30 28 27 25 25 26 26 25 25 27 28 27 26 25 24 23 22 22 23 22 21 21 21 21 22 24 25 26 26 26 24 22 21
36 36 34 32 30 28 28 28 27 25 25 24 24 24 24 24 22 27 28 27 25 25 25 26 24 23 22 21 21 20 21 22 23 24 24 24 24 23 23 23 22 21 21
31 29 28 26 26 28 27 25 24 25 25 25 26 24 23 22 25 25 24 24 24 24 24 25 24 24 24 23 22 22 22 23 24 25 24 23 22 21 20 20 20 19 20
27 26 26 27 27 26 25 24 25 25 24 24 24 21 23 23 23 22 22 22 22 22 21 21 22 22 22 22 21 19 20 22 21 22 21 18 16 16 16 17 18 18 18

GFSGL_500_spd_009.txt.gz
Wind_Speed
18 19 18 17 13 14 13 10 16 13 20 22 30 32 30 35 36 36 36 33 33 32 31 33 33 32 31 31 30 30 27 27 32 32 32 34 35 38 39 39 42 43 49
19 21 18 14 13 12 11 17 19 17 19 25 28 28 24 28 22 22 25 37 39 34 31 33 34 32 33 34 34 34 39 41 39 36 36 39 41 41 41 43 46 51 53
17 15 16 14 15 17 21 21 17 23 21 27 30 27 27 26 25 25 29 36 37 35 38 34 33 33 34 34 37 39 40 42 43 42 45 46 44 44 44 48 52 52 55
17 17 17 17 18 20 20 17 25 22 28 32 32 30 29 32 30 32 36 36 36 36 35 40 36 35 33 35 36 36 39 42 44 44 41 38 49 53 54 54 54 56 58
20 19 20 20 16 18 21 23 27 29 33 35 37 35 32 34 36 38 40 37 38 34 35 39 44 38 35 40 42 44 45 45 42 46 50 48 54 60 57 57 52 55 54
20 20 21 15 16 19 22 25 30 35 39 42 45 44 46 42 41 41 37 40 40 37 37 38 42 41 41 41 41 43 42 42 40 45 42 43 49 59 56 56 54 52 49
20 18 23 23 25 24 25 29 36 41 45 50 53 51 50 48 38 42 42 40 43 41 38 34 33 37 42 39 33 35 34 36 44 45 44 50 53 56 57 56 55 53 49
23 21 22 25 26 29 34 37 42 46 49 50 55 50 49 45 41 44 43 40 38 37 37 35 35 38 31 35 34 40 43 42 46 51 48 52 53 55 56 56 52 52 48
29 25 24 27 31 35 37 41 45 49 54 47 46 51 52 51 50 45 42 41 38 38 38 40 38 33 35 37 41 44 46 46 51 53 54 54 55 56 57 56 53 50 46
30 28 29 31 33 37 39 41 48 56 53 50 48 51 55 53 48 41 38 36 37 43 40 39 40 41 44 49 53 46 43 47 50 55 57 56 58 56 52 48 44 43 40
36 33 33 36 39 40 42 46 47 55 56 55 55 53 52 50 45 41 39 39 32 37 45 45 40 42 45 46 47 48 48 52 56 57 57 57 52 50 47 45 40 39 40
42 40 40 44 44 44 46 46 50 53 58 60 54 53 47 44 44 39 39 37 40 43 45 40 45 44 44 46 49 49 53 54 53 51 49 48 44 40 39 37 37 38 38
46 44 46 45 46 47 51 53 55 57 56 55 50 46 45 44 38 38 42 43 45 42 43 47 44 42 47 50 53 54 51 47 45 45 46 41 38 37 35 34 35 35 33
48 49 46 46 50 53 53 56 53 51 55 49 45 44 41 41 41 44 45 46 44 40 45 43 47 48 51 50 48 44 43 43 42 43 41 37 34 33 34 34 34 34 34
49 49 50 56 54 55 55 56 51 53 49 48 48 48 49 49 46 44 45 43 39 45 46 46 49 49 47 44 42 41 42 43 43 42 38 34 33 33 32 33 34 33 32
48 48 53 57 59 58 60 56 49 49 48 47 46 46 46 46 44 47 44 42 41 45 46 47 45 43 43 43 44 41 40 39 38 38 35 34 33 32 31 32 32 31 30
49 50 56 59 58 58 57 53 53 50 46 46 44 44 46 45 44 41 41 42 43 41 40 40 40 40 37 37 39 39 39 38 37 35 34 33 33 31 29 30 28 28 28
53 55 56 58 54 53 53 53 46 44 45 45 44 45 41 40 40 39 38 39 37 37 38 38 36 35 35 35 36 36 35 35 34 33 32 32 31 28 27 26 26 26 26
51 51 52 52 52 52 51 50 49 45 45 43 44 39 37 36 35 37 33 34 33 32 32 32 32 35 37 35 34 33 33 33 34 33 31 28 25 24 24 23 23 23 24
54 51 50 49 48 48 48 46 43 44 46 41 35 37 34 39 40 34 31 31 30 29 30 32 31 33 32 31 31 30 31 29 27 24 23 22 22 23 24 25 25 24 24
48 45 47 50 47 42 42 43 44 42 39 39 40 36 34 33 30 27 29 25 28 29 27 30 30 29 30 28 28 27 26 24 23 22 22 22 23 24 26 26 26 26 25
46 45 46 42 42 40 40 39 39 40 40 42 40 36 30 27 26 27 26 27 25 27 29 29 28 27 28 26 24 24 24 24 24 23 22 22 23 25 27 28 29 28 28
42 40 39 41 40 36 36 39 39 37 31 31 30 28 23 24 24 24 25 23 25 26 27 26 25 26 27 27 25 23 23 23 22 22 22 24 26 27 27 28 27 26 25
40 39 41 39 36 34 37 35 31 29 30 30 28 25 24 23 23 25 22 22 23 22 22 23 22 23 23 24 25 24 23 23 23 23 24 25 26 26 26 25 24 22 23
41 40 36 34 31 31 32 29 29 31 30 29 27 26 25 24 23 21 21 23 21 20 20 21 21 22 25 25 23 22 22 22 19 21 21 20 21 22 20 20 20 20 21
35 33 32 30 29 30 30 31 30 29 27 26 27 25 21 21 22 21 22 22 22 22 21 20 21 22 23 24 23 21 21 21 21 21 21 20 20 17 18 19 19 19 19

GFSGL_500_spd_012.txt.gz
Wind_Speed
17 18 20 22 19 13 8 5 8 13 11 13 16 19 18 22 25 28 29 29 26 29 33 30 33 33 31 32 34 34 37 37 33 32 32 37 40 41 43 41 42 40 41
17 16 16 17 14 9 7 8 12 9 9 13 17 19 22 22 25 26 30 34 32 32 31 31 31 33 36 31 33 35 37 39 39 39 41 41 42 45 45 45 44 44 45
14 10 7 7 6 6 9 12 12 11 11 15 20 28 34 30 27 34 37 40 39 37 35 35 35 32 31 33 33 36 37 38 42 44 45 44 44 47 45 43 42 48 52
12 8 6 6 5 7 10 10 10 9 15 20 26 31 37 41 39 39 38 40 40 39 38 37 37 37 34 38 41 40 38 37 40 45 44 46 46 43 45 48 46 50 49
16 10 9 8 6 9 5 6 14 15 22 26 30 37 39 42 43 40 39 38 38 40 40 41 40 42 40 39 34 35 36 41 46 38 36 34 34 39 39 42 47 48 52
20 13 13 10 10 13 15 16 16 22 26 31 34 42 45 45 36 41 42 44 43 46 42 40 39 41 40 33 29 36 39 36 35 34 40 38 45 49 50 53 53 52 54
24 15 15 10 9 13 13 16 21 24 27 33 39 47 52 49 46 45 44 46 46 47 40 38 39 38 35 38 40 41 34 33 33 37 45 48 49 52 53 54 53 56 55
28 22 20 16 13 13 18 21 25 26 31 35 41 46 53 57 50 50 48 49 50 45 40 38 40 41 34 37 41 43 41 45 46 47 50 52 49 52 54 55 58 58 54
28 25 21 24 26 23 23 27 30 32 35 39 43 48 53 52 55 55 53 51 47 42 40 38 39 37 39 42 43 44 44 50 53 51 50 48 50 53 58 60 59 55 49
30 26 26 27 26 26 30 31 34 36 40 42 45 49 54 55 56 54 52 44 44 43 40 41 37 38 41 46 47 45 44 49 51 50 52 53 55 58 54 51 46 45 42
31 27 26 27 30 31 33 34 37 42 44 47 50 52 52 54 53 51 42 41 42 39 35 37 35 46 46 47 46 48 51 51 51 53 56 57 52 46 46 46 40 38 38
32 31 30 32 34 34 34 38 41 46 48 51 55 56 59 54 52 46 45 41 41 42 43 43 44 47 46 45 49 49 49 51 54 54 50 45 45 45 42 39 38 37 37
36 35 35 36 38 42 38 42 42 49 57 56 57 58 61 54 48 50 48 47 47 46 45 44 45 45 43 46 53 53 51 52 49 45 46 45 43 44 41 39 37 37 37
36 38 42 41 39 42 45 48 53 56 57 57 58 58 56 50 49 48 48 48 46 45 45 45 40 45 44 49 51 51 49 46 46 47 44 43 41 39 38 37 37 36 35
35 40 44 46 45 46 45 50 53 57 59 60 60 56 53 53 50 49 46 46 46 43 39 39 42 46 47 48 47 44 43 41 39 38 40 39 37 35 34 34 33 34 34
43 45 47 45 46 49 50 54 58 60 60 58 53 51 47 45 47 46 45 43 40 40 40 40 42 45 44 44 40 37 39 40 40 40 39 37 34 32 33 33 31 31 31
51 47 46 49 48 49 52 55 57 60 58 51 46 44 45 46 45 47 40 37 36 35 38 37 38 37 35 35 35 38 40 42 41 39 37 34 33 32 31 30 28 27 28
47 49 52 51 51 51 54 56 53 50 49 46 45 44 43 43 45 38 34 34 36 39 37 35 33 31 32 33 34 36 37 37 35 33 33 32 29 27 26 24 24 25 26
54 56 56 55 58 57 60 58 52 46 45 44 42 42 43 40 37 38 36 36 36 33 30 28 26 27 30 31 31 32 32 31 31 31 29 26 24 23 22 22 24 27 28
48 48 41 43 48 54 54 46 43 45 44 41 41 41 35 36 38 38 34 31 30 27 25 26 27 27 29 28 28 29 29 27 28 27 25 25 23 23 24 25 26 28 28
48 44 48 51 52 46 44 43 44 43 41 39 36 34 34 36 35 32 30 26 26 25 24 24 26 24 24 25 26 28 27 25 24 25 25 24 22 22 24 26 28 30 30
50 44 44 43 43 41 42 40 39 42 41 40 33 36 31 28 30 30 24 23 23 22 23 23 24 24 22 23 23 24 26 25 24 24 23 23 23 24 26 28 29 30 29
45 40 41 42 41 42 41 38 40 39 37 32 35 31 27 29 29 28 25 24 22 21 22 21 21 22 22 22 24 27 27 25 23 24 24 23 24 26 26 26 27 26 25
41 42 39 41 37 39 39 36 32 33 30 34 31 30 30 28 28 25 23 23 21 21 21 21 21 22 20 21 22 25 25 25 25 23 22 22 23 23 24 25 22 23 23
36 37 34 40 38 38 36 37 36 32 33 34 32 34 31 27 26 27 23 20 21 22 22 23 24 25 23 23 21 23 23 24 24 24 25 24 25 24 24 22 21 22 21
36 38 38 39 39 38 35 36 34 34 35 33 32 29 28 29 30 26 21 21 22 23 23 25 26 26 25 24 24 22 22 23 23 23 23 25 24 23 22 19 18 19 20

GFSGL_500_spd_015.txt.gz
Wind_Speed
12 10 11 13 13 9 6 5 7 6 5 9 9 11 10 14 19 24 21 27 27 30 30 28 30 31 28 28 26 28 30 31 31 32 34 37 37 38 38 40 42 42 39
12 10 8 6 3 6 7 8 5 5 5 6 10 13 15 17 26 30 29 30 32 32 31 31 34 34 35 32 28 28 31 35 37 33 35 35 37 41 45 46 48 50 49
11 9 5 6 9 10 10 7 6 8 10 11 10 9 16 23 31 32 33 28 29 30 31 32 35 38 37 37 33 30 29 34 34 33 33 33 34 43 45 50 49 48 46
12 10 9 9 12 13 10 7 9 10 11 11 13 16 23 28 29 34 39 37 34 34 34 37 39 40 34 38 34 32 32 32 30 31 32 32 32 27 30 38 33 36 34
20 15 14 11 11 13 10 8 8 7 10 15 18 21 24 29 34 34 38 38 39 40 38 41 42 40 35 37 34 32 32 32 34 34 33 32 32 34 35 38 39 41 43
23 19 16 13 12 13 14 13 16 18 20 21 21 21 25 30 36 36 40 40 43 41 44 42 40 36 34 35 33 34 33 34 36 38 39 32 36 42 44 47 49 51 46
25 22 18 16 16 15 15 12 12 13 15 19 23 24 28 31 38 42 42 42 45 45 47 40 36 36 35 34 34 33 31 35 34 41 42 45 46 49 52 50 47 47 50
30 27 23 17 20 19 15 13 14 15 17 21 25 28 31 36 39 44 48 52 46 49 43 35 35 37 37 38 35 30 36 37 42 44 45 44 48 50 49 49 51 51 52
34 32 27 21 20 25 21 22 23 20 22 24 27 32 36 40 45 48 52 56 52 46 42 40 37 36 38 36 43 33 38 44 46 46 47 50 49 49 52 53 52 50 46
33 33 31 26 23 22 26 28 24 27 34 24 30 35 38 42 50 53 54 54 46 41 41 39 39 39 41 43 39 39 52 47 47 48 52 52 50 54 55 51 44 42 42
35 37 35 32 27 24 24 24 29 30 26 34 37 39 42 48 52 52 55 51 41 40 41 41 41 42 43 43 45 47 48 46 47 54 49 55 54 54 49 46 44 40 37
37 41 41 34 30 23 22 31 27 32 35 37 42 44 49 51 54 57 55 46 45 46 46 45 44 44 45 45 44 45 45 49 53 52 51 54 51 47 46 42 39 37 35
37 40 37 33 30 27 30 31 30 36 39 42 48 46 48 53 55 59 51 49 47 44 43 44 43 43 44 45 43 41 49 51 53 53 49 46 42 39 39 39 38 36 34
39 39 36 36 33 34 33 34 37 39 44 45 45 50 55 56 56 55 50 47 43 42 43 46 47 47 45 42 42 43 47 47 46 44 41 39 40 41 40 38 35 33 32
40 43 42 42 37 37 37 38 42 44 46 47 51 54 57 56 52 49 46 44 44 44 45 46 42 40 38 40 39 41 42 38 35 37 39 40 39 38 36 33 30 29 29
46 42 39 38 37 38 40 43 44 48 46 51 52 52 53 52 50 47 44 42 42 44 41 38 36 38 38 38 36 33 33 35 37 38 39 38 34 30 29 28 28 27 27
45 41 39 40 42 44 45 45 49 49 52 53 51 52 54 53 49 44 42 43 42 39 38 37 36 35 33 29 30 32 32 34 34 35 37 35 31 28 26 25 23 23 23
48 45 44 44 46 47 49 49 53 55 56 57 55 54 50 46 44 42 44 41 39 39 35 32 31 30 28 29 30 31 31 30 31 33 32 29 27 24 24 23 21 22 23
54 50 52 53 48 46 48 48 57 58 63 52 48 47 42 44 42 42 40 38 38 35 30 29 26 26 25 27 28 26 26 28 30 30 29 27 26 26 25 25 24 25 26
55 55 55 52 54 53 49 47 45 44 43 43 42 40 41 42 41 38 36 33 31 31 29 25 28 27 24 24 24 25 25 26 29 29 27 26 26 26 25 25 26 28 31
55 38 45 47 44 50 50 46 47 49 43 43 43 38 42 39 36 35 30 28 29 30 27 26 25 22 20 23 24 24 25 27 28 27 26 26 27 27 28 29 30 31 30
45 40 42 49 45 47 55 52 48 42 40 42 41 40 39 32 32 33 28 27 31 29 26 25 22 19 17 20 22 23 23 25 27 27 27 26 26 26 27 28 27 27 27
43 44 47 49 58 58 47 34 40 41 39 40 40 35 31 28 30 30 29 30 29 27 25 25 22 20 19 23 26 27 24 24 26 26 27 27 27 27 28 28 28 26 25
40 52 38 30 26 27 29 37 36 37 37 35 33 34 29 33 33 32 31 31 30 28 27 24 21 21 23 26 27 27 26 25 25 25 26 27 27 28 29 28 26 23 23
29 32 28 25 29 32 35 37 37 36 35 29 34 29 32 34 34 34 32 29 29 26 24 22 21 22 25 26 25 24 24 25 25 25 26 26 27 28 28 28 25 22 22
31 30 34 36 36 38 38 32 39 38 30 31 31 30 31 32 33 32 30 29 25 23 23 22 22 24 26 25 24 22 23 24 25 26 26 26 26 27 27 27 26 22 21

GFSGL_500_spd_018.txt.gz
Wind_Speed
12 10 10 15 17 15 18 18 16 12 7 7 8 9 10 9 10 11 15 20 22 25 23 22 22 26 31 31 32 25 25 24 23 27 28 30 31 30 28 27 28 32 36
12 10 9 12 14 16 19 19 17 12 9 8 10 10 12 12 12 14 15 19 22 22 25 27 27 29 34 35 33 30 28 27 27 27 29 29 28 29 27 28 31 30 28
14 11 9 10 13 18 20 18 18 15 10 10 12 13 11 13 17 19 19 24 29 30 31 29 30 34 38 39 36 31 32 29 30 28 23 22 24 29 28 30 28 26 30
18 14 9 12 15 19 21 19 19 16 13 13 15 14 16 18 19 20 21 26 28 32 38 38 37 40 41 36 34 32 32 31 34 32 26 25 24 30 33 33 31 33 35
19 20 15 16 19 23 21 21 21 16 15 17 18 16 17 14 18 20 23 26 30 36 40 41 39 38 35 33 32 32 31 33 33 33 26 25 26 34 38 38 38 40 42
22 21 23 20 19 22 22 23 21 18 17 17 17 17 16 15 19 22 25 27 29 35 37 38 34 31 32 32 29 29 30 31 30 39 27 30 32 36 40 41 46 45 46
31 24 23 24 20 23 25 26 23 26 23 17 16 16 15 16 19 24 27 30 35 40 42 38 30 32 33 33 29 28 30 31 35 37 34 32 37 46 47 47 47 48 49
27 27 23 25 25 22 26 27 27 25 22 22 21 22 21 22 19 26 30 34 40 42 44 37 33 33 34 36 35 35 34 34 38 37 38 36 43 48 48 48 49 48 48
31 31 27 28 29 28 25 28 28 28 26 25 27 30 33 23 22 28 33 37 41 44 45 37 35 37 38 40 39 38 37 38 37 38 41 55 52 48 50 55 51 46 48
32 33 33 33 36 33 28 31 33 32 34 33 34 30 28 31 30 34 36 39 44 48 48 42 41 40 41 41 41 39 39 43 41 43 48 51 51 51 53 53 45 45 45
34 36 35 36 39 38 33 33 33 39 38 40 42 40 21 29 31 36 37 43 48 52 49 46 45 43 43 41 35 40 42 42 44 47 50 53 51 52 50 48 46 44 40
37 39 43 39 44 43 39 35 36 38 38 43 48 30 27 32 35 38 40 46 51 49 47 47 45 43 42 42 38 40 44 43 45 47 48 52 51 48 43 41 41 41 40
45 43 40 41 46 45 44 43 39 38 42 46 37 31 34 36 38 41 43 47 48 48 48 46 44 44 44 45 44 41 42 43 46 46 44 44 41 42 43 44 44 42 38
47 44 45 42 44 47 48 52 42 45 46 42 28 35 37 40 43 46 47 48 51 51 46 43 43 44 46 41 39 39 41 42 39 37 38 40 41 42 43 43 41 37 33
48 48 47 46 48 47 50 51 50 47 47 28 36 38 41 44 47 49 51 53 53 48 44 43 43 44 42 39 38 37 35 33 35 36 37 37 38 40 37 35 32 30 30
64 71 42 44 50 51 55 53 43 32 35 36 40 44 46 50 51 52 56 55 50 45 43 44 43 41 38 35 32 31 34 34 34 34 33 34 35 36 34 30 27 27 26
68 71 63 52 60 47 55 38 21 33 38 42 46 49 52 53 57 60 60 55 48 41 42 41 40 36 33 32 30 31 31 30 30 29 30 32 33 33 32 30 29 28 27
53 42 58 60 64 49 44 30 38 43 45 46 50 52 51 58 50 38 40 39 41 39 40 39 32 30 32 29 29 28 26 25 27 28 30 31 31 31 31 30 29 28 28
39 40 39 43 46 45 38 40 43 50 48 49 53 54 51 44 43 39 39 37 37 39 38 32 27 30 28 30 28 24 22 24 24 27 29 30 30 30 30 30 30 31 31
41 30 40 46 47 52 52 53 52 53 55 56 53 52 53 46 44 40 40 37 37 37 35 27 27 27 26 28 25 21 21 23 26 28 29 30 30 30 30 30 31 31 31
36 36 39 43 49 55 56 58 62 57 61 51 44 44 42 37 38 39 37 37 36 34 28 26 26 25 23 24 21 19 21 25 27 29 29 30 31 30 30 31 32 32 31
41 36 37 43 47 52 59 59 49 49 51 46 44 43 34 38 39 38 35 33 32 30 26 27 26 22 23 23 22 22 24 28 29 28 30 29 30 30 30 31 32 32 30
39 30 32 38 40 39 39 43 39 42 44 51 49 34 35 33 32 33 34 32 28 27 30 28 24 22 22 23 23 22 25 27 26 26 28 29 29 30 31 31 31 32 29
31 39 42 39 43 39 45 49 48 47 34 28 28 30 34 35 34 32 30 31 32 28 29 27 24 24 23 24 22 22 24 25 25 24 25 27 28 29 29 30 31 31 30
42 46 49 46 52 62 47 31 33 29 32 34 34 33 33 34 34 34 30 31 30 28 29 27 25 23 23 24 22 21 24 25 23 21 21 23 25 28 28 29 30 30 29
52 48 48 41 33 34 29 33 36 32 33 34 36 36 37 35 34 32 33 30 31 30 30 27 25 24 25 25 23 23 24 25 23 20 20 22 23 26 27 28 28 29 29

GFSGL_500_spd_021.txt.gz
Wind_Speed
10 11 11 15 16 18 18 24 24 22 19 17 14 10 11 12 12 12 14 13 14 16 20 23 25 24 22 25 31 32 30 28 27 28 29 27 27 29 26 22 24 27 28
13 13 12 14 14 16 21 24 23 21 21 18 15 12 12 12 12 15 14 12 12 15 17 22 28 31 29 28 29 27 27 28 27 29 30 30 29 27 23 21 23 23 25
14 12 13 12 14 14 20 24 24 22 23 19 18 15 14 13 14 16 13 10 13 17 21 27 31 33 32 31 28 28 28 29 27 28 31 35 32 34 28 24 24 28 28
18 14 12 11 13 14 17 22 24 24 23 21 20 18 16 16 17 15 15 15 16 19 22 26 32 33 29 27 26 30 27 27 29 30 31 35 34 32 25 23 27 32 30
22 17 12 14 15 18 17 19 25 26 25 24 24 22 21 21 21 20 20 17 17 19 25 27 31 29 28 28 26 27 29 27 30 33 33 32 30 31 29 33 33 35 38
23 18 19 19 21 19 20 21 26 27 27 28 27 28 27 26 21 19 21 19 19 21 26 27 31 30 29 29 31 32 35 32 32 35 33 34 36 35 35 34 38 41 45
23 22 22 24 27 22 22 25 26 28 30 31 29 29 27 25 20 22 21 29 23 25 30 30 31 31 32 35 36 38 39 39 36 32 39 36 38 36 43 41 46 49 45
30 29 31 28 28 25 24 26 27 29 32 33 32 34 30 25 24 24 27 26 25 27 29 32 33 33 37 39 39 39 41 40 41 36 39 39 36 39 42 53 56 57 51
35 36 28 27 27 29 28 26 27 27 31 37 37 35 33 31 31 30 31 27 26 27 30 34 34 35 39 41 40 40 40 39 39 38 38 42 40 42 47 52 52 51 52
40 38 36 33 30 32 32 33 31 32 32 37 41 39 39 36 39 41 26 22 28 27 32 34 36 41 43 43 42 42 42 39 41 44 46 48 44 46 48 49 50 49 46
41 40 42 40 33 38 39 40 40 38 38 40 43 42 43 43 46 50 31 22 25 28 31 36 41 43 43 42 42 43 44 44 44 44 46 47 47 49 46 43 43 45 46
43 40 46 51 38 42 41 40 43 47 46 44 40 47 47 47 51 50 34 27 31 34 34 40 44 43 40 40 42 43 45 43 43 43 44 46 44 40 40 41 41 43 46
51 53 49 57 51 45 50 48 46 52 55 50 49 46 44 50 54 43 33 33 35 36 40 44 49 46 41 41 42 44 44 40 39 40 40 39 39 39 38 38 40 42 42
51 52 51 57 54 55 53 49 55 55 59 58 54 52 49 55 56 37 35 37 37 42 47 50 51 44 42 42 42 41 37 36 36 35 36 36 37 37 37 38 38 40 39
66 57 57 56 52 58 55 56 52 58 61 64 60 55 48 53 48 31 36 36 39 44 49 56 54 40 41 42 41 35 33 35 36 36 34 33 36 37 37 36 36 36 35
56 67 60 57 57 62 61 61 58 61 65 65 70 47 52 36 32 37 38 37 41 44 42 34 29 35 40 39 36 32 34 34 34 31 30 31 32 34 35 35 35 36 35
64 61 61 59 61 63 69 69 69 73 72 38 59 17 25 29 30 37 42 41 44 38 37 33 32 35 38 36 33 32 33 31 29 26 27 29 31 34 34 34 35 36 35
71 67 62 66 69 77 78 77 83 67 57 42 51 42 31 25 34 43 46 44 45 42 38 37 32 36 36 33 32 32 31 28 24 24 27 29 31 33 34 35 34 35 35
78 67 71 77 65 72 73 72 68 45 32 34 29 37 33 36 42 46 47 48 48 50 46 37 33 35 33 31 32 30 26 25 22 23 27 29 31 33 33 34 34 35 35
83 87 24 40 61 26 59 71 31 26 30 29 35 38 40 44 45 50 47 48 48 39 35 34 33 32 31 30 31 28 25 24 22 24 28 29 30 31 31 32 33 34 35
19 61 71 38 30 24 24 27 25 28 29 32 37 43 46 48 46 45 44 40 35 34 35 34 32 32 29 28 28 25 25 23 23 25 28 27 28 29 30 31 32 33 34
3 13 24 22 22 24 26 27 31 36 35 37 39 43 47 50 49 51 44 48 34 30 32 34 35 31 28 28 24 25 25 22 23 25 27 25 25 26 27 28 30 31 33
17 18 19 24 28 29 30 30 31 34 38 40 40 44 45 42 45 49 48 36 30 32 33 36 33 28 27 27 26 25 25 23 24 25 25 24 23 22 23 27 29 30 31
20 24 27 25 25 26 36 40 36 37 38 37 39 40 41 50 48 37 35 34 33 33 35 34 30 29 28 27 26 25 24 25 26 25 24 23 22 21 21 24 27 29 30
28 28 30 35 31 35 38 36 37 38 35 40 47 52 42 38 35 34 36 38 35 34 33 33 30 30 29 28 28 26 25 27 26 25 25 24 24 22 22 23 25 27 29
31 39 37 40 41 42 43 47 45 43 47 50 45 35 35 37 39 40 39 38 37 33 32 34 31 30 29 29 29 28 27 27 26 25 26 26 26 26 25 25 24 25 27

GFSGL_500_spd_024.txt.gz
Wind_Speed
12 13 14 16 19 22 23 22 24 25 22 17 17 19 17 11 9 8 10 14 15 13 12 14 17 20 23 22 20 22 21 20 22 22 21 23 24 24 24 26 28 31 27
15 16 14 15 14 17 17 21 27 26 24 21 20 21 18 14 12 10 11 17 11 13 14 17 18 23 25 25 20 19 22 24 25 26 26 27 28 28 29 28 27 28 27
17 17 17 13 13 15 16 18 24 25 25 24 23 21 20 16 16 13 15 13 11 14 15 17 19 24 27 25 21 22 23 25 27 28 31 33 35 35 33 28 28 29 30
18 20 18 14 12 15 16 16 17 23 26 25 25 24 23 20 18 16 17 17 15 13 16 18 21 22 23 19 20 25 27 27 28 30 32 33 37 35 36 35 34 29 32
22 22 16 16 14 12 13 17 17 15 21 25 28 26 25 22 21 21 21 19 16 14 17 20 22 23 22 21 23 26 28 30 31 32 32 34 38 27 37 37 37 38 36
24 20 22 22 20 18 17 20 21 19 20 23 27 27 26 24 24 25 25 22 22 21 24 22 23 22 22 22 25 26 29 31 32 34 36 34 32 34 41 41 42 39 41
27 27 23 24 24 24 23 26 24 22 24 23 26 28 28 27 28 29 30 24 27 28 30 25 23 23 22 24 27 30 30 30 33 34 37 38 37 38 41 41 44 41 43
27 34 29 27 23 25 27 29 28 24 23 25 29 30 31 33 34 34 34 29 27 33 33 28 28 27 25 26 28 29 29 31 34 36 39 41 43 44 44 45 45 42 44
19 23 33 36 32 31 30 28 30 29 26 23 27 34 36 38 39 39 39 33 32 34 37 30 29 27 27 28 30 31 31 34 35 37 41 43 43 41 41 42 43 41 40
26 29 37 37 37 33 29 28 30 33 35 31 29 29 36 41 44 46 40 37 38 37 33 28 28 31 31 31 31 30 33 35 37 40 42 41 38 39 38 39 39 39 40
34 34 38 40 39 47 44 36 35 37 40 39 38 40 41 36 43 44 44 42 42 37 26 30 29 33 34 36 34 33 35 36 39 41 38 36 36 37 38 37 37 38 40
44 37 38 40 43 47 46 42 48 41 44 44 47 47 49 49 44 44 49 47 46 45 39 38 31 35 38 39 35 34 36 36 39 39 34 35 34 35 33 32 36 39 38
46 45 36 42 50 44 40 56 50 56 40 44 48 51 54 54 53 55 51 52 51 49 43 44 35 36 38 41 36 32 33 36 38 34 36 34 32 30 31 32 34 37 38
52 51 49 48 48 42 48 59 61 54 57 59 57 50 51 55 61 64 63 61 52 51 47 45 36 35 33 33 27 28 32 34 33 33 34 32 28 27 30 32 35 37 39
54 54 56 56 58 59 62 65 48 52 64 57 56 56 58 67 68 73 59 69 47 47 35 30 35 32 35 32 31 31 32 31 30 31 30 27 23 26 31 33 36 37 40
57 63 66 70 73 69 60 61 61 63 67 58 69 70 53 68 52 72 75 45 38 29 34 37 32 36 38 34 34 33 32 29 28 28 26 21 22 26 31 33 36 38 38
52 59 62 63 65 64 66 69 68 67 68 68 70 74 67 69 60 36 35 14 27 25 29 32 38 38 43 42 34 33 31 28 28 27 23 19 21 26 30 32 36 37 37
54 53 56 56 60 65 67 66 66 67 71 75 76 78 68 71 67 58 23 17 19 25 31 40 41 40 35 29 30 32 28 26 29 25 19 19 21 25 28 30 34 35 35
52 54 62 71 78 80 82 79 71 67 72 75 68 69 68 72 69 52 22 18 22 28 29 28 32 33 33 28 29 29 26 27 28 24 19 20 21 24 27 28 31 31 33
47 49 60 68 68 92 88 83 69 70 78 80 56 50 67 71 61 38 20 22 27 30 33 33 33 35 34 31 29 25 27 27 27 23 21 21 22 25 26 26 28 29 31
43 48 40 40 16 29 55 51 51 60 81 69 62 17 25 24 28 23 20 25 29 38 40 36 34 36 36 34 27 26 26 24 27 24 22 23 23 25 24 24 24 25 28
33 28 28 12 30 27 24 17 18 17 9 18 14 17 23 24 21 20 29 35 24 26 26 31 37 34 33 30 28 27 26 25 26 25 23 24 24 26 24 23 22 23 26
33 18 14 9 4 7 18 20 26 13 9 13 19 20 23 27 29 27 26 26 31 32 33 30 33 33 31 29 28 29 29 27 27 27 25 25 25 27 26 23 21 22 26
24 17 13 12 14 11 6 12 13 17 18 24 25 23 26 31 31 31 32 38 38 33 30 29 30 32 33 31 31 33 31 29 30 28 27 26 27 27 26 26 24 24 26
26 26 22 20 17 17 23 18 23 25 27 23 23 25 29 32 35 37 40 33 31 29 29 31 33 33 34 34 33 34 33 32 32 29 27 27 27 27 26 25 26 27 27
33 28 28 28 29 32 29 17 20 28 26 25 28 30 34 35 38 31 35 31 31 33 35 36 37 36 34 36 35 36 35 33 32 30 29 28 28 27 26 25 26 28 28

GFSGL_500_spd_027.txt.gz
Wind_Speed
13 16 17 17 20 22 22 25 26 27 25 22 19 19 15 14 11 7 6 8 10 15 11 12 10 11 15 14 14 10 10 13 16 17 18 20 23 25 27 30 30 29 28
16 18 16 17 15 15 18 22 25 29 29 27 22 22 20 17 13 11 9 9 12 10 12 14 12 15 15 14 7 9 11 15 18 20 22 23 24 24 25 29 29 31 30
19 18 16 16 13 13 14 16 18 23 25 28 24 23 22 20 17 16 12 12 13 13 14 14 15 15 15 15 12 15 16 17 19 22 24 28 29 29 27 28 23 28 32
22 21 18 14 12 15 17 14 13 14 17 23 26 25 25 25 22 19 16 15 16 18 15 14 15 17 17 13 13 16 17 18 21 23 24 26 28 28 28 26 29 34 35
23 22 19 18 19 16 12 12 13 14 16 18 21 26 27 28 24 21 19 19 18 18 18 17 17 20 20 18 15 18 20 22 23 24 25 27 28 29 31 32 34 36 40
26 23 23 22 23 20 18 16 18 16 16 19 18 21 25 26 25 24 24 23 20 18 20 19 16 20 22 22 23 24 25 25 26 28 28 29 31 31 33 35 37 39 41
25 26 28 26 24 24 24 23 24 21 25 21 21 21 21 25 27 27 28 27 21 18 21 23 28 26 26 26 25 27 28 29 31 31 30 32 33 35 36 36 38 39 39
28 32 34 30 29 27 29 29 28 27 25 28 23 22 23 23 27 30 32 33 26 23 25 28 28 32 36 30 28 30 32 31 32 34 34 33 34 36 35 35 36 38 39
32 30 29 31 34 33 30 30 31 29 28 28 28 24 23 22 26 32 36 36 32 32 31 35 34 29 38 34 32 34 36 35 33 37 36 35 36 37 35 35 37 36 34
31 25 29 32 35 38 36 35 36 38 32 32 30 32 30 26 28 35 38 39 34 38 38 39 39 37 33 33 35 33 40 40 37 40 37 34 36 35 35 34 33 31 33
35 33 30 32 34 36 45 49 45 45 43 38 37 34 36 38 38 38 39 43 38 43 44 45 45 38 44 44 39 41 41 44 41 43 36 33 35 35 35 31 27 29 31
41 37 37 38 40 40 41 55 48 38 49 52 38 45 42 45 47 45 48 49 47 46 50 52 50 47 46 49 44 41 39 40 38 35 34 34 34 35 33 27 26 28 32
44 42 43 43 42 46 42 47 51 54 52 59 37 38 46 40 46 52 52 55 57 57 57 57 56 53 54 52 40 43 42 38 35 35 34 33 33 35 30 24 25 28 30
43 42 43 45 48 50 49 49 51 59 60 69 71 47 47 53 48 45 49 51 61 66 65 69 63 56 55 48 51 44 41 36 35 37 36 33 33 34 25 23 24 27 30
50 49 48 49 51 53 54 56 59 57 64 63 51 57 52 56 64 51 56 60 64 74 72 71 75 60 34 41 40 38 39 34 35 39 35 33 34 31 23 22 25 27 31
40 44 48 54 60 66 67 66 64 66 65 64 61 64 65 67 61 64 67 63 69 56 51 67 76 52 34 41 39 44 38 34 42 38 35 32 30 28 22 23 24 26 28
49 50 54 56 53 59 58 59 62 65 72 74 72 74 72 72 71 65 64 60 63 73 47 42 17 22 20 37 41 44 36 34 37 36 34 31 28 26 23 23 24 26 27
51 53 57 58 60 60 62 65 67 63 67 72 68 69 74 74 69 69 68 67 73 50 43 27 46 30 28 25 30 35 30 32 33 34 32 29 27 25 24 24 24 26 27
50 50 53 61 66 69 70 66 67 68 70 69 68 68 67 65 62 68 71 73 76 74 29 27 27 31 28 29 28 27 28 31 31 33 30 28 26 25 25 23 25 27 26
49 51 55 56 54 55 58 59 60 70 79 81 86 78 71 66 68 70 69 68 59 27 29 27 29 31 31 32 30 28 28 31 30 30 29 27 25 26 26 23 25 27 25
48 47 46 47 48 46 48 54 60 56 43 40 51 69 66 68 65 62 58 63 50 15 15 19 30 34 34 36 35 32 30 30 29 29 30 27 25 28 27 24 26 27 25
44 41 42 45 41 41 44 45 37 48 51 22 25 32 54 60 59 55 53 22 26 20 22 27 28 25 22 28 34 31 28 28 30 30 28 27 27 29 28 26 26 27 27
40 39 42 39 33 38 29 24 21 25 14 12 11 8 12 23 39 35 22 30 23 20 24 22 25 26 25 30 28 27 28 30 30 27 28 29 29 30 29 28 27 27 28
46 42 42 37 29 27 19 11 10 11 9 7 8 9 7 13 11 12 22 27 21 20 25 28 29 30 30 30 28 27 29 31 29 29 30 30 30 31 30 30 28 28 26
46 39 38 35 27 25 23 17 15 15 17 18 17 16 18 21 23 25 22 23 26 29 29 27 27 29 31 29 29 29 30 31 30 31 31 31 32 32 32 30 27 28 26
39 37 35 34 31 30 30 25 22 22 24 28 20 20 21 22 25 26 24 25 29 33 35 31 31 31 30 30 32 33 33 31 31 31 31 33 34 32 32 32 29 29 28

GFSGL_500_spd_030.txt.gz
Wind_Speed
19 17 17 19 21 23 22 22 22 25 23 22 23 22 20 18 16 12 11 7 5 4 4 6 8 8 10 8 6 4 6 9 12 14 18 19 21 22 23 26 28 28 21
18 15 14 16 17 17 19 22 25 25 26 26 27 26 25 21 20 16 14 10 8 7 7 9 11 10 9 10 6 6 9 13 17 20 20 20 22 24 24 23 25 26 28
20 17 17 14 13 13 15 16 17 18 20 20 20 24 26 25 22 21 17 15 12 9 9 12 12 14 12 10 10 12 13 17 20 23 25 26 25 26 25 24 25 25 30
22 20 16 14 14 14 14 11 10 11 12 13 14 19 23 26 25 24 20 18 17 12 12 14 14 16 15 13 12 14 16 20 23 25 27 30 30 30 28 28 28 31 32
20 20 18 18 18 19 16 12 11 8 7 9 13 15 19 24 25 23 22 21 20 18 14 15 17 18 14 17 16 17 19 22 23 27 30 32 33 32 32 32 34 36 34
25 21 23 23 21 21 19 18 17 14 12 14 16 17 17 18 19 22 24 23 22 19 18 19 20 19 19 18 22 25 23 26 28 30 32 35 36 37 34 35 36 38 37
27 29 28 26 21 22 24 25 23 20 20 19 17 19 18 18 18 18 22 24 24 23 22 23 23 23 23 24 26 25 27 32 34 34 35 38 39 39 38 38 38 35 37
31 26 29 16 22 26 29 24 24 26 25 24 25 23 22 19 19 21 22 27 28 27 28 29 29 29 29 33 32 31 33 33 34 37 40 41 39 40 39 38 38 37 38
36 30 25 22 24 27 31 29 30 30 31 29 29 29 26 23 21 23 26 30 30 29 27 31 31 34 33 34 36 33 29 33 36 40 45 47 46 42 38 38 37 37 40
34 34 32 30 31 33 34 39 38 39 38 38 33 35 32 32 30 29 29 33 33 30 26 28 31 34 37 39 40 40 38 41 41 44 43 45 45 42 36 36 37 37 39
39 39 38 38 34 35 40 43 45 46 47 45 44 41 43 44 42 33 36 40 41 38 41 39 37 38 43 47 46 46 47 47 45 44 39 43 46 40 37 36 36 37 38
34 36 37 37 35 36 34 36 40 43 43 45 51 50 42 47 47 42 42 46 52 51 47 49 47 48 50 51 46 51 55 54 51 46 42 44 48 44 38 37 36 36 35
35 36 35 36 38 40 38 42 43 44 49 50 48 55 52 50 44 43 41 44 57 64 60 58 49 53 61 60 62 59 62 55 52 49 46 49 48 44 39 35 37 36 35
38 38 39 40 42 43 42 46 45 49 50 52 56 53 50 52 50 54 55 59 63 56 55 50 62 57 54 56 69 72 71 63 52 49 44 47 48 45 39 35 37 35 36
38 39 40 40 42 45 46 48 48 51 51 56 58 55 60 56 53 55 58 60 59 68 58 68 68 62 63 59 61 78 71 64 42 40 43 49 49 44 36 34 37 36 35
40 40 41 42 45 46 48 49 50 53 54 58 60 63 64 63 62 64 63 63 66 63 64 64 65 55 70 75 57 58 74 62 48 43 53 53 45 37 33 35 37 37 35
41 41 42 42 44 47 50 51 54 56 57 58 62 68 66 63 67 71 71 70 70 71 70 65 66 69 76 65 71 57 51 36 39 47 51 47 41 34 33 34 36 37 35
43 45 49 50 50 52 53 54 56 56 57 63 64 65 66 68 68 69 77 79 76 74 70 65 65 71 61 64 66 46 52 36 35 42 44 41 37 32 33 34 36 34 35
48 48 46 47 52 53 54 55 57 58 60 64 67 70 67 70 75 75 77 73 70 69 66 64 65 64 70 68 73 40 38 38 36 41 41 39 34 33 32 35 36 33 35
49 51 53 55 55 56 57 55 58 60 63 60 60 60 61 68 72 79 82 80 72 65 63 55 57 67 65 53 31 37 37 34 36 38 38 36 34 33 34 35 35 34 35
44 49 52 51 57 59 58 58 62 60 58 58 54 54 67 65 70 75 70 67 64 68 55 50 57 57 50 36 35 36 37 39 38 35 37 35 33 34 35 34 36 35 33
42 44 44 46 52 55 61 64 62 54 54 51 49 51 49 38 40 39 32 43 56 59 61 52 51 52 30 27 35 36 35 37 41 40 38 34 35 35 35 34 36 33 31
49 52 50 51 51 52 51 45 45 43 44 43 34 40 36 27 27 30 35 44 47 46 51 40 26 27 22 28 34 33 31 31 33 36 34 35 34 33 35 35 34 31 30
54 51 50 48 46 46 44 43 40 39 34 28 24 21 18 17 8 5 12 20 28 35 26 30 31 26 23 30 34 36 31 32 34 34 32 33 33 35 36 34 33 31 30
46 47 47 47 43 42 41 41 41 39 35 32 21 16 16 13 11 14 10 14 18 21 27 21 22 27 30 32 34 33 30 32 31 31 32 32 34 35 33 33 34 32 29
49 49 51 47 41 38 37 39 40 39 36 35 23 22 29 26 22 21 23 22 22 23 26 29 32 34 33 32 31 31 32 32 32 32 33 32 32 34 34 34 34 32 30

GFSGL_500_spd_033.txt.gz
Wind_Speed
21 20 19 19 20 22 22 24 24 23 19 17 17 17 18 17 17 14 14 13 12 10 9 6 4 4 7 7 9 8 9 11 14 17 19 20 20 21 23 25 26 25 26
22 22 18 18 15 12 13 17 20 21 21 20 19 20 20 20 20 18 16 15 16 14 12 9 7 7 7 11 13 11 14 15 17 20 22 19 22 24 25 26 29 29 29
24 24 19 16 12 11 12 14 14 14 17 17 15 16 18 20 20 20 20 17 19 17 14 12 10 10 10 11 13 12 15 17 20 22 24 24 25 28 28 29 29 30 31
24 22 19 14 12 12 14 15 10 11 10 9 8 9 10 13 16 18 20 18 19 19 16 15 15 14 13 14 15 17 16 18 20 23 25 26 28 29 32 35 34 33 31
24 20 16 15 15 14 15 17 13 12 10 6 2 5 9 10 10 12 13 16 19 21 19 19 18 19 18 16 15 17 20 22 25 24 25 28 32 33 36 37 39 39 40
23 19 17 16 15 17 17 20 18 14 14 12 11 9 7 9 10 10 13 17 21 24 24 23 24 24 22 19 18 20 17 20 25 29 30 29 32 37 41 44 41 38 40
23 22 20 21 20 19 21 19 19 19 19 18 16 15 13 11 14 14 16 19 21 25 25 27 27 28 26 26 26 28 28 28 30 30 29 31 33 37 41 44 44 40 41
29 25 23 23 20 20 20 19 22 25 23 24 24 22 20 16 18 20 22 24 23 23 27 27 30 32 32 31 32 35 33 32 32 34 34 35 39 42 41 42 41 40 40
35 31 28 29 26 23 19 18 23 27 29 27 28 28 26 25 23 26 27 30 32 29 29 29 30 34 35 35 35 40 36 36 38 41 42 39 43 42 44 45 43 42 44
37 37 37 38 33 28 25 26 28 29 32 35 33 33 33 30 31 32 33 36 38 39 36 38 34 30 32 35 34 39 41 40 45 44 50 49 44 45 46 49 48 43 44
45 44 44 46 38 33 33 32 34 32 34 37 38 36 36 34 35 34 40 43 40 46 48 45 40 42 40 41 44 47 49 50 47 51 52 52 53 47 46 49 53 45 45
45 47 49 45 41 38 36 38 35 36 36 37 38 39 38 38 41 37 41 48 43 48 52 50 41 45 47 52 56 61 58 62 59 57 59 55 53 48 47 47 52 46 44
34 32 35 39 42 42 41 40 38 39 39 38 41 42 41 44 48 48 48 47 46 50 50 56 52 48 51 49 49 62 66 65 66 61 58 66 56 46 48 46 50 46 45
35 35 34 35 36 37 40 39 40 41 42 41 44 45 44 47 49 49 49 53 55 53 53 53 60 62 55 51 53 65 69 70 73 70 62 76 59 54 43 47 49 46 46
34 34 35 37 38 39 42 43 43 44 47 49 47 50 52 53 51 53 55 56 58 58 58 61 63 67 62 59 61 69 68 74 71 75 43 46 60 73 46 45 48 46 48
37 39 40 39 40 42 45 45 45 46 49 54 57 54 53 54 51 55 58 62 64 63 66 67 67 69 67 66 64 69 63 68 76 42 43 51 47 57 43 47 44 47 39
37 37 39 42 45 48 48 47 48 49 50 53 54 52 54 56 58 61 63 67 68 69 72 74 76 74 71 71 67 69 65 69 49 50 59 55 51 42 42 45 40 40 39
41 41 42 43 44 46 47 48 51 52 53 54 54 55 58 60 64 66 67 67 67 69 71 75 76 76 72 66 66 63 65 70 67 56 57 64 45 37 42 38 38 38 39
43 43 44 45 46 47 48 52 54 55 58 61 61 60 62 62 61 68 70 69 66 64 67 72 75 77 77 71 64 66 65 69 45 57 57 51 35 35 38 37 44 38 39
52 53 53 54 55 56 56 58 61 62 63 60 61 63 65 65 66 71 66 66 69 70 80 83 87 81 77 72 65 64 64 57 50 46 33 32 33 35 38 41 41 40 36
55 56 56 56 54 55 57 60 62 61 62 62 64 63 66 69 70 64 65 61 62 59 56 66 88 75 72 70 64 61 57 50 49 35 34 33 33 37 41 37 39 39 34
56 54 55 57 56 55 59 59 58 53 51 54 60 63 62 56 55 60 50 51 52 47 38 32 36 37 56 64 65 60 52 53 54 39 34 35 38 42 43 41 39 35 34
56 56 55 56 53 53 55 53 53 55 57 60 61 58 55 50 45 45 44 44 46 32 35 31 34 26 54 58 52 48 37 30 30 31 33 37 38 40 42 41 37 34 34
56 57 57 57 55 55 54 51 54 57 58 55 55 51 48 41 37 38 38 33 24 22 17 20 21 29 37 30 27 25 27 28 29 31 32 35 36 36 36 36 34 33 34
61 62 61 64 61 59 57 54 54 54 50 43 46 43 36 35 37 38 36 24 21 18 8 12 23 25 24 25 26 23 22 24 30 33 38 36 36 34 34 35 32 33 34
52 48 48 55 60 58 55 53 54 53 52 49 43 41 37 38 41 44 39 30 24 24 28 25 23 26 25 22 22 22 29 31 32 34 33 32 33 35 32 33 32 32 33

GFSGL_500_spd_036.txt.gz
Wind_Speed
18 18 17 15 14 15 16 17 19 19 19 18 18 16 15 13 12 12 12 11 12 12 11 8 8 8 8 8 8 11 14 14 16 17 19 20 20 16 21 24 25 28 28
23 21 18 14 14 12 12 12 11 12 13 15 16 17 17 17 16 15 15 13 13 13 12 12 12 13 12 11 11 12 13 17 19 20 19 17 20 26 25 26 28 29 30
22 19 17 16 15 12 10 8 7 8 9 10 11 14 15 15 15 14 14 14 13 14 15 16 16 15 16 13 12 13 15 19 19 20 22 21 20 21 26 30 31 34 35
18 17 17 15 14 12 10 7 7 8 8 8 7 8 10 10 9 9 11 13 14 16 17 17 20 17 19 18 14 18 16 17 22 23 24 26 26 24 24 28 34 35 35
22 20 16 18 14 9 9 7 8 8 8 7 6 7 7 5 6 7 9 11 12 15 19 20 22 23 21 21 20 20 20 18 18 23 27 29 24 25 26 29 35 32 34
23 18 16 18 15 6 8 10 8 7 10 9 10 10 8 5 6 8 10 11 14 17 19 19 23 25 24 26 27 27 24 26 26 28 30 32 29 30 32 34 36 37 36
23 19 14 14 13 13 12 9 10 10 11 13 15 15 12 11 11 12 11 12 14 17 20 22 24 26 28 28 29 31 34 31 31 33 35 38 39 36 38 41 40 40 41
23 19 14 12 14 14 15 13 13 14 13 13 12 16 18 16 15 15 17 19 18 18 21 22 26 29 29 30 32 35 39 40 38 36 37 41 46 45 41 43 47 45 41
25 23 20 18 18 19 17 18 19 17 16 15 17 18 18 16 19 21 24 26 24 24 28 26 29 30 32 32 33 32 36 39 40 40 44 43 46 49 50 54 52 50 49
25 26 27 29 28 25 24 24 25 25 23 25 22 20 22 22 21 21 24 32 33 31 32 30 31 32 35 38 39 39 38 37 43 47 50 50 54 53 56 61 64 56 53
31 34 34 32 34 33 37 32 32 33 34 31 27 24 24 24 22 22 23 28 31 35 35 34 37 37 40 40 42 45 45 48 51 58 60 54 57 59 63 67 71 66 53
35 36 37 38 37 39 41 42 40 37 36 33 29 27 28 25 25 27 29 33 35 41 40 42 44 45 44 47 46 44 48 47 49 59 54 55 56 63 68 67 69 72 62
32 33 37 41 40 43 43 47 43 40 39 37 35 32 30 31 34 36 38 39 42 45 43 46 49 52 52 53 53 55 55 53 49 53 54 54 62 66 70 74 64 56 57
31 32 32 31 31 35 38 39 39 41 40 40 38 36 36 40 43 42 44 45 46 50 50 53 55 57 56 57 58 57 61 61 65 58 58 60 71 76 68 40 38 41 43
31 32 33 33 33 35 36 36 37 39 40 40 41 42 43 45 48 50 53 53 51 51 58 59 57 60 63 62 62 62 62 62 65 61 65 65 72 77 76 45 37 39 41
36 35 35 36 36 37 37 38 39 41 42 44 45 46 48 49 51 55 56 56 58 55 56 58 60 63 65 66 68 67 70 68 65 68 68 67 79 75 52 45 41 41 38
38 38 39 40 41 41 42 42 43 44 45 46 47 49 51 53 55 56 57 58 60 62 60 56 60 66 67 66 68 69 73 73 69 66 66 69 71 62 54 47 47 34 43
40 41 41 41 43 43 42 43 45 47 48 49 50 53 54 55 56 58 61 61 63 66 66 66 68 71 72 71 67 67 69 72 71 66 67 73 54 57 58 52 50 33 32
43 41 40 42 43 45 46 46 47 48 50 51 54 56 58 59 61 63 64 65 65 64 64 70 74 72 69 66 69 71 76 78 75 71 65 65 64 64 47 45 37 38 28
48 48 46 47 49 50 51 51 51 54 57 59 61 62 64 66 67 68 67 65 68 68 67 65 62 56 60 65 70 75 79 85 83 69 56 71 63 56 44 35 30 24 27
51 52 53 53 55 56 58 59 61 62 63 65 63 66 68 69 69 66 65 67 66 63 60 53 52 56 62 65 64 62 71 70 72 39 50 56 51 48 38 32 28 28 28
57 59 58 58 61 63 64 65 66 67 67 67 67 68 68 66 63 58 60 64 63 55 50 45 43 51 53 53 29 13 32 33 39 39 46 52 50 45 41 32 32 31 30
60 62 65 66 66 67 69 69 69 68 68 66 64 63 64 64 63 64 63 59 54 52 44 44 39 43 52 49 37 37 32 36 54 41 35 33 34 36 30 31 30 27 29
65 66 68 68 67 68 67 68 65 62 62 66 66 64 63 58 60 58 53 52 51 48 42 39 38 40 34 28 23 24 27 32 31 25 21 19 18 21 21 24 28 29 28
68 69 68 67 67 65 63 61 62 63 64 66 64 62 58 58 53 50 51 49 47 43 39 41 43 43 37 31 28 23 23 21 19 19 22 20 21 24 27 31 32 29 30
71 71 70 68 64 63 65 63 64 66 66 61 63 60 58 57 54 54 53 45 45 44 43 43 42 40 40 32 29 27 25 25 26 21 20 24 28 29 28 26 27 29 29

GFSGL_500_spd_039.txt.gz
Wind_Speed
17 18 18 16 15 13 12 13 16 16 15 15 17 14 12 12 12 11 10 8 9 10 11 9 9 8 9 10 11 11 12 14 13 14 17 18 18 20 21 21 22 24 28
20 19 17 15 13 11 10 11 12 12 10 11 14 14 14 16 14 14 15 14 13 12 13 11 11 12 12 13 14 13 13 15 19 19 15 19 21 22 25 25 25 24 27
20 18 16 15 14 11 9 7 6 6 4 3 6 7 6 7 11 12 12 12 12 13 12 14 15 15 17 17 16 17 16 17 18 20 23 18 21 24 23 24 26 29 28
20 18 17 15 14 10 8 6 4 2 1 0 2 3 6 7 6 7 7 7 8 12 12 13 16 16 19 21 20 20 18 17 19 19 23 27 27 24 25 26 29 30 35
18 17 15 13 11 9 7 5 2 1 1 0 1 2 2 2 3 3 4 4 6 7 10 12 15 17 19 23 25 26 27 25 24 24 25 29 34 34 30 29 33 33 35
19 15 13 11 12 10 8 8 4 2 3 2 2 3 4 5 5 6 4 3 5 7 7 8 11 14 16 21 25 28 31 31 29 28 30 31 37 40 40 39 39 40 43
22 16 14 11 13 12 9 7 8 6 5 2 2 4 8 9 8 7 6 3 4 5 7 9 10 11 14 18 20 23 26 31 33 34 33 35 38 41 44 44 45 48 50
21 20 15 12 15 13 10 7 8 10 9 9 6 5 3 6 11 11 12 11 12 10 12 12 12 16 16 17 21 24 27 29 31 35 36 38 40 44 47 51 58 55 58
23 19 19 17 16 14 11 10 10 10 13 13 13 10 8 7 9 10 14 16 14 15 18 20 20 21 20 22 26 27 31 29 35 35 39 42 46 50 51 55 53 61 60
22 20 21 21 20 17 16 17 17 16 15 19 19 16 16 14 13 15 18 21 20 20 24 23 24 23 25 27 32 34 32 30 36 41 43 45 48 51 51 48 54 57 61
24 22 24 26 25 24 25 25 23 24 24 24 24 26 23 20 20 21 23 26 24 27 29 29 32 32 33 35 36 40 38 39 41 44 47 49 50 50 53 58 56 53 59
25 29 27 29 30 31 31 29 30 31 31 30 31 29 29 27 26 27 26 28 30 32 32 33 36 38 39 41 42 42 45 50 53 50 51 50 53 57 59 66 65 53 60
29 33 35 32 33 36 35 36 35 35 37 38 38 37 35 33 30 32 33 33 35 36 36 39 41 43 45 46 47 48 52 56 56 56 55 55 55 58 64 66 70 58 67
31 36 35 36 38 40 40 38 37 36 37 39 42 42 39 38 36 35 37 38 38 40 44 44 46 48 48 50 54 54 54 56 57 58 59 59 57 57 65 68 77 63 69
28 28 32 35 38 39 38 35 33 33 34 34 35 38 37 36 37 38 39 40 43 45 48 50 52 55 60 58 58 60 59 61 64 63 64 64 59 59 61 66 62 78 66
33 32 32 33 34 34 36 37 34 35 35 36 36 38 38 39 40 41 44 46 47 50 51 52 55 57 60 60 61 61 61 63 67 70 72 70 66 61 64 64 71 71 59
36 36 37 38 39 38 38 38 38 37 38 39 40 41 43 44 45 46 47 49 52 56 58 58 57 57 59 62 64 64 64 67 70 72 72 72 70 67 63 64 66 67 49
38 37 39 39 39 40 41 39 41 42 43 44 45 46 47 47 47 49 51 54 56 58 61 64 64 64 65 66 65 66 63 58 58 62 66 72 74 77 72 64 61 55 42
44 40 40 42 43 42 44 43 44 45 46 46 47 48 48 50 51 54 56 58 60 63 66 66 66 66 64 63 62 61 53 49 54 62 68 76 81 85 59 71 72 50 35
47 47 47 45 46 47 48 49 49 48 47 48 49 51 53 55 56 58 61 63 65 68 67 67 67 62 58 60 57 53 48 52 57 62 64 56 48 54 61 54 62 49 43
50 50 51 50 50 51 51 50 50 51 53 55 55 56 57 60 62 64 66 66 67 68 70 69 61 58 58 59 56 49 49 52 56 48 57 43 55 49 51 27 33 31 25
51 52 52 52 52 52 52 53 55 57 58 60 61 63 65 66 67 68 69 70 70 72 71 63 63 60 60 56 48 40 43 46 41 36 42 23 36 46 45 31 29 37 32
59 58 57 56 57 58 59 60 62 65 66 67 67 69 70 72 72 71 72 70 71 69 66 64 61 58 55 51 46 44 38 40 32 35 36 39 32 35 27 31 28 26 28
61 64 65 64 64 63 65 67 68 69 71 72 73 74 74 74 72 73 73 71 68 64 65 61 55 52 48 47 48 47 42 39 39 35 39 40 30 25 21 18 13 14 21
64 65 67 67 67 68 68 69 71 73 74 75 74 72 71 72 72 68 67 70 75 77 68 59 54 50 47 44 43 46 46 40 37 35 32 29 24 21 22 22 22 22 21
61 68 72 70 69 69 72 73 71 70 70 70 71 72 71 68 68 64 67 72 64 61 59 54 54 50 45 43 43 43 45 41 41 37 30 29 27 24 26 27 25 25 25

GFSGL_500_spd_042.txt.gz
Wind_Speed
20 22 22 19 18 17 15 13 13 13 13 15 16 15 13 13 13 11 11 13 13 10 9 10 9 10 11 12 12 13 13 11 10 12 11 13 15 19 21 22 23 25 26
23 23 22 21 19 17 14 11 11 13 15 16 17 16 16 15 13 14 13 13 15 15 12 9 10 10 11 14 14 15 18 18 18 16 16 16 16 19 23 23 23 24 27
24 23 22 21 20 17 12 8 8 8 8 8 6 9 12 13 12 11 11 12 13 13 11 9 10 8 11 13 14 16 17 19 22 24 22 21 21 22 24 25 28 29 30
22 22 22 21 20 16 11 11 11 8 7 8 8 9 9 7 6 6 6 6 6 5 5 5 8 9 11 14 16 17 20 21 23 24 26 26 27 29 30 31 33 35 36
23 21 20 21 18 14 13 12 12 9 10 10 9 8 6 6 4 4 3 2 3 4 3 4 2 5 9 11 10 13 15 18 21 24 26 28 30 33 35 35 35 38 38
23 21 21 20 16 15 14 15 12 10 11 10 8 5 4 4 3 3 2 4 7 7 4 3 2 2 4 7 9 13 16 15 16 20 23 25 29 34 37 37 37 40 43
23 22 20 17 15 17 16 14 12 10 11 9 8 8 6 4 3 3 3 6 7 5 5 3 2 5 9 11 13 15 18 21 24 25 27 27 28 32 39 41 41 43 45
25 22 19 15 15 18 17 14 14 13 13 11 9 8 7 6 7 10 12 10 8 9 9 12 11 13 13 15 18 20 22 24 27 33 33 33 36 37 40 42 41 45 42
27 21 18 18 18 19 17 17 17 15 12 11 13 12 10 12 13 13 14 17 16 16 16 16 18 18 21 24 25 26 26 25 31 33 35 38 38 42 45 48 48 50 51
27 21 23 27 25 22 21 21 19 18 14 15 13 14 15 15 16 18 20 20 18 22 23 21 21 23 24 26 29 31 33 31 35 35 36 40 44 48 50 51 49 53 57
29 35 33 31 29 29 27 25 25 23 21 20 18 17 18 18 23 25 25 26 25 26 25 25 26 27 29 32 35 35 33 34 38 40 42 46 49 52 50 53 55 57 61
38 37 35 32 32 32 31 33 30 28 27 26 27 25 24 25 26 27 30 30 32 30 28 29 31 34 35 36 38 39 39 41 45 49 49 49 53 51 52 57 59 60 63
39 38 38 33 32 34 37 39 39 36 34 33 32 32 32 32 34 34 34 33 33 32 31 33 35 36 38 39 42 44 47 50 52 54 54 54 54 54 55 57 62 65 64
37 40 41 42 42 41 39 41 43 43 40 40 38 38 39 39 37 37 36 37 36 35 37 37 38 40 42 45 47 50 51 53 57 59 59 60 63 62 60 58 63 67 68
30 34 40 44 45 46 48 47 47 45 43 39 39 40 39 38 39 40 41 40 40 40 40 41 43 44 47 50 53 54 55 57 59 61 65 65 65 66 64 63 57 64 65
31 31 37 41 42 43 42 41 39 37 37 37 36 35 34 35 35 36 38 41 41 42 44 46 48 49 51 54 56 57 58 59 59 62 63 61 61 66 69 70 68 62 62
32 34 34 34 36 39 42 42 41 39 39 38 38 38 37 38 38 39 40 42 42 45 48 50 50 52 54 55 58 62 63 65 63 57 54 54 55 57 65 67 72 69 66
37 35 37 38 38 39 40 40 40 41 41 42 42 43 43 41 41 41 43 46 48 50 51 52 53 56 57 59 62 64 63 63 58 60 55 50 49 53 62 70 75 76 73
42 40 39 39 40 42 44 45 46 46 45 45 45 44 44 45 45 46 48 50 51 53 54 55 57 58 62 65 66 66 63 57 57 59 59 54 56 58 61 62 57 73 64
45 46 45 44 44 44 46 47 47 47 47 47 47 47 48 48 50 51 52 53 55 57 58 59 60 63 65 67 67 67 66 62 60 58 57 53 53 51 55 56 41 41 41
51 52 52 52 51 50 49 49 50 50 51 51 51 51 53 54 54 55 56 57 59 60 61 63 64 65 68 71 69 63 59 58 60 59 55 53 47 48 55 53 49 36 23
53 52 53 54 55 55 54 53 53 55 55 56 57 56 56 56 58 61 61 61 63 65 66 67 68 70 71 72 69 65 61 61 60 58 53 49 46 45 48 47 42 38 33
58 56 54 56 56 57 58 58 58 60 61 60 60 61 62 63 63 64 65 66 67 68 70 72 73 72 71 66 67 68 64 62 54 54 52 49 46 44 42 46 38 23 16
59 58 61 61 59 59 60 61 61 62 62 62 64 65 66 66 67 67 68 70 72 73 75 75 74 73 69 65 63 62 58 52 53 53 49 46 45 45 38 37 36 26 22
55 57 62 63 64 66 66 66 68 68 69 68 69 69 69 69 70 72 74 75 76 76 77 75 72 69 66 63 66 62 53 54 52 54 47 44 42 42 41 37 29 26 27
58 62 65 68 67 65 66 69 71 73 75 76 74 73 74 75 76 77 76 76 76 77 75 71 68 66 65 65 66 64 55 53 49 49 49 44 40 40 38 39 38 33 27

GFSGL_500_spd_045.txt.gz
Wind_Speed
20 22 24 23 21 18 17 16 15 13 13 14 16 16 15 14 13 12 12 10 9 9 7 5 4 3 3 5 6 6 7 7 8 10 12 12 13 17 18 18 19 22 24
23 25 26 24 20 18 17 16 14 13 13 17 17 17 16 15 17 15 13 12 11 11 10 6 5 6 4 4 5 7 9 10 9 10 11 13 17 18 21 23 26 28 30
24 26 26 22 21 20 20 18 14 14 14 13 13 15 17 17 16 15 13 12 14 12 9 7 5 5 7 7 8 9 11 11 12 14 16 16 19 22 24 27 26 27 31
26 26 26 25 24 24 23 18 16 14 10 11 11 12 11 11 11 10 11 11 10 8 4 5 4 4 4 5 6 7 7 9 12 15 18 22 23 26 27 29 29 29 32
26 25 25 27 27 26 23 19 18 14 14 14 13 10 10 10 10 10 8 8 8 7 7 6 4 3 2 3 5 8 7 9 11 14 16 19 22 26 29 31 33 33 33
26 27 27 26 25 24 21 20 18 17 17 17 16 12 11 12 9 9 8 9 10 9 8 7 5 3 4 6 8 11 12 13 16 20 19 20 23 27 30 35 35 33 34
28 30 28 26 25 24 23 21 19 18 17 17 16 15 14 13 11 9 9 11 13 10 9 8 8 9 11 13 15 15 17 18 22 25 24 25 26 28 32 34 39 41 41
27 28 27 26 25 25 23 23 21 17 17 15 13 14 14 14 12 11 12 12 13 13 13 13 12 13 14 18 22 22 22 22 26 29 32 32 35 37 38 41 44 46 45
25 28 25 23 21 24 22 22 21 19 17 16 15 16 14 15 14 14 16 18 18 17 18 16 19 19 21 24 25 26 25 22 28 33 37 38 38 39 41 46 48 53 53
21 26 27 26 24 24 27 26 26 24 22 21 19 18 17 18 18 16 16 17 17 20 22 22 22 24 25 27 30 32 31 30 34 34 35 39 42 44 47 51 54 59 59
27 28 33 33 31 30 32 30 28 27 27 23 20 20 18 16 18 19 22 21 20 22 23 25 26 29 32 33 34 34 34 35 38 42 42 44 45 45 48 52 56 60 61
25 33 34 33 33 35 32 32 31 31 29 26 24 24 23 22 24 27 29 27 27 25 22 24 27 31 32 34 37 37 40 43 45 47 47 47 47 48 50 51 51 60 66
33 33 33 36 37 38 37 42 38 38 33 32 32 30 31 31 32 32 33 34 34 33 32 32 32 34 35 37 39 41 44 47 49 51 51 50 52 55 60 59 57 55 56
43 43 44 44 46 49 52 50 45 45 38 39 39 38 39 38 37 39 39 40 39 40 40 39 40 40 40 41 43 44 47 51 51 52 54 56 57 60 61 62 57 55 55
44 47 48 49 49 50 45 44 47 46 44 48 48 48 47 47 45 44 45 43 43 44 44 44 45 43 44 46 46 47 50 51 52 54 58 61 60 60 57 60 61 58 54
30 32 39 47 52 52 53 54 55 53 53 53 53 53 52 51 47 44 45 45 44 44 44 44 42 43 45 47 49 50 53 53 54 56 60 62 61 57 54 61 57 56 60
31 31 33 38 43 48 53 55 56 56 56 54 53 52 47 45 45 46 45 43 43 43 41 41 42 44 46 48 51 53 53 55 57 60 62 62 63 60 55 57 53 55 56
35 34 33 34 36 40 44 46 45 44 44 43 42 43 43 43 44 45 45 44 43 43 43 43 45 47 49 51 53 54 55 58 61 63 64 63 63 60 59 55 52 54 50
42 40 38 35 36 38 40 42 42 42 42 43 44 45 45 44 44 45 46 46 45 45 47 49 49 51 53 55 56 57 59 61 64 64 66 63 62 63 60 60 53 51 50
49 46 44 39 39 39 40 41 41 42 43 45 45 46 47 47 47 47 48 49 49 50 52 53 54 55 57 58 60 61 62 65 65 65 65 63 64 62 61 59 52 49 44
55 50 47 46 44 44 45 45 45 46 47 48 49 49 50 50 51 51 52 53 53 54 55 57 59 59 60 62 63 64 66 66 66 64 61 63 63 60 56 53 49 48 48
50 50 51 53 52 52 52 52 51 51 52 53 54 54 53 54 55 56 56 57 58 59 60 60 61 62 64 65 67 69 68 66 67 67 64 64 59 58 50 52 47 45 44
51 51 51 52 53 54 54 54 55 55 57 57 57 58 59 59 59 59 61 62 62 62 63 64 65 67 68 69 68 68 69 69 69 69 68 65 62 56 47 49 49 45 38
53 50 50 51 53 57 58 58 57 58 59 60 62 63 63 63 65 65 65 64 64 64 65 68 70 70 69 69 69 71 72 71 72 73 68 63 60 57 47 46 47 44 41
59 57 62 65 65 64 65 67 67 67 68 67 64 64 66 66 67 67 69 69 68 69 70 71 73 73 72 73 75 75 77 77 76 71 66 61 55 49 45 43 45 44 40
68 70 66 62 61 61 64 68 70 71 70 69 70 70 70 70 72 72 71 72 73 75 76 77 76 76 76 77 75 77 75 70 69 67 65 60 56 49 46 45 46 46 45

GFSGL_500_spd_048.txt.gz
Wind_Speed
29 30 31 27 27 23 21 21 17 15 12 10 11 12 13 12 11 8 8 7 8 5 5 5 1 2 4 6 7 6 5 6 8 9 9 12 13 14 16 18 20 21 22
29 29 30 31 30 25 24 23 19 17 15 14 15 15 16 16 14 11 11 10 10 8 6 7 5 4 3 3 3 2 3 4 6 8 10 12 15 16 17 20 20 21 25
31 29 29 30 29 26 26 24 21 19 16 17 15 16 17 17 15 13 12 14 13 11 8 8 6 6 5 3 2 1 0 2 6 8 10 10 12 14 16 20 23 23 24
30 31 30 29 28 26 27 24 21 18 17 16 16 17 15 15 15 13 14 14 14 11 8 9 8 7 3 2 2 2 1 2 3 6 12 15 17 21 22 24 24 26 26
31 29 28 32 31 29 27 24 22 19 17 16 15 13 10 11 14 14 14 13 11 11 11 11 9 6 4 4 3 5 5 7 9 11 12 14 17 21 25 28 28 30 29
31 31 32 33 32 29 27 25 23 20 19 17 16 15 13 16 16 14 12 10 10 12 13 11 9 5 6 8 8 9 10 11 14 14 14 15 17 22 27 29 32 34 32
31 34 32 32 30 30 27 25 23 21 21 20 19 16 16 17 15 15 13 12 14 13 13 13 10 9 9 12 14 13 12 15 19 19 20 22 24 27 29 32 36 39 40
33 32 32 31 30 29 26 26 24 22 20 19 18 18 18 17 17 16 14 12 13 13 13 12 10 13 15 17 18 18 19 22 24 28 29 26 30 31 36 39 42 45 45
33 29 30 30 30 29 28 27 27 25 22 20 20 19 19 19 19 18 16 14 15 16 16 15 16 17 19 23 25 25 23 24 29 32 35 37 37 38 43 47 47 48 48
31 26 29 31 30 29 29 29 30 28 25 23 21 19 19 20 20 19 14 9 6 12 19 21 20 21 23 27 29 28 28 31 35 36 36 37 41 43 48 51 50 53 55
21 22 27 32 30 30 33 31 29 30 29 26 25 24 22 22 22 20 18 16 13 12 14 15 17 22 26 28 30 31 31 33 35 38 40 41 43 44 43 41 46 56 60
26 26 26 31 34 31 32 33 32 30 28 27 26 25 22 23 23 23 23 22 22 20 20 19 21 25 26 25 27 29 33 35 38 41 42 42 45 46 47 47 49 49 52
26 24 26 30 39 38 33 32 31 32 31 31 29 29 27 29 29 29 29 29 30 30 28 28 29 31 33 33 36 37 39 41 43 44 46 46 46 48 49 53 56 57 53
26 25 27 25 36 42 33 35 38 38 36 37 37 36 36 35 34 37 37 37 37 37 37 36 38 38 39 40 42 44 45 48 49 49 48 49 48 50 52 56 59 59 55
34 34 34 32 36 41 41 43 44 43 45 43 48 44 43 44 40 41 41 43 43 43 42 43 43 42 42 43 42 43 48 48 47 48 49 49 51 53 54 58 59 56 57
41 39 39 41 45 49 52 50 51 51 55 51 50 52 50 52 49 48 50 50 51 52 50 45 46 45 46 43 43 43 43 45 46 47 48 51 54 57 58 60 61 58 59
46 46 48 48 47 49 50 49 50 54 57 55 51 51 52 51 51 51 54 56 54 53 50 48 50 47 44 43 43 43 44 46 46 48 51 53 56 58 61 61 61 58 59
38 39 38 38 40 42 46 50 54 54 54 56 57 57 55 54 54 55 56 56 54 52 51 49 47 45 44 45 45 45 46 47 48 51 54 56 59 61 62 60 59 60 61
39 38 34 35 36 36 38 40 42 45 48 50 51 52 51 52 54 54 54 52 48 46 44 44 45 47 47 47 48 48 48 51 54 55 56 59 60 63 60 59 58 59 55
45 42 38 38 38 39 39 39 39 39 39 41 41 42 42 42 42 43 43 43 44 44 46 46 47 49 50 51 51 52 54 56 57 58 60 61 64 60 60 60 60 56 54
51 48 41 40 41 41 43 45 44 41 40 40 41 42 42 43 43 43 44 44 46 47 48 50 51 52 54 55 55 56 58 58 59 60 62 64 60 60 60 60 59 57 57
52 55 48 44 43 42 44 47 48 46 44 43 43 45 46 46 47 48 49 50 51 54 55 56 57 58 58 58 60 60 59 60 62 64 65 62 62 60 61 61 61 60 58
55 59 53 49 46 44 43 46 48 47 48 49 49 49 51 52 53 54 54 56 56 57 58 59 60 61 61 63 62 61 62 64 66 65 65 64 64 63 64 63 61 63 56
65 63 60 57 52 51 53 49 46 45 46 47 49 51 53 55 57 58 59 59 58 59 60 62 63 63 63 62 63 66 67 68 69 67 66 64 66 66 64 65 61 54 50
69 65 63 61 59 56 57 55 52 43 45 50 54 57 58 59 61 63 64 66 67 66 65 63 64 66 66 67 68 69 68 67 68 67 69 70 68 65 67 67 57 56 45
63 65 67 70 66 60 62 64 60 57 56 57 62 64 66 69 71 71 70 71 70 70 70 70 70 70 71 70 70 70 69 69 69 72 72 69 65 64 69 60 54 47 44

GFSGL_500_spd_051.txt.gz
Wind_Speed
35 35 35 31 28 25 23 24 23 20 18 15 13 11 10 10 7 5 6 6 5 2 1 2 7 9 8 9 9 10 9 7 7 5 4 5 7 9 11 13 13 15 16
34 35 33 33 31 28 25 27 26 24 21 19 16 15 13 12 9 8 8 8 8 5 5 2 6 9 8 7 7 6 5 3 2 4 6 7 10 12 12 14 15 18 20
35 34 34 33 30 28 28 29 28 26 24 21 18 16 16 13 11 10 10 10 9 9 9 6 7 11 10 8 6 4 2 0 2 6 8 9 11 12 14 16 19 22 25
34 34 34 32 30 31 32 30 31 28 26 23 20 18 16 15 13 12 12 12 12 11 11 9 10 12 11 8 5 2 3 1 3 5 10 11 12 15 17 19 20 24 25
33 32 32 32 33 34 33 32 32 29 27 25 21 19 16 14 13 13 15 15 13 13 13 13 13 13 10 8 6 2 3 4 6 7 9 10 14 18 21 25 25 25 28
33 31 35 34 32 31 33 32 32 31 28 24 21 19 15 16 16 15 14 14 13 14 15 15 14 12 9 6 5 6 6 7 9 10 12 13 16 20 26 27 29 32 32
34 35 34 33 33 33 33 31 31 30 28 24 23 20 17 19 18 16 16 13 12 12 13 14 15 13 8 7 7 9 11 13 15 15 15 18 19 25 27 30 33 35 36
34 35 34 33 33 36 34 32 31 30 28 27 25 23 18 21 18 18 16 13 11 13 15 16 15 13 12 13 12 13 16 18 18 19 19 21 25 28 32 34 36 37 35
33 32 32 33 34 34 33 32 32 33 30 28 28 24 20 20 18 17 15 12 11 13 15 16 16 16 17 18 18 19 19 21 24 24 26 27 29 33 37 39 41 42 40
26 29 30 33 35 33 34 34 34 34 32 29 27 22 21 20 18 18 15 9 8 13 18 16 17 17 20 22 21 21 20 23 25 26 26 29 31 35 40 45 45 47 49
23 28 32 33 34 35 35 35 34 32 30 28 26 24 23 21 19 19 16 14 12 13 10 9 11 14 17 18 20 21 20 22 25 28 29 31 36 40 43 44 44 45 48
25 27 34 35 35 35 34 33 32 31 30 29 26 23 21 21 21 20 21 18 19 17 15 15 16 18 21 23 25 27 29 31 32 34 34 35 40 43 44 43 44 44 47
29 27 30 33 33 35 35 34 34 33 32 30 27 26 25 25 26 26 25 25 23 23 22 23 25 28 27 28 31 34 36 37 38 39 37 39 43 44 44 44 44 48 49
31 31 30 30 30 32 36 38 35 35 32 30 30 30 31 31 31 31 30 29 31 33 33 32 32 32 33 35 36 38 38 38 40 42 43 44 43 43 43 45 46 50 52
31 33 32 32 33 36 38 41 37 36 35 36 37 38 38 36 36 37 35 36 40 37 34 34 38 40 42 43 41 39 37 41 44 44 41 41 41 42 44 46 49 52 55
38 35 40 39 39 40 32 43 44 43 43 41 46 46 47 45 45 43 44 43 43 44 45 42 43 46 48 48 44 41 41 42 41 42 43 43 43 43 45 48 52 54 56
45 43 44 53 63 37 28 35 45 50 49 49 51 53 50 52 53 51 51 52 50 50 51 52 49 50 49 45 44 44 42 42 42 44 44 46 46 47 48 51 52 54 56
57 63 39 29 37 37 39 43 45 51 55 53 53 54 54 52 49 49 48 45 48 49 49 51 51 51 50 49 45 41 41 42 43 44 46 47 48 49 51 53 55 55 56
50 42 48 53 50 50 47 46 47 48 50 52 53 53 53 53 52 53 53 53 51 50 50 51 51 49 45 42 39 40 42 43 45 45 46 48 50 52 54 55 55 57 55
50 54 54 53 51 46 45 44 45 44 44 45 46 47 48 49 48 47 45 42 41 42 42 41 41 40 40 41 43 44 45 46 47 49 50 51 53 55 56 56 57 57 53
45 45 43 43 44 43 43 41 41 41 41 39 39 39 40 40 40 40 40 40 40 40 40 40 40 42 43 44 45 47 49 51 52 53 54 55 56 57 57 58 58 55 54
50 50 49 48 46 46 48 43 40 42 42 42 43 43 41 41 40 39 38 38 39 41 42 43 44 45 47 49 51 53 54 55 56 56 57 58 57 59 61 58 58 55 56
57 56 57 53 50 50 50 53 48 44 43 42 43 45 46 46 45 43 42 42 44 45 47 48 49 50 51 53 55 57 58 58 60 59 58 61 61 61 60 59 58 57 57
65 62 63 59 55 53 54 53 57 52 49 45 43 46 47 47 49 51 50 48 47 47 48 49 51 53 54 56 58 60 60 60 60 62 62 62 63 63 61 59 59 61 61
75 73 70 66 64 59 58 56 55 53 54 50 48 47 46 47 49 50 50 50 50 50 52 54 56 58 60 62 63 64 64 64 64 65 66 67 65 64 64 65 65 65 60
83 81 78 76 73 65 62 64 63 59 59 56 54 53 49 50 53 53 49 46 49 52 56 58 61 64 67 68 69 69 69 67 66 65 65 65 63 63 62 63 64 64 55

GFSGL_500_spd_054.txt.gz
Wind_Speed
36 37 36 32 30 28 24 24 23 21 21 18 17 15 13 11 10 9 8 7 5 3 2 5 10 10 10 10 10 9 8 7 5 3 2 3 6 6 6 7 9 12 16
36 36 36 36 34 30 26 25 24 23 24 22 20 18 16 15 13 13 11 10 8 6 4 5 11 12 11 11 11 10 8 6 4 4 3 3 4 6 9 10 14 16 17
39 37 38 35 33 31 29 28 26 25 25 23 22 20 20 17 16 15 14 13 11 9 8 7 11 16 15 12 9 8 7 5 4 1 2 6 8 8 10 13 15 17 21
38 39 38 35 34 33 33 30 29 28 26 25 25 24 22 18 17 16 16 15 13 11 11 9 11 16 15 12 8 8 7 6 4 3 7 9 11 13 14 17 20 22 24
38 38 36 37 37 37 35 32 30 29 28 28 27 26 22 18 17 18 18 16 13 11 12 11 13 18 17 15 11 7 5 4 4 6 8 10 13 15 17 18 19 22 26
34 35 37 38 38 36 35 35 33 30 30 30 29 28 23 19 19 19 18 15 12 11 13 13 14 17 17 15 10 7 5 6 6 6 9 10 12 15 16 20 22 24 23
34 34 36 37 37 35 35 35 33 32 32 32 31 28 24 21 21 20 16 15 13 12 13 14 15 18 17 15 10 6 4 6 9 10 10 13 13 18 19 20 23 26 28
30 34 36 35 35 35 33 31 32 33 32 33 31 28 26 21 22 21 17 15 12 11 12 13 15 18 18 15 11 8 7 10 13 13 13 13 14 17 21 24 27 27 31
29 28 34 34 35 37 34 32 34 33 32 31 30 29 26 23 22 21 17 14 11 11 11 12 16 18 18 16 12 11 12 13 16 16 15 16 20 24 28 28 33 34 31
29 22 26 35 35 34 33 34 37 36 33 33 32 31 28 26 23 19 17 14 12 12 13 15 18 18 18 18 15 12 9 11 16 16 18 19 22 27 34 39 39 39 38
34 30 25 32 33 34 36 37 37 36 34 32 31 31 29 27 24 21 18 14 15 14 13 15 16 17 16 15 14 13 14 17 20 23 26 27 30 33 38 41 40 41 39
40 32 26 29 32 33 34 36 35 35 34 33 32 30 28 27 24 20 17 17 20 17 15 16 16 16 17 18 17 20 22 23 26 29 30 32 34 37 39 41 41 39 40
42 32 30 26 32 33 32 33 33 33 32 31 30 29 27 25 24 23 20 21 22 22 22 22 21 20 21 22 22 23 25 27 29 32 35 34 36 38 38 36 36 38 39
41 36 31 26 28 34 35 34 33 32 31 31 30 29 29 29 28 28 24 22 24 24 23 25 27 27 27 30 31 32 33 35 36 35 34 35 35 34 35 36 36 39 40
45 43 34 31 29 33 35 34 34 34 34 33 32 33 34 35 33 32 30 28 28 29 31 31 32 34 33 32 32 34 36 40 41 39 38 38 36 35 36 37 39 40 43
46 38 38 37 37 37 37 39 41 40 38 38 36 37 38 39 37 37 36 36 36 35 36 37 37 39 39 39 41 43 42 41 39 39 39 38 36 36 38 39 41 42 44
49 44 43 39 40 41 41 43 42 46 45 43 35 39 43 43 44 44 43 43 43 44 42 43 44 46 49 45 46 45 44 42 41 41 38 37 37 38 40 41 42 45 47
49 51 51 56 45 48 57 50 53 65 51 42 46 44 46 49 51 50 48 50 50 50 46 45 44 40 42 43 43 44 44 42 40 39 37 38 39 40 42 44 46 47 49
52 62 52 47 50 53 55 62 73 45 27 43 48 47 50 51 51 50 50 48 49 46 47 45 45 46 44 43 43 39 37 37 38 38 39 40 40 42 45 46 48 50 52
49 52 53 56 58 68 51 39 32 33 36 35 38 38 42 45 47 48 51 50 48 47 44 41 39 38 38 37 36 36 36 38 38 40 41 41 43 46 48 50 51 52 53
50 55 58 59 56 54 51 44 38 33 30 33 36 38 43 46 47 46 43 41 40 38 39 38 37 37 35 34 35 37 38 39 40 42 44 45 47 49 49 51 52 54 56
55 55 56 58 59 55 53 48 44 39 37 38 42 44 44 44 44 42 41 40 41 40 39 39 38 38 38 37 37 38 40 42 44 45 46 47 48 50 53 53 54 56 55
57 58 56 57 56 53 48 43 41 41 43 46 47 43 42 42 43 44 44 43 44 45 45 45 44 44 43 43 43 43 43 45 46 48 49 51 52 54 56 57 58 58 57
57 56 59 59 57 55 52 52 52 50 50 49 47 49 45 41 40 39 40 43 46 49 51 51 50 49 48 47 46 47 48 48 48 50 52 54 55 56 56 58 58 58 57
66 63 61 61 64 65 65 61 59 56 55 54 51 51 54 54 48 44 44 45 47 49 52 55 57 55 53 53 51 50 53 53 53 55 56 56 57 57 58 58 58 59 59
67 69 72 69 68 70 69 68 68 69 64 61 57 56 59 54 59 59 52 49 49 51 53 54 56 57 54 52 52 51 53 56 57 57 58 58 59 61 62 60 59 56 56

GFSGL_500_spd_057.txt.gz
Wind_Speed
37 35 34 32 29 28 26 24 23 22 22 20 18 15 13 10 8 7 7 6 4 4 4 8 10 9 8 7 6 6 7 5 4 3 3 3 2 3 5 6 9 11 12
38 37 35 36 34 31 27 25 25 24 25 24 22 19 17 14 12 11 11 11 9 7 7 7 12 12 11 10 9 8 8 7 5 4 2 1 4 4 5 8 10 12 14
39 39 38 36 35 32 29 28 26 25 25 26 24 22 20 17 15 14 14 15 12 11 10 9 12 16 15 13 12 10 9 7 6 3 2 3 3 4 5 6 8 11 16
35 39 38 35 34 33 33 31 26 25 25 26 26 25 23 19 17 15 16 17 15 15 15 13 13 17 17 15 13 12 11 9 7 5 3 4 4 5 6 9 13 16 20
29 34 33 34 35 35 34 33 29 26 25 28 28 27 24 19 17 17 17 17 16 17 16 14 14 18 19 16 14 11 10 9 7 6 5 6 7 8 9 11 12 16 20
28 30 33 34 36 35 35 34 33 30 28 29 28 28 25 22 18 18 18 16 14 14 14 15 14 17 20 19 15 11 9 8 6 6 8 9 9 11 11 13 14 14 17
23 30 33 35 34 35 36 36 35 33 33 30 30 29 27 24 20 19 19 16 13 12 14 15 13 17 21 20 16 13 11 8 6 6 8 10 10 14 13 15 20 21 23
27 25 29 32 34 35 35 34 36 37 35 33 32 31 29 25 22 19 19 16 13 13 13 15 15 18 21 21 18 15 12 8 8 8 9 11 12 14 17 19 22 23 26
31 26 25 28 30 32 32 32 33 35 36 33 34 32 29 27 24 21 20 17 14 15 14 15 15 15 19 22 21 16 11 11 13 12 10 11 14 18 22 25 26 26 26
30 27 23 21 28 30 30 31 33 34 33 34 34 32 31 29 27 22 21 18 17 17 15 16 14 14 17 20 18 16 14 14 15 14 14 15 20 23 26 28 30 31 31
36 33 29 24 21 28 31 33 35 35 36 33 32 31 32 30 28 24 23 21 20 20 18 17 13 14 16 17 18 17 13 14 15 17 17 21 24 27 32 34 32 33 32
42 38 32 32 25 26 32 32 33 34 33 32 33 32 31 30 27 24 23 22 23 21 19 17 13 13 15 17 18 16 17 19 18 18 19 22 25 29 33 33 37 35 33
45 42 37 39 32 28 31 34 33 33 34 33 34 32 31 30 27 24 23 24 24 22 21 19 16 18 20 22 20 18 21 22 24 25 25 28 31 34 32 34 33 32 32
51 50 47 43 35 30 28 34 32 32 33 33 34 32 31 29 27 25 25 25 24 22 21 22 24 27 26 26 26 27 30 29 29 29 29 33 35 36 34 34 31 31 33
55 56 53 48 39 33 28 33 34 34 34 34 34 34 32 30 30 31 31 31 29 27 28 29 29 29 30 31 31 32 33 31 33 36 38 40 37 35 34 33 32 32 33
57 58 56 53 42 35 33 31 35 35 35 36 36 35 36 37 36 36 36 34 31 31 31 31 31 33 33 33 34 36 36 38 42 44 41 39 38 36 32 31 32 33 34
61 59 59 54 43 39 36 34 32 36 37 38 39 38 38 33 37 37 34 34 34 34 34 34 34 35 37 40 41 41 46 41 39 40 41 40 38 34 31 32 34 35 36
51 60 61 53 50 50 42 38 36 33 37 40 41 43 40 39 38 36 37 34 37 39 41 42 42 43 44 43 45 44 43 41 43 44 41 39 35 33 32 33 35 38 39
52 63 59 57 54 52 47 43 41 41 44 47 51 50 47 48 48 45 41 39 39 42 45 46 45 44 46 45 44 46 45 46 44 40 37 36 35 34 34 36 38 40 42
63 64 61 59 55 57 55 58 57 47 56 52 54 58 64 49 49 49 50 46 45 43 42 43 43 45 46 45 42 42 43 41 39 36 36 36 35 36 38 39 40 42 43
62 61 61 61 60 63 61 68 56 61 38 38 41 27 18 39 44 45 42 44 43 39 41 42 40 39 37 38 38 38 37 38 37 38 38 38 39 40 42 42 43 43 45
60 62 53 48 45 50 50 46 51 37 38 39 38 30 31 34 40 43 44 43 40 40 41 41 39 37 37 38 38 37 38 40 41 42 42 43 44 44 45 45 48 49 51
55 56 51 45 46 51 50 49 47 41 40 45 40 35 35 38 41 44 46 44 44 43 43 44 43 40 40 41 42 43 44 45 46 46 47 47 47 48 49 50 52 54 55
53 62 50 45 49 53 52 51 52 50 48 47 42 39 41 44 47 49 47 45 45 45 46 47 47 46 45 44 45 46 49 50 50 52 50 51 52 50 51 51 52 54 54
56 45 41 36 59 58 57 61 58 52 50 49 50 48 44 45 45 45 45 47 50 48 46 47 46 46 45 44 46 48 49 50 50 51 52 53 50 48 48 48 50 51 50
63 58 54 57 60 56 60 63 68 64 59 56 56 55 56 56 51 49 48 49 50 53 56 56 54 52 50 50 50 52 54 56 58 60 60 60 56 53 55 55 55 54 56

GFSGL_500_spd_060.txt.gz
Wind_Speed
31 30 30 27 25 25 23 21 20 20 19 18 15 13 11 10 9 6 3 2 1 1 2 6 7 6 6 5 5 6 5 5 5 5 4 4 4 4 5 6 8 9 11
31 34 33 32 29 26 25 23 22 23 22 22 20 17 15 13 11 9 7 5 5 5 6 5 8 9 9 8 8 8 8 5 5 4 3 2 3 4 4 5 7 9 12
23 32 36 34 32 28 26 25 23 23 23 24 23 21 19 17 15 11 10 9 8 8 9 9 9 12 12 11 11 10 10 9 6 4 2 1 1 1 1 4 6 8 11
19 22 33 35 32 30 29 28 25 23 23 24 25 24 23 20 17 14 13 12 11 11 12 12 12 14 16 14 12 11 10 9 8 5 4 3 3 3 4 5 8 10 14
18 16 21 32 33 33 30 30 30 26 24 24 25 25 25 21 19 17 16 14 13 12 13 14 14 15 18 17 15 15 12 10 10 9 8 8 7 6 5 8 8 10 16
17 17 20 26 32 31 31 30 32 30 26 25 24 24 24 21 21 19 18 16 13 12 13 15 16 16 16 19 18 14 13 13 13 11 10 10 9 10 10 11 11 13 15
20 18 20 22 26 29 30 30 29 31 30 28 26 25 25 24 22 21 20 17 14 13 13 14 16 16 17 20 21 18 16 15 13 12 11 12 12 13 13 14 17 19 19
25 22 20 19 23 27 27 27 29 30 31 31 29 27 27 27 26 23 22 18 15 13 14 15 15 16 18 20 23 20 20 17 15 14 12 13 12 12 14 18 21 23 24
29 25 21 20 20 25 25 26 28 29 30 30 31 30 28 28 28 26 24 19 16 16 16 16 16 16 18 19 21 22 21 18 16 15 13 12 10 12 19 22 24 27 27
29 26 25 21 21 23 25 27 29 29 29 30 31 31 32 31 31 29 27 23 18 18 19 18 18 18 17 17 21 24 22 20 19 17 16 13 15 17 20 24 26 28 28
34 36 31 26 23 20 24 26 29 29 29 29 29 30 31 32 33 31 30 27 22 21 21 21 20 19 17 17 18 21 21 22 21 20 17 18 18 19 21 23 26 28 28
39 41 37 31 27 23 22 22 28 31 30 29 30 30 30 31 32 32 31 28 25 24 25 25 22 20 17 16 16 18 20 19 17 18 18 18 23 24 25 26 30 31 32
47 44 42 37 32 29 27 24 23 30 32 31 31 29 29 32 32 31 30 29 28 25 27 27 23 23 19 17 17 17 17 18 19 20 22 28 25 23 29 32 34 35 33
52 47 45 41 35 34 31 29 25 26 32 33 33 32 31 34 35 33 32 30 28 26 27 26 27 26 23 22 19 20 22 24 25 27 29 25 28 34 35 36 35 37 34
58 53 50 46 42 38 36 30 29 26 28 34 34 34 35 35 36 35 33 30 29 29 31 30 30 29 27 25 26 29 31 32 32 33 31 31 35 40 40 37 38 38 34
60 59 55 52 47 44 41 37 34 30 28 34 36 35 34 34 34 34 33 31 32 34 34 33 32 32 30 30 31 33 33 34 35 34 34 38 45 41 38 41 40 37 32
57 61 60 58 53 50 49 46 41 35 31 32 35 34 32 33 34 35 35 34 35 37 37 35 35 35 34 33 34 34 34 35 36 40 40 43 42 42 43 43 39 36 32
55 55 60 62 60 58 57 54 48 38 32 33 34 36 36 36 37 37 38 39 37 38 42 42 41 39 36 37 39 39 40 40 43 45 45 46 45 46 45 41 38 34 34
56 57 59 60 62 61 60 59 55 44 40 37 34 34 38 41 41 40 40 38 40 41 42 45 44 43 41 42 44 45 46 46 46 46 46 47 47 45 43 39 36 35 35
63 55 59 60 60 61 59 57 54 52 48 47 47 42 42 46 47 45 45 44 45 44 49 43 39 35 42 43 46 49 47 47 47 47 46 47 45 40 39 37 36 37 38
40 50 54 54 57 58 54 58 60 53 54 60 49 44 46 49 53 54 51 61 50 52 52 49 46 45 44 44 45 47 46 46 43 43 42 41 40 38 39 39 39 40 42
55 47 47 57 56 56 58 58 57 58 59 58 62 50 56 49 41 49 29 39 57 54 46 54 53 50 44 45 45 44 42 40 38 37 37 38 39 38 41 43 43 45 46
50 50 50 51 53 59 59 42 59 55 56 58 60 53 46 22 24 26 28 30 25 40 52 52 48 49 47 45 42 41 40 42 42 39 38 39 41 43 43 46 47 48 48
54 54 57 59 60 61 65 55 63 68 59 57 42 30 27 32 31 26 30 33 38 45 44 43 45 47 48 45 44 46 47 47 48 47 46 45 45 46 48 49 47 48 49
58 57 61 61 65 69 66 68 69 45 34 35 32 40 37 36 40 38 36 40 43 40 41 44 50 52 51 50 48 48 46 48 50 50 50 49 49 50 50 49 53 56 59
57 55 59 55 51 49 50 57 58 55 50 47 45 45 47 49 52 45 44 47 47 46 45 44 46 49 51 54 55 52 52 53 54 55 57 56 56 58 56 58 60 62 62

GFSGL_500_spd_063.txt.gz
Wind_Speed
25 27 27 24 22 22 21 21 22 19 17 15 13 11 9 8 8 5 4 2 1 1 0 1 3 3 4 4 5 7 7 7 6 6 5 3 2 2 2 4 5 8 11
23 29 29 29 26 24 23 21 21 21 20 20 17 16 14 12 11 7 5 3 2 3 3 3 5 6 5 6 6 6 6 6 5 5 4 2 1 1 3 6 8 10 12
18 22 28 29 28 26 24 23 21 21 21 22 21 18 16 14 12 10 9 7 5 6 7 7 7 8 10 9 9 10 9 7 5 4 2 2 3 4 4 5 7 10 12
14 18 21 28 31 30 29 26 25 23 22 22 22 21 19 18 15 13 12 10 10 9 10 10 10 10 12 13 12 12 12 11 10 8 6 5 6 6 7 6 9 10 12
14 10 16 21 30 34 32 29 28 27 24 23 23 22 21 19 18 17 15 13 12 12 12 12 12 13 12 14 15 15 15 13 12 12 11 10 9 9 7 8 9 10 14
16 15 14 16 21 30 32 31 30 29 27 25 23 22 21 20 20 20 18 15 13 13 12 12 13 14 15 15 17 17 17 17 16 15 14 14 12 11 9 10 11 14 16
21 19 14 14 15 22 30 32 30 28 30 28 25 23 21 22 21 20 21 18 15 13 13 13 15 16 17 17 18 21 19 18 18 18 17 16 14 13 12 15 15 16 19
31 23 16 12 12 17 24 27 28 28 29 30 29 27 25 24 24 23 22 21 18 15 15 15 17 18 19 20 20 21 22 21 20 19 18 17 12 14 17 18 18 18 20
27 22 17 15 15 14 18 24 27 28 29 28 30 30 28 27 27 26 25 23 21 18 17 18 18 19 20 21 20 20 24 25 24 21 18 16 16 18 19 19 20 21 20
19 24 22 22 19 18 18 23 27 28 28 32 31 31 31 31 31 29 27 26 24 21 20 21 21 21 22 20 19 21 24 28 26 22 19 17 17 18 18 18 22 26 30
23 26 26 25 23 21 21 21 24 27 28 29 30 32 32 31 32 32 30 26 24 25 23 23 23 23 23 21 19 20 24 28 26 23 20 19 19 18 19 21 26 25 25
33 34 33 28 26 26 24 22 22 27 28 29 30 30 30 30 31 31 30 28 28 27 27 27 25 25 24 22 21 22 23 27 28 25 22 20 19 21 24 28 27 28 32
38 38 37 34 31 32 26 26 24 23 28 29 30 29 30 30 30 29 29 29 29 28 30 30 28 28 27 24 24 25 25 25 25 22 22 22 20 25 29 27 27 34 33
42 42 40 39 35 37 32 29 28 24 23 23 30 31 32 32 32 31 31 31 29 29 31 32 31 30 29 28 28 27 26 26 24 23 24 24 26 28 27 28 32 36 38
47 47 45 43 42 39 38 36 31 28 25 23 20 30 34 33 32 33 34 34 33 32 34 34 32 31 32 32 32 29 27 27 27 28 28 27 30 31 32 34 37 40 39
50 51 50 48 47 45 42 40 36 32 28 26 26 25 30 32 34 36 34 36 37 37 35 35 35 34 34 35 36 34 30 29 31 32 32 33 34 36 37 38 40 41 40
51 55 53 50 50 50 47 45 41 35 34 32 30 31 29 31 34 37 36 37 40 40 36 37 38 36 37 37 38 37 35 34 35 34 35 36 37 39 41 43 44 42 43
51 55 56 55 52 53 53 50 47 42 40 38 37 36 37 32 34 37 38 39 40 40 38 38 38 39 40 40 41 40 40 38 37 38 40 41 41 42 46 48 45 44 45
52 53 54 53 55 54 55 56 56 51 48 46 44 43 42 38 34 38 38 40 40 41 41 42 42 43 43 44 43 45 44 42 43 44 46 46 45 47 48 49 48 47 43
50 53 54 53 55 58 58 60 63 59 57 55 54 52 50 44 41 42 42 42 41 45 46 45 47 48 48 50 51 48 43 45 44 43 46 49 50 49 50 49 47 44 41
55 54 56 58 59 58 61 63 65 66 64 63 62 61 57 53 46 40 40 45 49 51 52 53 58 40 30 50 51 42 44 41 41 46 45 46 48 49 48 46 43 41 39
56 55 53 51 63 69 66 60 62 63 64 63 67 72 69 57 53 49 48 48 50 54 57 56 56 54 44 33 31 37 34 33 40 42 43 45 47 45 44 43 42 40 40
53 52 52 54 32 37 51 51 56 58 59 64 66 82 76 64 55 57 51 51 50 52 58 60 47 45 47 55 51 32 36 41 41 43 44 43 43 44 45 44 44 44 45
54 39 45 52 48 51 38 50 51 51 57 59 67 58 46 49 56 56 61 60 51 48 40 44 46 42 52 39 38 39 42 44 44 45 46 45 44 46 46 45 47 49 51
59 62 49 39 37 43 35 51 39 57 44 51 51 56 44 37 57 52 55 36 34 37 40 38 41 38 35 39 38 43 47 47 48 48 48 48 47 45 44 46 47 49 49
57 52 53 54 52 49 54 54 50 52 56 56 54 55 55 48 44 60 41 38 38 36 39 43 41 41 42 42 45 47 50 49 47 49 50 51 53 56 57 56 57 58 59

GFSGL_500_spd_066.txt.gz
Wind_Speed
26 26 25 23 23 22 21 21 19 17 15 14 12 8 6 4 4 4 3 2 3 2 1 3 4 5 5 7 7 8 11 10 9 7 5 4 2 0 2 4 6 9 13
29 29 29 28 26 24 23 22 20 19 18 16 13 12 11 10 9 7 4 3 1 2 3 2 5 6 7 6 7 8 8 10 10 8 6 4 3 2 2 4 7 10 12
29 31 29 29 28 26 24 24 23 23 23 22 19 17 16 14 13 11 9 6 4 4 5 6 6 8 10 9 9 10 9 8 8 8 8 6 5 4 4 6 8 11 13
26 29 29 30 29 30 30 28 26 25 23 23 23 22 20 19 17 15 14 11 7 7 7 8 10 10 10 12 13 13 12 12 11 10 10 9 7 7 7 7 10 9 13
21 22 25 26 30 33 31 30 28 26 25 24 24 23 22 20 20 18 17 16 13 10 9 11 12 14 13 14 16 17 17 17 15 16 15 14 13 11 10 11 12 11 14
25 22 23 22 22 28 34 32 32 29 28 26 24 23 22 21 22 22 21 19 17 14 12 12 14 16 16 16 18 20 20 21 20 19 19 19 17 14 13 14 15 15 15
30 28 26 25 21 22 31 35 32 31 31 29 27 26 23 23 24 24 23 22 22 19 15 14 14 16 18 18 19 21 23 23 23 23 23 23 21 17 17 16 16 17 19
36 32 29 25 25 23 25 31 33 32 31 30 30 29 27 25 25 25 25 25 24 22 19 18 18 18 19 19 20 21 23 25 26 23 23 23 21 20 19 16 17 16 17
40 33 32 26 21 22 23 25 30 33 33 31 32 32 30 29 29 27 27 25 25 25 23 21 20 21 22 21 21 21 22 24 29 27 24 22 23 23 20 17 20 19 17
48 39 37 34 26 22 23 26 29 31 32 35 34 33 33 33 33 32 30 26 25 26 25 23 23 24 25 23 23 22 21 25 27 31 28 26 26 25 23 21 20 19 20
44 58 44 40 32 28 27 26 28 30 32 32 33 34 34 33 34 35 34 30 26 27 27 26 27 26 27 26 23 22 24 26 25 28 31 29 28 26 24 23 20 21 23
39 36 50 42 34 32 30 30 26 26 29 32 34 34 33 35 36 36 36 34 33 30 29 30 31 30 29 28 25 25 27 27 25 26 30 31 29 28 27 24 21 24 26
56 46 43 41 37 35 33 32 28 24 23 29 32 33 34 34 36 37 37 37 36 33 31 33 35 35 35 31 28 29 30 30 29 27 31 31 31 29 27 23 25 25 26
47 51 46 45 44 40 40 38 34 28 24 22 27 31 33 35 35 36 37 37 36 34 32 33 38 40 38 35 33 32 32 33 31 29 31 32 31 30 29 27 30 30 31
46 46 45 44 46 46 43 41 39 33 31 29 27 27 33 34 34 38 38 38 38 37 39 39 39 39 38 36 35 35 36 37 33 33 34 33 33 32 32 33 32 33 35
55 48 48 47 47 51 49 44 44 40 35 34 32 32 29 28 32 37 38 39 40 42 43 41 37 36 40 39 38 38 40 39 37 36 36 36 35 35 35 35 34 37 40
52 56 60 51 51 53 53 50 47 46 42 41 37 34 32 29 28 28 34 38 42 46 44 40 38 38 40 42 41 41 42 41 44 40 38 38 38 37 36 36 38 40 43
49 57 60 58 57 56 56 54 52 50 49 46 43 40 37 35 33 32 32 35 40 42 44 41 41 42 44 44 44 42 43 45 46 46 44 43 43 41 39 41 42 42 44
49 55 56 57 56 55 55 57 58 57 53 52 49 46 44 42 40 37 38 37 39 42 43 44 47 47 46 47 48 48 49 47 49 51 50 50 47 46 45 45 45 46 45
58 59 59 55 53 53 53 53 57 60 60 58 55 52 50 49 47 43 42 44 43 42 48 47 48 46 45 46 45 48 55 62 47 49 53 53 50 51 50 49 48 48 45
72 62 56 54 55 54 50 51 55 60 63 63 61 59 56 54 53 51 48 49 49 48 49 50 49 46 47 48 50 56 61 61 39 10 34 59 51 48 50 43 45 45 43
63 57 53 47 47 49 52 54 56 59 61 65 66 67 65 61 60 60 56 54 56 54 57 55 52 51 50 53 53 57 60 67 60 40 35 38 41 45 40 39 40 41 40
74 79 68 63 56 55 56 56 60 62 67 68 66 69 69 68 66 66 67 65 63 59 61 61 58 58 56 56 56 59 61 55 53 43 38 37 37 35 36 35 38 42 43
56 65 65 58 56 58 61 61 61 35 40 68 69 64 66 69 73 73 74 66 65 77 68 66 66 61 59 57 59 57 62 59 51 50 37 29 31 35 36 38 44 45 46
60 61 60 54 51 54 68 66 66 62 57 46 57 54 57 62 63 71 73 74 72 68 68 73 75 65 59 58 56 48 46 42 46 44 39 34 37 40 42 45 48 50 48
63 66 63 62 59 54 37 52 55 44 43 40 52 59 60 53 53 51 49 54 47 50 60 65 64 64 67 62 50 45 42 41 41 44 44 43 43 44 44 42 44 48 49

GFSGL_500_spd_069.txt.gz
Wind_Speed
25 25 25 23 24 24 23 23 20 18 16 14 12 9 8 7 9 7 6 5 3 3 5 8 9 9 9 8 8 8 9 8 7 7 5 3 2 1 1 3 6 7 10
25 27 27 27 27 26 23 22 21 21 19 18 14 12 11 8 8 8 6 4 3 3 3 3 7 9 9 9 10 9 9 9 8 6 5 3 3 2 3 4 6 8 9
20 28 31 30 29 28 28 27 26 24 23 20 18 16 15 13 11 10 10 9 6 5 4 4 5 7 10 11 12 13 11 10 11 10 9 8 6 6 7 9 9 13 13
27 27 34 34 33 33 32 31 29 28 27 25 23 21 20 17 16 15 14 13 11 8 7 7 8 8 9 13 15 15 16 15 13 12 12 12 11 10 11 11 12 13 16
34 31 31 38 38 39 37 34 32 29 28 27 26 24 23 22 21 19 19 18 16 13 11 10 10 11 12 13 16 19 19 19 18 17 16 16 16 14 14 15 16 16 20
35 34 35 36 42 43 43 40 37 32 31 30 27 26 26 25 24 24 23 22 20 18 16 14 13 13 15 16 17 18 21 22 22 21 20 19 21 18 17 19 18 18 19
39 41 39 37 37 42 46 44 42 38 36 33 32 30 27 25 25 26 26 24 23 21 20 18 16 16 17 17 18 20 20 23 25 25 24 25 24 23 22 21 20 20 20
52 46 44 42 39 40 42 44 45 43 41 39 36 34 32 29 28 27 27 26 25 24 23 22 20 19 19 19 19 20 21 22 25 27 26 29 26 28 25 21 20 19 19
46 46 46 43 40 41 39 39 43 47 45 42 41 40 37 34 33 31 29 26 25 25 25 24 23 22 22 22 21 21 22 23 25 26 29 29 27 28 25 21 21 18 19
46 47 46 44 41 39 37 36 38 42 47 47 45 42 40 38 38 36 33 29 25 25 27 25 25 24 26 26 24 25 23 23 25 25 25 29 32 31 28 24 22 21 22
54 52 49 45 43 39 38 37 35 36 42 46 45 44 41 39 39 38 36 33 28 27 27 27 27 28 30 31 28 26 25 28 26 25 25 27 32 36 33 27 26 25 24
55 58 52 50 45 42 40 38 37 37 37 40 41 41 40 40 38 38 38 35 34 32 30 30 31 32 33 35 34 27 28 30 28 28 27 28 31 34 35 30 28 27 28
51 49 43 44 55 49 46 43 38 37 36 37 38 37 38 40 40 39 39 38 37 36 35 35 36 37 38 38 36 34 32 30 30 31 31 30 32 31 33 33 31 30 29
45 41 42 50 58 58 54 46 41 40 36 33 33 35 39 39 39 39 40 39 39 39 39 40 41 40 41 40 39 38 36 34 34 33 34 32 32 32 33 35 34 33 31
51 50 48 45 55 52 58 51 49 44 40 37 33 32 34 36 38 41 42 40 40 40 44 46 42 39 41 42 42 42 41 37 35 36 37 36 34 33 35 37 36 35 34
58 55 51 46 51 49 57 51 55 50 46 43 40 37 34 31 36 38 40 39 39 43 45 41 40 39 38 40 42 44 44 41 38 39 39 38 38 37 38 40 39 38 39
61 58 63 59 55 60 60 62 57 55 52 48 44 42 40 36 37 38 38 35 38 42 42 41 40 41 39 40 42 44 45 44 44 41 40 42 43 43 43 43 43 42 43
73 76 68 59 56 54 69 65 61 58 51 51 51 48 44 43 41 42 42 39 38 36 35 33 36 42 41 41 43 47 47 47 46 45 44 46 48 49 49 48 48 48 46
84 85 71 58 61 60 55 57 57 63 61 58 60 58 52 48 47 47 47 43 41 40 39 38 36 35 38 43 45 46 47 47 48 48 47 48 51 55 56 58 55 53 49
79 86 69 61 63 73 65 66 66 65 68 70 68 61 60 56 54 52 52 52 49 47 46 46 42 41 36 42 45 46 47 47 48 51 50 53 54 55 60 64 68 63 56
91 77 72 76 71 67 56 51 59 69 66 66 68 67 65 63 62 60 59 61 58 54 52 51 50 48 47 45 44 46 50 48 46 49 55 57 58 65 62 62 87 55 49
91 90 75 65 66 63 52 50 54 54 57 61 61 62 67 69 68 65 65 64 61 61 59 57 56 53 55 54 51 50 47 48 50 51 53 54 55 55 63 62 8 35 53
81 86 90 84 66 60 49 47 55 55 53 53 55 58 64 67 70 71 70 69 66 66 65 66 64 61 61 60 59 56 53 52 53 57 55 57 59 61 60 44 43 44 38
77 75 75 84 90 84 68 59 61 63 58 57 58 59 60 62 65 68 71 72 72 74 73 76 74 71 68 68 66 62 59 55 57 57 54 53 57 60 62 56 41 48 46
75 69 62 59 69 77 83 78 73 71 64 60 61 63 61 59 55 39 74 72 72 75 76 79 81 73 74 68 74 68 60 68 69 61 59 59 58 56 50 47 41 40 40
63 62 55 52 58 69 77 80 76 76 59 52 59 64 68 69 61 69 44 61 68 70 73 68 79 79 79 65 63 67 71 68 64 66 62 62 60 42 49 42 42 44 43

GFSGL_500_spd_072.txt.gz
Wind_Speed
28 27 24 21 21 20 20 20 20 18 16 15 12 10 9 8 10 9 8 6 6 7 9 12 13 13 13 14 14 14 15 13 12 10 8 6 6 5 4 3 4 6 8
27 28 28 27 25 23 22 22 22 21 19 17 13 12 12 11 11 11 10 8 6 5 6 8 10 13 13 12 13 13 13 12 12 10 8 8 8 7 7 6 7 8 8
32 30 29 30 29 27 26 25 23 22 21 19 16 16 15 15 13 12 11 10 8 6 5 5 6 10 13 15 14 14 13 13 12 13 13 13 11 10 10 9 10 11 10
30 34 34 33 33 32 32 30 28 27 25 23 22 21 19 17 16 13 13 13 12 10 9 7 7 9 10 14 16 17 16 16 15 15 16 15 14 12 13 12 15 14 15
32 31 33 36 36 37 35 34 33 31 30 29 28 26 24 22 21 19 17 16 17 15 13 11 11 10 11 12 14 18 19 20 19 18 17 17 17 17 16 16 18 18 18
36 34 35 35 39 39 39 39 38 36 35 33 32 31 30 28 27 24 23 21 20 20 19 17 15 12 13 15 16 18 19 22 23 23 23 21 23 23 20 19 20 20 22
46 42 39 38 37 38 43 44 42 40 39 36 36 34 33 31 29 27 27 25 25 23 23 23 20 17 16 15 17 19 18 20 22 25 26 26 27 27 22 22 23 22 22
54 50 45 41 38 39 40 43 46 45 43 40 39 37 36 33 31 30 30 28 27 27 27 26 24 22 20 19 17 17 19 20 22 24 23 28 30 30 26 25 25 23 22
57 56 52 46 42 40 39 40 45 49 48 46 44 43 40 37 36 34 34 31 28 28 28 28 25 25 24 24 21 20 19 20 23 23 22 24 25 29 29 28 25 21 21
43 53 60 54 53 50 46 44 45 46 48 50 47 46 45 43 41 39 38 33 31 28 28 27 26 26 28 28 25 25 21 23 24 23 21 20 22 26 28 31 30 25 22
42 47 51 61 59 51 49 47 45 45 45 45 46 47 49 48 47 45 43 38 34 33 30 28 27 29 31 32 30 28 25 28 25 25 22 20 22 24 28 29 30 30 27
47 42 47 57 55 52 49 47 45 44 44 41 42 44 47 49 47 46 45 42 40 38 34 33 32 33 35 35 34 31 30 30 27 26 26 25 24 26 29 28 27 27 29
53 50 52 55 56 55 52 47 45 46 44 40 39 39 40 46 46 46 46 44 43 41 40 40 40 40 40 39 35 35 34 32 31 30 29 29 31 30 28 28 29 28 29
61 57 58 62 64 60 57 54 53 48 42 39 39 35 36 41 44 45 47 48 47 45 44 46 44 44 42 41 40 38 38 38 37 34 33 33 34 33 32 31 31 31 30
66 57 61 67 65 61 62 67 57 53 46 42 41 40 37 39 40 44 46 46 48 48 49 45 42 42 41 40 41 41 41 41 39 39 37 37 38 37 35 36 33 35 33
66 74 65 58 72 65 68 58 56 50 52 49 48 47 39 37 38 40 41 45 46 47 45 42 41 40 41 41 40 40 40 40 40 40 39 38 38 38 37 37 37 37 37
82 69 68 65 58 57 50 49 52 44 56 59 56 51 47 42 42 42 42 43 41 40 37 38 38 38 38 38 40 40 40 42 43 41 40 39 39 39 39 38 38 41 42
87 79 72 60 57 64 56 50 52 38 57 59 60 59 54 49 49 47 48 47 45 42 39 38 35 34 37 37 40 39 41 42 42 43 43 42 41 40 40 39 39 41 45
91 89 81 79 74 72 64 55 45 40 45 51 63 65 58 61 56 52 53 52 50 46 44 41 40 39 38 35 35 34 39 42 43 45 44 45 45 45 44 45 45 46 49
97 93 89 78 74 72 67 63 56 55 54 58 57 58 63 63 61 58 56 56 56 53 48 47 47 45 44 41 39 39 36 37 39 41 43 44 45 47 46 47 49 50 53
99 99 93 90 82 85 68 68 66 58 55 56 59 67 69 65 63 59 61 63 61 58 57 53 52 49 49 49 49 45 45 43 45 43 42 42 43 44 45 48 50 53 50
89 99 101 94 92 93 85 79 71 66 58 58 62 64 66 65 68 68 68 68 66 66 64 61 60 57 58 58 57 56 52 50 51 50 48 46 44 44 45 46 49 51 53
88 87 96 101 95 87 82 83 82 74 66 65 64 63 62 65 67 69 72 73 72 70 70 70 67 66 65 63 63 64 61 61 61 57 56 54 53 50 49 47 46 51 54
81 88 86 86 94 89 85 77 80 68 70 62 61 61 59 59 63 67 69 66 66 71 74 75 75 71 69 69 72 73 72 70 61 63 65 69 63 57 56 55 52 52 54
65 78 85 82 75 81 89 85 85 70 70 72 65 62 66 63 54 51 56 58 60 64 66 64 65 68 74 76 77 80 81 77 74 71 65 73 74 75 70 62 66 60 61
55 65 75 79 78 74 72 78 83 85 76 66 64 66 57 54 54 50 54 57 60 60 62 61 58 62 63 66 69 77 82 78 78 75 73 67 59 65 71 64 57 61 62

GFSGL_500_spd_075.txt.gz
Wind_Speed
32 28 26 27 24 21 20 20 20 18 18 17 14 12 11 10 10 9 7 7 10 12 13 14 14 13 12 11 12 12 13 12 11 9 8 7 8 7 5 3 4 4 6
35 34 30 28 26 24 22 23 22 21 21 19 17 14 12 11 11 11 9 7 7 9 11 12 13 14 13 13 12 12 12 12 12 11 10 11 11 10 9 7 7 6 7
33 36 36 34 29 27 27 27 26 24 23 22 20 18 15 13 13 12 11 10 8 6 7 9 11 13 15 15 15 15 14 15 15 15 15 15 14 13 13 11 11 10 10
35 36 35 35 33 32 31 30 30 29 28 25 23 22 18 16 15 14 14 14 12 10 8 7 8 9 11 15 16 16 17 16 16 17 17 17 17 17 16 14 14 14 15
30 35 37 34 34 34 34 33 32 31 30 29 27 26 22 18 18 17 18 18 17 15 13 11 10 9 8 11 14 18 19 20 19 19 19 18 18 19 18 16 16 16 17
42 36 34 35 37 36 37 36 35 33 34 34 31 29 27 24 23 23 22 21 21 19 18 17 15 13 13 13 14 16 17 19 22 23 22 22 23 21 19 16 17 19 21
51 43 35 35 35 37 40 40 38 37 36 35 35 34 31 30 30 29 28 27 27 25 23 21 21 20 19 17 17 17 16 17 19 21 22 26 27 28 24 22 21 21 23
43 41 41 41 40 39 39 39 42 42 40 39 38 37 36 34 33 33 33 33 32 30 28 27 26 25 25 24 22 19 18 17 19 20 21 23 24 26 27 26 26 26 23
48 42 47 47 48 45 42 41 41 43 44 43 42 40 37 36 35 35 36 35 32 31 30 29 28 28 28 29 27 25 22 20 21 20 18 20 21 22 22 21 24 25 26
53 51 48 54 56 55 50 45 43 42 43 45 46 44 44 41 40 39 38 37 34 31 31 30 29 30 31 31 30 29 26 25 26 22 20 18 19 21 23 23 24 22 21
61 58 55 55 58 60 57 55 50 44 44 43 44 45 45 45 46 45 45 42 37 36 34 32 32 31 32 33 31 29 26 31 30 24 22 22 22 24 26 25 25 22 20
65 63 60 58 51 61 61 60 58 53 50 46 44 47 46 47 49 49 49 47 44 41 38 37 36 36 36 36 33 31 31 31 30 27 28 27 28 29 30 29 27 25 23
67 66 65 62 58 53 51 57 61 60 57 50 48 47 45 46 47 50 52 51 48 45 43 42 43 41 41 40 37 34 34 32 30 30 31 33 34 33 33 32 31 29 28
73 69 67 65 56 53 47 48 55 62 56 49 48 45 44 44 42 43 45 49 50 47 45 45 45 44 41 40 40 39 38 36 34 34 34 35 36 37 36 38 36 34 32
79 76 72 67 60 57 53 53 56 63 55 53 51 47 46 43 39 43 44 45 45 44 45 45 44 42 42 41 41 40 40 39 37 37 38 38 38 39 38 39 38 38 36
84 82 76 72 67 61 58 56 52 60 61 62 57 52 48 45 42 43 44 41 40 41 40 39 39 39 41 41 41 41 42 42 41 39 38 37 37 36 37 38 38 37 35
85 86 85 79 75 70 66 63 64 61 66 64 58 53 53 54 48 48 49 44 42 40 37 33 31 32 36 37 36 37 39 39 40 38 37 36 36 35 36 38 37 36 35
89 88 89 89 84 79 73 66 66 58 69 71 56 61 60 61 57 56 53 52 45 41 39 34 32 33 32 32 33 34 36 39 38 39 39 38 38 38 37 37 39 39 40
89 91 91 90 91 87 82 76 69 63 59 57 67 65 68 66 61 61 58 58 50 47 45 42 39 38 39 38 37 35 34 36 39 39 38 38 38 39 39 39 41 41 42
92 91 94 96 96 92 88 82 78 76 70 66 65 56 52 58 65 68 63 65 52 52 50 48 46 45 44 43 44 43 40 39 38 39 38 39 39 39 37 37 38 40 43
81 92 93 96 98 98 94 90 80 74 71 56 60 50 51 45 45 51 61 68 64 56 54 52 54 51 49 49 47 48 47 45 43 42 43 43 44 46 46 44 42 42 41
71 77 91 95 98 99 97 96 92 81 76 58 58 57 56 54 49 48 50 53 59 57 59 54 57 57 55 52 52 52 52 52 51 50 50 50 52 53 52 52 51 50 46
51 67 76 90 96 98 100 98 95 93 87 83 67 70 67 66 54 49 53 56 57 63 56 62 57 54 56 58 58 58 59 59 59 60 61 59 60 60 62 61 62 61 57
36 43 61 75 87 95 99 100 99 93 88 85 80 73 69 68 61 58 53 56 60 63 64 62 58 58 62 62 61 62 63 64 62 63 67 69 69 70 70 72 67 61 61
43 42 37 55 75 83 94 98 99 94 89 82 84 75 74 69 65 67 60 60 60 61 61 60 63 62 62 60 60 59 59 60 58 65 70 71 60 66 69 66 62 64 67
38 38 38 35 54 74 82 91 95 94 91 86 88 85 85 81 74 74 70 60 57 57 56 54 56 56 54 55 57 57 58 58 59 60 60 60 66 67 58 56 58 61 63

GFSGL_500_spd_078.txt.gz
Wind_Speed
32 28 26 25 24 22 21 22 22 21 21 19 15 12 11 10 9 8 9 10 11 12 13 12 11 11 10 9 10 11 11 10 10 8 8 9 9 9 7 6 4 5 5
35 33 28 26 25 24 23 24 24 24 24 22 18 16 14 12 12 10 9 8 7 9 11 14 14 12 11 10 10 11 11 11 11 12 11 11 12 11 9 8 7 7 9
31 35 32 28 27 26 27 26 27 27 27 25 22 20 17 15 14 13 12 10 9 9 9 11 13 14 13 12 13 12 12 13 13 14 14 14 14 13 13 12 12 11 10
31 30 33 34 31 29 29 29 28 29 28 27 25 23 20 17 16 15 14 13 12 10 9 10 10 10 13 15 15 16 16 15 16 17 18 17 17 17 17 16 15 14 13
30 31 33 36 38 37 35 32 31 30 29 29 28 26 23 21 19 17 16 15 15 15 14 12 11 9 9 11 13 16 18 19 19 20 21 21 20 19 18 16 15 17 19
33 32 34 37 36 37 39 40 38 34 31 31 30 29 27 24 23 22 20 18 18 17 17 17 16 15 13 12 12 12 13 16 19 22 24 24 25 23 20 19 17 17 20
38 35 36 35 30 34 39 39 40 39 37 35 33 32 30 28 28 27 26 24 23 22 22 21 21 20 20 18 17 16 15 14 17 19 20 22 23 25 20 21 20 21 21
41 41 40 39 39 43 38 42 42 41 41 39 37 35 34 33 32 32 32 30 28 28 27 26 25 25 25 24 24 22 21 19 18 19 19 20 19 19 19 17 17 20 19
49 47 47 46 46 51 45 43 42 41 41 42 40 38 36 35 34 35 36 34 32 30 31 29 28 28 28 29 28 26 26 24 24 22 20 18 18 18 18 18 19 18 19
54 52 51 52 52 43 40 40 46 43 40 40 40 40 40 38 39 38 38 37 33 31 31 32 30 28 30 32 31 29 27 28 31 28 23 21 20 21 21 20 21 20 18
60 59 57 55 51 51 46 41 42 45 46 44 43 41 39 39 41 41 42 41 38 35 35 35 35 32 32 32 31 28 25 29 31 31 27 26 26 26 26 25 25 23 22
63 62 65 61 57 57 53 47 42 44 48 50 48 46 41 40 41 42 45 46 45 44 41 41 39 38 37 37 34 28 28 29 28 28 28 28 31 31 31 28 26 27 26
69 69 66 66 67 65 63 60 57 56 55 55 56 51 49 44 40 41 43 46 46 45 44 45 44 44 41 39 37 34 33 31 30 29 28 30 32 34 32 32 30 30 29
76 74 73 72 71 69 69 67 63 62 56 55 52 54 53 53 49 47 49 47 48 46 45 46 47 46 43 41 39 37 35 35 34 34 33 33 34 35 35 36 34 32 31
81 81 81 80 77 73 73 72 70 68 63 61 60 56 57 59 54 52 48 47 47 45 44 43 42 41 41 40 41 40 39 36 34 34 36 35 35 36 36 38 37 37 35
83 86 86 85 83 81 77 75 74 72 65 59 59 60 58 51 53 53 51 48 44 43 40 36 36 36 35 37 39 40 40 39 36 36 36 35 35 37 37 39 39 38 36
89 87 88 89 88 87 84 80 77 74 70 64 63 60 45 54 53 53 52 52 49 45 38 33 33 33 30 33 35 35 35 36 37 37 37 35 35 35 35 35 36 37 37
83 95 92 89 92 92 91 87 82 80 75 68 67 63 54 56 56 58 56 54 54 48 44 39 37 38 32 33 34 29 26 29 30 30 33 34 35 35 35 35 35 36 38
58 68 92 98 93 94 95 94 90 85 82 75 70 69 63 60 58 63 63 60 54 58 49 50 46 42 39 35 35 33 32 32 32 31 32 32 33 33 32 32 33 31 31
62 61 62 86 101 98 95 98 96 92 88 82 75 71 69 67 61 64 64 70 57 56 57 62 49 47 48 46 44 42 40 38 35 35 35 36 38 39 38 37 37 37 35
59 59 63 62 83 101 101 96 98 98 95 90 82 77 73 69 65 66 61 63 61 64 62 63 59 59 52 52 52 49 46 43 41 39 40 39 41 39 39 41 42 42 42
59 59 59 62 62 78 97 102 97 98 99 97 92 84 81 73 66 65 63 58 59 57 54 59 61 61 64 61 58 56 51 47 45 44 44 45 44 46 46 46 49 49 50
54 55 53 55 60 60 79 96 102 97 98 99 98 94 88 83 79 73 73 67 64 54 53 51 46 58 57 63 51 51 48 54 50 46 47 49 51 53 54 53 55 57 55
48 51 53 50 52 57 58 77 94 101 98 97 99 97 94 89 83 75 69 63 63 54 48 45 46 43 47 51 56 59 53 45 45 43 46 51 53 56 54 53 56 56 57
41 44 47 49 49 43 47 52 65 91 99 98 97 99 97 92 88 80 69 68 64 60 57 54 50 44 45 48 53 52 49 49 51 49 51 53 54 53 52 53 53 53 54
36 36 39 44 50 52 49 47 50 61 88 98 96 96 97 96 91 87 81 72 68 66 60 61 62 56 50 50 51 52 50 51 48 50 51 53 52 51 52 53 54 53 59

GFSGL_500_spd_081.txt.gz
Wind_Speed
30 28 25 23 22 20 18 17 18 19 19 17 15 11 9 8 7 8 8 9 9 10 10 9 8 8 7 6 7 7 8 8 7 7 7 6 6 6 7 8 9 10 7
31 30 27 25 23 22 21 19 18 20 20 20 17 14 11 9 9 9 8 8 10 10 10 11 10 9 10 9 8 9 9 9 10 11 10 9 9 9 10 10 11 13 14
27 29 30 28 25 24 23 21 20 19 21 21 20 17 15 12 11 10 9 9 10 11 11 11 12 12 11 11 11 10 11 12 12 13 13 12 12 12 12 12 14 16 17
23 25 26 30 30 27 26 24 22 21 21 22 22 21 18 16 14 12 11 11 10 10 9 9 11 11 13 13 13 13 14 14 14 15 15 15 15 15 16 16 16 17 18
26 26 28 28 29 32 29 28 26 24 24 24 24 24 23 20 18 17 15 14 14 12 10 9 9 9 10 12 13 15 16 17 17 17 19 18 19 18 18 16 16 16 19
28 29 29 28 28 30 34 34 31 29 28 27 27 27 26 24 23 22 20 18 17 16 15 14 14 13 13 13 13 12 12 14 17 18 20 21 23 21 20 18 18 19 20
27 32 33 34 31 30 32 34 36 36 36 33 31 31 30 28 27 27 27 24 22 20 19 18 18 18 18 17 18 18 17 16 16 15 16 18 19 19 16 16 16 19 22
37 34 33 36 35 34 32 31 33 34 35 37 37 36 34 32 32 31 32 31 28 26 25 24 22 23 22 22 23 23 23 23 22 21 18 17 15 16 16 14 15 17 17
43 42 40 37 38 38 37 36 33 35 34 35 38 39 38 36 35 35 36 36 33 31 30 30 28 27 27 28 27 26 25 25 27 27 24 21 19 18 17 17 19 14 16
47 46 46 45 44 43 43 44 41 42 41 45 41 39 40 38 37 38 40 39 36 34 33 33 32 31 31 31 30 30 26 27 30 29 25 24 24 22 23 20 20 19 18
50 50 49 50 51 49 47 47 50 46 50 50 44 38 37 37 37 38 41 42 39 38 37 36 35 34 34 34 33 31 27 30 29 26 26 24 23 26 27 27 24 23 21
56 56 54 54 54 55 54 54 51 50 47 50 48 47 41 39 38 38 38 42 45 45 42 41 39 39 38 38 37 33 32 32 30 27 25 26 27 27 29 28 25 25 28
62 61 61 61 60 60 60 58 57 57 53 49 50 44 43 45 42 41 43 43 45 45 44 44 44 44 43 42 41 40 37 35 33 32 31 28 29 31 30 29 28 25 25
66 67 67 67 67 67 66 64 63 62 60 59 53 50 46 44 42 44 49 51 47 44 43 42 42 43 41 43 43 42 41 40 39 37 36 35 34 34 34 34 32 31 28
69 72 72 73 74 74 73 73 70 69 69 65 63 61 57 51 51 52 50 54 57 53 47 47 44 41 41 41 39 39 41 41 42 40 38 37 37 36 35 35 35 34 31
72 73 75 77 79 80 79 79 78 75 75 73 70 67 65 61 59 57 54 53 56 58 57 36 41 39 37 39 38 37 38 40 41 41 39 39 38 37 37 37 36 36 35
67 71 75 79 82 83 85 85 84 83 80 78 77 74 72 71 68 63 62 59 58 58 59 53 39 37 39 38 36 36 37 38 38 38 39 38 38 37 36 35 35 34 34
61 68 68 70 74 82 89 90 90 90 88 84 83 80 77 78 75 71 68 65 61 61 64 56 55 45 43 37 40 37 36 40 39 37 38 38 37 35 33 31 32 32 32
54 56 61 68 73 73 76 86 93 94 92 92 89 85 82 81 82 78 73 69 61 60 61 60 53 54 46 44 41 39 40 40 41 39 37 38 35 33 31 29 29 29 30
63 65 66 65 69 71 73 75 78 91 98 97 95 92 89 87 84 84 78 74 65 61 56 58 60 50 49 53 49 45 44 42 42 40 39 38 37 36 35 35 32 32 33
65 68 70 74 70 72 72 75 75 71 80 97 99 96 97 93 89 87 84 79 73 65 66 58 60 63 63 50 51 49 50 47 46 47 45 44 45 43 42 41 39 37 34
70 74 76 71 75 71 72 72 77 75 67 70 90 102 99 99 96 91 89 84 81 74 70 67 62 63 60 60 54 53 53 53 56 55 54 54 53 48 47 46 43 42 41
61 62 64 66 68 67 67 70 73 72 75 65 65 84 103 102 101 98 95 89 85 80 75 70 67 61 59 59 59 57 54 60 60 56 56 61 56 51 53 52 50 47 46
65 63 61 59 58 60 59 61 66 70 68 67 63 63 82 103 103 101 99 96 90 85 80 75 68 59 56 52 51 54 50 50 56 60 58 60 65 68 62 57 53 50 49
56 54 53 52 53 52 53 57 60 63 67 67 63 64 66 80 103 102 101 99 95 90 85 81 73 69 60 57 54 51 52 49 48 53 54 54 57 56 51 47 45 47 44
45 45 47 45 46 47 48 49 53 56 61 57 58 56 55 62 81 100 99 97 96 94 90 84 79 74 66 59 54 49 46 44 39 43 43 45 48 48 47 45 46 46 44

GFSGL_500_spd_084.txt.gz
Wind_Speed
27 27 23 20 16 13 11 10 11 16 14 11 4 8 9 5 4 5 6 6 5 6 5 5 6 6 5 5 5 6 7 7 6 5 6 5 6 7 8 9 10 10 10
26 25 26 23 19 17 15 13 12 14 16 12 13 12 8 4 5 5 6 6 7 7 8 7 6 6 6 6 7 8 7 8 8 8 8 9 9 10 11 12 12 14 15
22 27 26 26 24 20 19 16 15 14 16 15 13 13 8 7 6 6 7 7 7 8 8 8 9 9 7 8 9 8 10 10 11 10 11 11 12 12 13 14 15 17 19
33 33 21 22 27 24 21 20 19 18 18 19 18 17 16 14 12 11 10 10 10 9 8 9 10 10 9 10 11 11 11 13 13 13 14 13 13 14 14 16 17 17 19
28 24 22 21 20 24 25 24 22 20 20 22 23 22 21 20 19 17 14 13 13 13 11 10 10 8 8 8 9 11 13 15 16 16 16 16 17 17 17 17 16 16 20
32 29 27 20 20 22 23 26 25 23 22 22 23 25 24 22 23 22 20 18 17 16 16 15 14 12 12 11 11 11 10 12 13 13 14 17 19 17 17 16 17 17 19
34 34 30 25 23 23 24 25 25 28 28 24 23 23 24 25 26 27 26 26 23 20 19 20 18 18 17 16 17 17 17 16 16 16 15 15 13 14 15 14 15 16 19
22 17 21 24 24 26 27 25 24 25 26 28 29 30 28 27 29 31 32 32 29 27 25 25 23 23 23 22 22 21 21 21 22 22 21 22 16 15 14 13 15 15 16
36 33 30 28 27 27 29 31 29 26 26 26 27 27 26 27 31 34 35 36 35 33 31 31 30 28 29 30 27 27 25 24 26 26 24 24 23 20 20 17 19 16 17
45 43 41 38 36 36 35 34 35 33 30 31 29 28 29 29 30 35 37 39 37 37 37 37 36 34 34 35 34 31 26 28 30 29 25 25 24 23 25 25 24 20 17
47 47 46 44 43 43 42 40 40 39 38 36 38 38 37 36 35 39 42 42 41 41 40 40 40 40 40 39 38 34 29 32 32 29 25 25 25 25 27 28 27 25 23
48 48 49 49 49 47 45 46 45 48 46 44 44 45 45 42 44 42 40 38 40 40 42 43 43 43 42 43 42 37 36 36 35 31 27 26 29 29 29 28 27 26 25
52 51 51 51 51 52 52 51 50 50 51 52 51 49 47 45 44 44 46 45 42 40 40 43 44 46 44 43 43 43 42 41 38 35 33 31 32 34 33 32 31 27 25
57 58 57 57 58 57 57 57 55 57 55 54 53 52 53 51 50 48 51 51 49 44 46 45 41 40 44 46 46 46 46 46 46 43 40 39 39 38 37 36 36 35 31
58 59 61 64 64 64 63 63 62 62 62 62 60 59 57 56 56 53 53 55 51 52 55 48 40 43 42 42 43 42 44 46 44 45 45 43 43 44 41 40 40 39 36
57 58 61 63 65 68 69 70 69 68 68 68 68 68 65 62 62 60 59 58 59 56 52 51 49 44 44 44 49 47 47 47 46 44 41 42 43 43 43 42 41 42 40
56 57 59 62 65 68 70 72 73 74 76 75 75 74 73 71 70 69 68 66 64 63 60 57 53 49 45 49 49 50 59 50 43 42 41 40 40 40 40 38 40 42 40
58 59 59 60 62 64 67 70 73 75 76 78 80 81 80 78 76 77 78 74 70 70 67 64 59 54 51 51 50 50 42 38 41 43 40 41 39 39 39 38 38 40 41
52 53 53 56 59 62 65 67 69 72 76 77 79 82 85 86 85 84 82 81 79 75 74 72 67 61 57 56 55 50 51 49 48 49 46 39 40 38 38 38 39 38 38
56 58 60 63 64 64 66 68 71 73 73 75 77 79 80 86 91 90 89 87 85 81 80 78 77 71 63 60 57 59 60 55 51 50 46 41 42 40 40 39 38 38 36
63 66 67 68 71 72 74 75 76 77 79 79 78 78 76 79 84 85 88 90 90 87 86 84 82 80 73 65 57 54 57 56 58 49 45 51 48 50 45 43 42 42 42
63 64 67 69 71 73 75 77 79 82 84 85 86 85 82 82 77 78 84 85 90 94 92 93 85 81 81 77 66 59 60 62 60 53 59 55 54 52 50 48 47 46 47
64 65 69 73 76 78 80 81 82 84 87 90 93 93 89 87 85 80 79 79 78 85 92 94 87 86 88 83 77 68 66 66 63 61 56 57 53 51 50 50 50 51 50
55 58 63 69 71 75 78 79 80 82 82 80 80 81 80 82 84 82 78 78 75 73 79 91 95 92 89 88 83 77 70 65 62 58 56 56 61 61 55 54 50 48 51
51 55 59 62 64 64 64 65 65 64 62 64 69 68 69 71 74 75 75 74 71 67 67 80 92 95 93 91 85 78 74 68 65 64 56 54 58 52 52 49 52 54 54
52 52 57 59 60 58 55 57 54 53 55 57 57 56 59 62 64 67 70 72 71 73 72 68 81 92 96 95 90 81 73 71 65 59 55 52 52 50 50 52 52 53 50

GFSGL_500_spd_087.txt.gz
Wind_Speed
27 26 23 20 16 13 11 7 6 7 9 12 10 7 6 5 5 5 4 3 3 4 4 4 5 4 4 4 4 4 6 7 8 8 8 6 6 8 8 9 9 10 12
29 29 26 23 21 18 16 12 9 8 10 12 13 9 10 8 7 7 6 5 4 6 5 6 6 6 6 6 6 6 6 7 8 8 9 10 11 10 10 11 11 12 14
20 21 24 27 26 24 22 17 13 12 12 13 15 14 13 12 11 10 8 7 7 7 7 8 7 8 8 8 9 7 7 9 10 11 12 12 12 12 12 14 14 15 18
20 21 21 23 26 27 24 22 18 16 16 18 18 18 18 17 15 12 11 10 9 8 8 9 9 10 10 11 11 11 10 11 12 13 14 14 14 14 15 14 16 18 20
26 21 24 28 31 30 26 26 23 20 19 18 18 19 19 19 18 16 14 12 11 11 11 10 10 8 9 10 11 12 12 13 14 15 16 17 18 17 16 15 16 19 22
27 24 28 23 36 28 26 27 26 24 22 20 20 20 20 21 22 21 19 16 15 15 15 15 14 13 13 12 12 11 10 11 12 11 12 13 13 12 12 13 14 15 18
35 29 25 23 29 19 20 21 27 28 25 23 21 20 21 22 23 23 23 22 21 19 19 19 20 19 19 18 18 16 15 15 16 16 16 17 15 13 11 13 13 15 16
37 38 32 32 24 26 26 26 23 25 25 26 26 24 23 23 25 26 27 28 27 26 25 25 25 25 25 24 23 21 20 20 20 20 21 22 19 20 17 15 16 15 18
30 26 22 13 23 23 20 16 21 23 24 24 27 29 30 31 32 31 31 30 30 30 31 31 31 30 31 32 30 28 25 25 27 26 25 25 24 22 21 20 23 19 19
36 40 44 31 28 26 26 25 25 27 26 26 26 26 28 30 32 32 31 31 31 31 34 36 37 36 38 39 37 34 29 31 34 31 29 26 26 25 26 25 26 26 23
38 39 42 39 33 36 36 34 33 32 32 32 32 31 30 31 30 28 28 31 33 32 36 37 40 40 40 41 41 39 37 37 36 36 34 30 27 28 28 29 27 24 21
41 40 40 40 40 38 38 36 36 37 38 38 37 39 39 37 36 38 39 39 37 36 34 38 40 42 43 44 44 43 42 41 42 39 36 31 30 33 34 33 29 25 25
43 43 43 44 45 44 43 44 42 42 41 41 40 41 44 45 45 45 45 45 46 44 41 39 39 43 45 45 45 45 45 45 45 46 42 37 35 36 37 38 38 33 29
48 47 46 46 47 47 47 47 47 46 46 46 46 46 46 47 47 49 50 50 49 46 44 42 44 43 43 44 46 45 47 49 50 49 47 45 43 44 44 45 44 41 36
51 51 52 52 52 52 52 52 52 53 53 52 51 52 52 52 53 51 50 51 52 52 48 45 47 49 48 50 49 49 47 47 48 48 49 50 49 47 48 50 49 48 45
53 53 52 53 54 54 54 55 56 57 59 60 60 59 60 60 58 58 57 56 55 55 52 49 49 49 50 51 56 54 49 50 47 46 47 49 49 49 49 50 50 49 47
51 52 53 52 52 53 54 54 55 57 58 58 60 62 64 65 66 65 65 65 65 62 59 59 55 54 53 54 55 50 47 45 52 58 53 53 56 52 49 51 51 49 45
52 53 54 53 54 54 54 55 57 56 57 60 62 63 65 67 68 71 72 71 70 71 69 66 65 61 60 59 57 55 53 51 50 50 52 53 50 57 59 59 56 50 44
52 53 55 56 57 58 58 59 61 62 62 61 62 64 67 69 69 71 72 74 76 76 76 75 74 73 69 67 64 62 58 55 55 55 55 52 51 54 56 49 52 54 45
47 47 49 50 51 52 55 57 59 61 64 66 66 68 69 71 72 73 74 75 77 79 78 80 81 79 79 78 73 69 65 63 60 58 58 56 53 50 56 47 45 44 38
52 53 55 58 58 59 59 61 64 66 67 70 72 73 74 75 76 77 78 79 80 80 79 82 85 86 86 84 82 77 72 69 67 66 61 60 54 51 40 30 38 43 46
56 57 59 61 64 67 68 69 70 71 72 73 75 78 81 84 84 85 85 85 84 84 84 86 84 85 87 85 85 87 83 78 76 72 68 65 59 53 56 55 57 54 54
58 59 61 63 66 68 69 72 75 77 79 81 82 83 84 86 88 90 90 89 86 86 88 92 91 87 84 83 83 88 90 86 81 80 76 71 65 58 58 62 60 61 51
55 57 58 60 63 65 65 68 73 76 79 82 84 87 89 92 95 98 100 102 103 100 96 92 91 90 89 84 81 83 87 90 87 83 82 79 73 68 63 63 60 61 60
47 46 46 48 52 55 61 67 72 76 79 80 82 85 87 91 93 96 97 96 95 94 93 93 91 91 89 87 83 81 78 83 88 87 85 84 82 75 69 67 64 62 61
40 41 44 48 53 58 58 61 67 71 71 70 70 66 65 63 63 65 68 72 76 80 83 83 83 83 82 84 84 79 74 74 80 86 88 86 84 83 75 71 68 63 59

GFSGL_500_spd_090.txt.gz
Wind_Speed
31 29 24 20 17 15 13 11 11 13 14 13 13 11 9 9 8 6 6 7 8 8 8 8 7 6 6 6 6 7 9 11 11 12 11 8 8 11 9 11 11 15 15
27 29 27 26 23 19 15 14 14 15 17 18 17 15 14 13 11 11 9 8 7 9 9 9 8 8 7 7 7 8 9 10 11 12 12 11 12 9 10 13 13 15 16
28 27 28 27 25 23 21 19 18 18 18 17 18 18 17 18 15 15 13 11 9 9 9 9 11 10 10 9 9 9 9 11 12 11 13 13 13 13 14 15 16 17 18
30 30 27 28 28 28 26 24 22 21 20 19 21 22 22 20 19 18 14 14 13 11 10 10 11 13 12 13 12 12 12 12 12 13 14 14 15 15 15 16 17 18 22
22 23 25 28 29 28 27 27 26 25 25 23 21 22 21 23 23 20 17 16 14 13 12 12 12 13 13 14 14 14 15 15 15 15 16 16 16 16 14 14 17 19 23
23 21 32 30 27 27 28 32 31 33 30 28 26 25 23 23 22 21 21 20 17 16 15 15 14 14 13 14 14 14 14 14 14 14 14 15 14 14 10 12 14 16 19
27 22 27 25 24 30 27 35 37 39 30 28 28 27 26 26 27 27 26 24 22 20 19 19 19 19 18 18 17 17 17 17 18 18 18 18 19 19 17 17 16 17 18
22 21 20 35 30 31 27 33 37 41 34 31 30 28 28 27 28 29 28 28 27 25 24 23 23 23 24 23 22 21 21 21 22 22 22 23 23 24 21 20 22 23 23
24 22 23 30 34 37 25 23 30 25 33 36 34 32 29 29 30 30 29 28 28 29 29 29 28 27 29 29 27 26 27 26 28 27 26 26 28 28 29 26 26 26 25
27 27 30 30 29 39 18 29 18 18 28 27 26 26 30 32 35 34 33 33 30 30 32 32 34 34 34 36 34 33 30 32 36 33 30 30 29 30 31 31 31 29 29
34 33 33 33 30 31 35 27 27 21 23 23 24 24 26 28 32 33 34 36 33 32 33 34 34 35 37 39 40 39 38 38 38 38 38 37 35 34 35 36 35 33 29
39 39 37 34 32 30 28 28 30 32 32 33 34 30 32 34 34 33 33 34 32 32 31 34 35 34 35 38 39 41 43 42 43 45 44 41 40 38 39 39 40 39 34
43 41 40 39 38 38 37 35 35 35 36 37 40 40 39 40 41 41 43 43 42 42 42 42 40 39 38 38 39 42 45 44 44 44 46 47 45 44 42 42 44 44 42
45 45 44 43 42 42 42 41 39 38 40 40 40 40 42 44 45 45 46 48 49 48 47 45 45 44 42 41 42 45 46 45 46 46 46 46 49 48 45 45 46 47 48
46 46 45 45 45 45 46 46 46 44 41 44 46 45 45 47 47 48 47 48 48 48 48 49 51 50 49 47 46 44 49 49 49 49 49 48 48 48 46 48 50 49 48
48 47 47 48 48 48 48 48 49 50 49 48 49 52 54 54 53 54 54 55 54 53 52 51 52 51 49 51 51 51 48 48 51 52 55 53 53 54 50 47 49 49 46
47 47 47 46 46 46 47 49 50 50 52 54 54 54 55 57 58 60 61 61 63 62 61 60 58 58 58 55 54 53 52 53 51 54 50 49 48 43 47 52 56 56 52
47 47 48 48 48 48 48 48 48 50 51 52 55 56 58 58 59 61 63 65 66 66 66 67 67 66 64 64 64 62 59 58 58 57 58 56 53 51 49 46 46 50 54
49 49 49 50 50 51 51 51 51 52 52 54 55 58 58 59 61 63 65 67 67 69 70 71 72 72 72 72 71 70 68 66 66 65 63 61 58 58 54 53 51 50 47
47 48 48 48 48 49 50 50 50 51 53 54 56 58 59 60 62 64 66 68 70 70 71 73 74 74 75 76 76 76 75 74 72 72 70 68 67 65 62 57 55 54 51
45 45 46 48 49 49 51 52 53 53 54 56 57 59 61 62 64 65 67 70 73 75 75 75 76 77 78 79 78 79 80 78 77 77 77 75 73 72 69 64 61 56 55
49 49 50 51 52 53 55 56 58 60 61 62 64 66 69 70 71 72 74 76 77 79 79 80 79 80 81 83 83 83 82 82 82 82 82 82 80 78 75 70 68 63 58
55 56 56 57 57 59 60 61 62 64 66 69 71 74 77 79 81 82 84 86 86 85 86 86 87 87 86 86 87 87 87 86 85 85 87 86 84 83 81 78 74 71 67
52 54 56 56 58 58 58 59 61 64 67 71 74 77 80 82 85 86 87 88 89 91 92 96 98 100 99 98 96 95 93 89 89 90 89 90 89 87 84 82 79 78 74
46 46 46 47 48 49 49 51 53 56 60 64 68 71 77 83 88 89 90 94 95 94 94 95 95 97 99 101 102 102 100 99 95 93 91 89 91 90 89 85 81 80 79
43 42 43 42 43 44 46 48 51 55 61 64 70 76 80 79 82 88 85 84 83 84 85 88 90 94 98 100 102 102 102 101 101 101 100 96 90 88 89 86 81 81 81

GFSGL_500_spd_093.txt.gz
Wind_Speed
25 26 26 25 22 19 17 16 17 17 18 15 14 14 14 13 12 12 12 11 11 12 12 12 12 11 10 9 9 8 10 11 11 11 12 11 10 11 8 11 12 13 13
28 28 29 28 24 22 20 19 18 19 18 19 18 18 17 16 14 13 13 13 12 11 12 13 12 12 12 11 10 10 11 10 10 10 12 11 12 11 10 14 15 15 15
30 31 31 30 27 25 22 21 21 20 19 18 21 20 20 18 17 15 14 13 12 13 12 12 11 11 11 12 11 11 11 12 12 13 13 13 14 13 13 15 16 17 17
38 34 31 32 32 31 28 27 25 22 21 21 21 22 22 20 20 18 16 16 15 14 13 13 12 12 11 11 12 11 12 13 12 13 14 14 14 15 15 17 19 19 22
37 36 34 34 33 33 32 31 31 28 26 27 26 26 25 24 22 20 20 18 17 15 15 14 13 12 13 14 13 13 13 13 14 15 16 16 14 16 14 14 17 19 21
22 29 36 33 33 37 34 34 35 33 34 33 31 29 26 26 27 26 24 22 20 18 18 17 16 15 16 16 14 14 14 14 14 13 13 14 13 14 12 15 16 18 21
24 23 18 30 30 38 36 36 31 37 43 40 36 33 28 28 29 28 28 27 25 24 22 21 20 19 18 17 16 15 15 16 16 15 16 18 18 17 16 17 17 20 22
25 21 20 20 22 37 37 31 32 34 34 37 37 34 33 33 30 29 29 29 29 27 27 26 25 23 23 21 20 19 20 20 21 19 19 22 20 22 21 20 20 22 23
23 22 18 17 21 22 26 35 31 36 37 33 36 33 36 34 33 31 30 31 31 31 30 31 30 28 28 27 25 25 25 26 28 27 24 25 27 28 28 26 26 24 24
21 21 21 20 21 24 25 26 20 36 33 34 31 42 42 35 39 34 31 32 31 32 33 32 33 33 33 34 32 30 29 32 33 32 31 31 32 33 35 34 33 31 31
28 26 25 26 25 22 21 20 24 32 31 33 27 23 44 39 35 29 30 32 32 33 33 35 34 35 37 37 36 37 35 34 36 37 37 37 37 37 39 40 39 38 36
28 28 28 28 27 28 25 23 24 27 43 35 17 13 18 22 27 26 30 29 31 33 35 38 37 34 37 38 36 36 37 38 37 37 39 40 41 41 42 42 42 43 42
38 38 36 34 33 31 31 30 29 29 28 26 27 29 26 29 28 28 35 36 36 34 33 35 36 36 38 41 39 39 41 41 39 38 39 41 44 43 42 42 43 43 43
50 45 42 41 39 37 37 36 35 34 33 33 33 33 37 36 37 42 43 45 43 44 43 45 45 46 47 48 49 48 47 46 45 44 45 44 45 44 42 42 41 44 42
51 49 46 44 42 41 40 40 40 40 38 38 38 38 40 39 40 42 43 46 46 46 46 48 49 52 52 53 54 54 54 53 50 48 46 46 48 48 46 46 44 42 43
51 48 47 45 44 44 43 44 44 44 44 44 43 43 43 45 47 47 47 48 48 48 49 49 50 52 53 53 54 53 54 53 53 53 53 51 51 48 48 48 48 50 46
51 50 47 47 47 47 46 47 47 48 48 49 49 49 50 50 51 53 55 56 56 56 56 57 57 57 58 58 58 58 57 57 57 57 57 55 54 52 50 49 50 46 44
50 50 50 49 48 48 49 49 50 50 51 52 53 53 54 55 56 56 57 59 61 63 63 64 64 65 65 65 66 66 66 65 64 63 63 62 62 60 58 55 54 52 51
49 49 49 49 49 49 50 51 52 52 54 55 55 56 57 58 59 60 61 62 63 64 66 67 68 69 70 71 71 71 71 72 70 70 70 69 68 68 66 65 63 60 57
48 49 50 51 51 51 51 52 52 52 54 54 55 56 57 59 60 62 63 65 66 67 68 70 72 73 74 73 74 76 76 76 75 74 74 74 74 74 72 71 70 69 66
46 47 48 49 50 50 50 51 52 52 53 54 56 57 58 59 60 63 66 68 71 73 74 75 77 78 78 79 80 80 80 82 82 81 81 80 79 78 78 75 74 74 71
44 45 46 48 49 50 50 51 52 53 54 55 56 58 60 61 63 65 67 69 70 72 74 76 77 78 80 82 84 86 87 88 89 89 88 88 87 85 84 83 81 79 78
51 51 50 50 50 51 52 53 54 56 57 58 59 61 62 64 66 67 69 72 75 77 79 80 81 82 83 84 86 88 89 90 92 93 92 92 91 92 90 90 87 85 83
53 54 54 54 55 55 56 55 55 55 56 58 59 61 61 63 64 66 69 73 76 80 83 86 88 90 91 92 94 97 99 100 100 100 99 97 95 95 95 94 92 91 89
50 51 52 53 53 52 51 51 50 50 52 53 54 54 55 58 60 62 68 74 80 83 88 92 95 97 100 104 106 107 107 107 107 106 106 106 105 101 98 97 96 94 93
44 44 45 45 47 48 48 49 49 48 48 49 50 51 54 57 62 65 71 77 80 77 78 83 86 86 84 84 85 88 93 98 102 106 109 108 106 105 105 104 103 102 98

GFSGL_500_spd_096.txt.gz
Wind_Speed
23 24 24 23 21 19 19 19 20 20 19 19 18 16 15 15 14 15 13 13 12 12 13 13 12 10 9 8 8 8 9 9 8 8 9 7 7 7 7 9 11 13 13
24 26 27 27 25 23 21 21 21 21 21 22 21 20 18 18 17 16 15 13 13 13 13 14 12 12 12 11 9 10 9 8 8 6 7 7 6 5 7 10 12 13 14
22 26 29 30 29 28 27 24 22 22 22 22 23 22 21 19 19 17 16 15 15 13 13 13 13 12 14 12 11 11 11 11 11 10 9 9 9 7 8 11 15 17 18
32 23 28 33 33 32 33 31 28 24 23 25 24 23 23 20 21 20 18 17 16 14 13 14 14 14 14 14 14 14 13 12 11 11 11 11 11 11 10 10 11 11 14
24 31 28 37 37 34 35 34 32 29 27 26 26 26 25 26 25 23 22 20 18 17 17 16 16 16 16 15 15 14 15 14 13 13 13 12 10 8 7 7 10 12 13
16 18 32 38 33 35 33 35 36 34 32 30 28 29 27 28 28 27 25 24 21 20 19 18 18 18 18 16 15 14 14 14 13 11 11 11 9 8 8 10 12 15 18
14 19 22 22 34 36 32 38 37 37 38 37 34 34 35 31 32 31 30 28 26 25 24 22 19 19 19 18 17 16 16 16 15 14 13 15 14 13 12 15 16 18 20
20 18 18 20 22 24 24 30 38 44 42 40 40 37 34 39 38 33 31 32 32 31 28 26 24 25 21 20 21 21 22 21 22 20 19 20 19 21 19 19 20 20 20
22 19 16 20 21 18 19 28 26 43 44 40 34 36 35 35 31 37 37 35 35 34 32 30 30 29 27 27 26 24 25 26 26 25 24 24 25 27 27 25 26 23 22
16 15 16 17 19 19 21 20 26 27 46 46 38 40 40 36 34 38 39 39 39 32 34 35 33 32 31 32 31 31 29 30 31 31 30 29 30 31 33 32 30 29 29
22 23 24 22 21 21 22 24 22 22 28 27 26 28 43 39 35 39 37 36 39 35 36 37 35 34 34 35 34 36 33 32 33 34 34 36 36 37 38 38 38 36 32
28 25 21 20 19 20 22 24 22 23 22 23 26 26 35 41 39 39 36 41 42 40 38 38 37 36 37 38 39 38 37 34 32 32 33 33 35 38 40 40 39 38 37
37 30 30 28 26 27 27 28 28 27 27 25 24 30 25 24 22 22 22 27 33 32 34 36 38 38 40 41 41 43 42 41 38 36 36 37 39 40 41 42 40 41 39
43 39 36 37 41 43 41 37 34 33 32 30 29 29 31 31 31 33 35 37 36 31 34 39 40 40 41 43 42 43 44 46 44 42 42 44 44 45 45 48 47 47 42
45 45 49 53 50 48 45 42 41 40 39 38 36 36 36 36 36 37 39 39 39 41 43 45 44 47 50 51 52 51 52 53 54 53 52 51 51 51 50 49 49 48 47
54 54 58 56 53 50 46 45 45 45 44 43 42 42 41 42 42 42 43 44 46 48 50 51 53 53 52 54 56 56 55 57 57 58 57 57 56 54 52 50 51 52 52
55 54 55 52 49 49 49 49 48 47 47 47 47 46 46 46 46 46 48 48 50 51 51 52 52 54 55 56 56 57 56 59 60 58 59 58 57 56 55 54 54 55 53
55 56 55 54 54 52 52 52 51 50 50 49 50 50 51 51 51 51 51 52 54 55 56 58 59 61 61 62 64 64 64 65 67 66 65 65 66 65 64 63 62 61 61
54 54 54 54 54 55 54 54 53 53 53 52 53 53 53 54 55 56 57 58 59 60 61 63 63 64 66 68 69 71 72 71 73 74 72 71 72 72 71 72 71 69 68
51 50 50 51 51 52 52 53 53 54 54 54 55 56 57 58 59 60 62 63 64 66 67 69 70 71 72 73 74 75 76 76 77 77 77 77 77 76 75 75 74 73 73
49 50 50 49 49 49 50 51 52 54 54 55 55 56 57 58 60 61 63 64 65 67 69 70 72 74 76 77 78 78 79 79 81 82 82 82 82 82 81 81 79 79 78
41 43 44 46 46 47 47 48 48 49 50 52 53 54 56 57 59 61 62 64 66 68 70 72 73 75 77 80 82 84 85 86 87 89 89 90 90 90 90 89 88 88 88
47 46 45 45 45 45 45 46 46 48 49 50 52 53 54 56 58 59 60 62 64 65 67 68 71 74 77 80 83 86 87 89 90 92 93 94 95 96 97 97 97 97 96
52 52 52 52 52 52 52 53 53 54 55 55 56 57 58 59 60 61 62 62 63 65 66 68 72 76 79 82 84 88 90 92 95 98 101 102 102 103 103 104 103 103 103
51 52 52 53 53 53 53 53 53 53 53 53 53 53 54 55 56 57 58 59 61 64 67 71 74 77 81 84 87 88 91 94 98 101 105 107 108 108 110 112 114 112 110
44 45 48 50 50 50 50 50 50 49 49 49 50 52 54 54 53 55 57 58 60 64 68 68 69 75 79 79 82 84 86 86 85 82 80 79 79 80 82 86 90 100 109

GFSGL_500_spd_102.txt.gz
Wind_Speed
25 24 23 23 21 20 17 13 11 12 11 14 14 12 11 12 11 9 9 9 10 11 10 10 9 9 9 9 8 7 7 8 9 10 10 6 6 4 6 8 9 10 10
24 26 28 25 25 24 23 20 15 13 12 13 14 15 17 14 12 13 12 12 11 12 11 10 11 11 12 12 11 10 9 9 9 9 9 7 6 5 6 8 10 9 8
30 30 31 30 28 28 27 25 21 18 15 14 15 17 16 16 16 17 15 15 14 14 14 14 13 12 13 12 11 12 11 11 10 9 9 8 6 6 7 9 10 8 5
32 31 31 31 29 30 29 29 27 24 21 18 16 15 16 19 18 18 18 17 16 17 18 17 15 14 14 13 12 13 12 13 11 11 11 9 9 8 9 10 8 7 7
31 33 28 26 27 30 30 31 31 30 27 24 21 19 17 18 19 22 21 20 22 21 21 20 18 16 16 16 16 16 15 15 14 14 14 14 11 11 10 11 10 9 7
27 26 36 33 32 30 29 31 31 32 31 29 27 27 23 21 21 22 23 24 24 23 22 22 22 19 21 20 21 20 19 18 18 16 17 17 15 13 13 12 11 11 12
19 22 26 36 40 41 38 34 31 30 31 34 32 31 30 27 27 26 25 26 23 23 27 27 25 26 26 25 24 23 23 22 22 21 21 20 19 16 16 17 16 15 15
18 27 16 16 18 34 28 19 23 27 29 32 36 37 34 32 33 34 31 30 30 30 31 30 30 29 29 28 27 27 26 26 25 24 24 24 24 23 21 21 22 21 20
19 15 14 12 11 15 22 22 26 24 22 26 20 25 35 31 35 39 38 36 34 36 35 34 38 35 36 34 32 32 31 30 30 28 28 28 29 29 28 26 26 25 25
23 21 20 17 17 22 21 23 19 21 21 16 19 22 30 26 34 36 40 39 36 33 36 33 33 37 43 39 37 37 36 35 34 34 34 32 32 33 33 32 31 31 30
26 24 22 22 22 21 19 18 18 17 17 19 21 21 22 25 17 19 23 33 38 44 37 37 38 38 36 36 39 43 41 40 39 38 39 40 39 38 38 38 37 38 38
30 29 25 25 23 21 20 19 19 18 19 21 19 20 20 18 17 19 25 25 24 26 29 33 37 44 40 40 42 44 43 42 44 42 43 43 42 42 42 42 41 40 39
34 31 28 28 29 24 21 21 22 22 22 22 21 20 18 19 19 21 24 29 35 33 34 34 36 33 41 45 43 43 41 41 45 44 45 44 45 44 44 44 44 43 40
38 38 35 35 34 31 28 27 27 28 27 28 29 29 27 28 30 29 30 30 31 34 34 38 42 41 43 45 39 39 43 44 44 44 46 47 47 46 46 46 46 45 46
47 44 41 42 39 39 39 36 37 38 38 39 40 40 40 39 38 37 37 38 39 37 38 39 40 40 41 43 43 42 36 38 42 41 42 45 46 47 48 49 49 49 49
52 52 51 50 49 46 44 43 44 46 46 48 49 49 49 45 41 41 42 44 43 45 45 44 44 45 46 47 45 45 46 45 46 48 50 50 51 52 53 53 55 56 56
57 58 57 57 54 51 49 49 48 49 52 54 53 53 51 48 47 46 48 47 46 48 49 49 49 50 51 52 51 52 52 53 55 57 58 60 61 61 63 63 64 63 61
64 66 64 61 61 57 54 53 59 54 51 52 53 53 56 56 55 53 54 52 51 52 52 53 54 54 56 57 57 58 58 59 59 61 62 64 65 67 68 67 68 68 68
71 74 73 74 66 57 60 55 51 50 51 52 52 53 53 55 55 57 56 53 53 54 55 56 58 59 60 61 62 62 63 64 66 66 68 69 70 72 73 75 75 77 78
61 67 67 63 59 49 49 52 55 56 57 58 59 58 58 59 60 60 60 60 60 60 60 60 61 63 64 65 66 67 68 69 70 71 73 73 75 76 77 79 81 82 82
56 54 52 54 52 51 54 58 61 61 60 60 61 62 62 63 60 60 62 62 62 62 62 62 62 65 67 69 70 71 71 72 73 75 75 77 78 78 79 81 82 84 86
50 50 50 52 50 53 59 62 60 59 59 59 59 61 59 57 57 57 58 60 61 60 61 61 62 63 64 65 67 68 69 70 70 71 72 73 74 75 76 77 81 83 86
54 54 53 53 53 55 55 55 55 54 53 52 53 54 56 57 57 58 59 60 60 59 60 61 62 62 63 64 64 64 65 66 68 69 71 72 75 77 79 81 83 85 87
56 59 59 60 61 59 58 58 56 54 53 52 51 50 49 51 52 53 54 56 56 56 56 57 58 59 60 61 63 66 69 72 73 74 76 78 80 81 84 86 87 88 92
55 55 55 57 59 60 60 61 62 60 58 57 56 55 54 54 54 55 56 56 57 58 59 59 61 62 64 67 68 68 70 72 74 75 76 78 80 82 83 85 87 88 93
54 54 54 53 52 53 56 57 58 57 58 58 57 55 55 54 55 55 56 56 57 57 58 60 60 60 60 62 63 64 65 67 69 71 74 76 79 81 83 83 84 84 89

GFSGL_500_spd_105.txt.gz
Wind_Speed
23 24 23 22 20 18 17 14 16 17 14 15 12 10 10 7 6 6 6 7 6 7 9 9 9 9 8 8 9 8 8 9 10 12 9 10 10 9 10 11 12 12 11
23 25 25 25 24 23 22 20 18 16 14 15 14 13 12 10 9 8 9 10 9 9 10 11 11 11 11 11 11 11 11 12 11 12 11 9 9 10 12 13 14 12 10
29 28 27 26 27 26 26 24 22 19 17 16 16 15 15 12 11 12 11 12 11 11 11 12 12 12 13 12 12 13 12 13 13 12 12 10 9 11 12 14 13 11 8
31 34 36 29 29 30 28 27 26 25 22 21 18 17 16 15 16 15 15 14 13 13 13 13 13 14 14 14 15 14 14 13 13 14 13 11 11 13 15 15 14 8 8
24 30 41 28 28 32 30 30 29 28 28 27 24 21 18 17 17 19 18 17 16 16 16 16 16 16 17 18 18 18 17 16 16 16 16 15 14 14 14 16 15 12 9
20 18 26 31 34 31 30 31 30 29 31 31 30 28 25 21 23 20 19 19 18 19 20 18 18 20 20 21 22 21 21 21 21 20 20 19 17 15 14 15 16 16 16
16 19 20 20 23 30 28 32 32 31 33 32 32 30 31 28 29 26 23 23 22 21 21 21 22 22 23 24 24 24 24 25 24 24 24 24 22 20 19 19 19 18 18
20 19 19 20 19 26 28 32 36 36 36 35 33 32 36 34 34 30 28 28 28 28 26 24 24 24 27 28 29 28 28 27 26 28 27 27 27 27 25 25 24 24 24
22 20 19 18 17 15 18 18 25 26 20 23 24 23 22 27 34 35 33 33 35 35 33 32 29 30 31 31 32 32 33 33 30 30 32 31 32 32 31 30 30 29 29
19 21 20 21 17 16 18 16 14 21 24 26 24 20 23 19 20 26 29 28 33 34 36 35 31 33 31 29 28 29 39 39 37 36 35 37 36 36 35 34 35 35 34
23 26 23 23 21 21 20 19 20 18 20 20 23 21 19 17 20 19 24 25 21 25 32 32 35 37 36 34 36 34 33 33 39 42 41 41 41 41 40 37 37 40 40
31 29 29 28 24 23 23 23 21 23 22 24 21 21 23 24 23 22 22 21 19 17 18 20 24 25 28 31 30 34 39 37 38 40 40 41 42 45 43 44 40 42 42
37 34 35 32 30 28 26 25 26 26 25 25 25 22 24 23 22 21 19 20 21 21 23 25 29 32 34 34 33 33 32 36 43 42 43 43 40 43 45 45 46 45 45
46 42 39 36 34 35 33 33 31 30 28 27 25 25 24 24 26 27 28 26 27 29 30 31 30 31 33 36 37 36 37 37 38 40 41 42 46 46 46 47 47 47 46
44 44 45 43 40 38 38 38 37 34 33 31 31 33 32 32 35 36 37 35 38 42 43 40 39 39 38 39 40 39 38 40 40 43 44 45 43 45 45 46 47 48 50
48 47 47 47 45 44 44 44 46 44 41 40 41 40 43 44 44 44 44 47 48 48 44 44 43 45 46 47 45 45 46 47 47 47 47 47 49 49 51 54 54 55 55
55 56 54 54 53 52 52 51 50 52 51 48 48 49 48 50 51 51 52 51 51 51 49 47 47 46 48 51 53 53 53 53 54 55 54 54 54 55 57 58 61 62 63
59 56 55 56 56 57 57 57 58 60 60 58 54 52 53 52 54 56 55 55 53 52 51 53 56 54 53 55 55 55 56 56 58 59 60 60 61 62 63 64 66 67 68
55 59 57 63 62 64 61 64 64 65 64 68 65 61 60 58 58 55 52 52 52 52 52 53 53 53 55 56 56 57 59 61 62 63 64 65 66 68 69 70 71 73 74
61 58 65 61 61 66 68 69 68 70 70 75 72 71 66 60 55 55 55 57 57 58 58 60 60 61 62 63 64 65 65 66 67 67 68 69 71 73 74 75 77 78 80
50 51 56 57 59 63 67 63 67 73 78 81 80 72 63 56 56 55 57 57 57 59 63 64 65 65 66 67 69 70 70 71 71 72 74 74 75 76 77 77 78 80 82
51 54 52 53 53 55 62 62 56 58 56 54 53 54 52 55 56 60 61 62 62 63 63 65 65 66 66 67 68 69 70 71 70 71 72 73 73 74 75 76 76 78 79
49 51 51 53 55 55 53 53 53 54 53 52 52 51 55 56 57 58 58 58 60 60 60 61 62 63 63 64 65 66 67 69 70 69 70 70 71 72 73 74 76 80 82
41 43 47 51 53 54 55 56 55 55 55 55 53 53 53 53 53 53 55 55 55 55 56 57 58 59 60 61 61 61 61 62 64 65 67 69 71 74 76 78 80 83 86
42 43 44 45 46 48 52 52 52 53 55 57 57 59 59 57 57 57 57 57 57 56 57 57 56 57 58 61 62 63 63 64 66 68 70 70 72 73 75 80 83 89 93
45 47 49 51 51 51 50 50 51 52 51 52 55 56 56 56 57 57 56 56 57 57 55 56 56 57 58 59 61 61 61 62 63 65 65 65 63 62 64 70 77 83 88

GFSGL_500_spd_108.txt.gz
Wind_Speed
18 19 20 20 19 16 15 13 14 11 10 15 12 10 7 6 5 7 5 4 5 4 4 5 5 5 6 7 8 8 9 9 10 12 11 10 10 12 12 12 13 12 14
21 20 20 23 23 21 20 17 17 14 14 14 14 12 10 10 9 10 9 8 8 7 5 5 5 6 7 8 9 10 10 10 10 11 8 8 10 12 14 14 13 11 9
23 19 17 21 24 25 25 21 20 20 16 12 12 12 12 12 14 14 13 11 11 9 8 8 7 7 9 10 10 11 11 11 11 11 11 11 9 9 13 12 14 13 9
25 18 20 19 25 24 26 28 24 22 21 17 16 15 16 18 18 17 17 14 14 13 12 11 11 11 12 12 12 12 11 11 13 12 12 12 11 14 21 11 14 11 9
25 24 19 24 28 23 28 28 30 27 25 24 24 23 21 18 20 20 19 18 18 17 17 16 15 15 14 14 13 14 14 15 14 14 15 15 14 14 15 16 15 14 10
28 24 22 27 18 22 27 28 28 33 30 29 29 28 27 23 25 24 20 19 19 20 20 20 17 18 18 18 18 18 18 18 18 18 19 18 18 17 16 15 16 16 17
19 16 17 17 20 23 20 26 27 31 31 28 27 28 30 32 32 29 27 25 23 22 21 23 21 22 22 22 22 23 23 22 21 21 21 22 21 21 20 21 20 20 20
18 19 17 16 16 16 20 19 25 25 31 29 31 28 33 35 36 35 34 32 31 28 24 25 22 26 26 25 23 25 27 27 26 26 25 25 26 26 25 24 25 27 28
22 20 21 20 20 17 18 19 22 28 27 26 35 32 31 35 28 37 33 37 35 31 30 30 30 30 30 30 31 30 28 33 31 31 32 32 31 30 28 29 30 30 30
20 20 20 20 21 19 17 17 20 22 23 29 28 22 25 27 28 22 23 29 33 36 35 28 32 36 36 34 32 33 29 28 28 32 39 38 37 36 34 35 35 35 35
25 25 22 19 18 20 20 21 20 21 21 27 24 23 25 23 22 20 16 16 23 26 27 28 30 32 34 33 35 36 35 32 35 37 36 35 36 41 38 40 39 42 42
28 28 27 24 21 23 24 23 24 26 24 24 28 23 19 21 21 24 20 20 20 21 20 20 18 17 17 22 26 26 27 30 33 31 33 33 34 36 39 37 37 39 42
36 37 36 33 29 28 30 30 28 27 29 27 25 25 27 24 23 27 25 24 29 25 25 22 22 22 23 24 29 30 31 32 33 34 33 31 35 37 38 38 40 40 41
45 45 43 43 40 36 33 34 33 32 32 32 31 30 29 29 30 29 29 29 26 27 27 25 26 27 30 31 32 33 33 34 34 36 36 37 37 37 38 40 40 41 41
53 52 52 50 46 44 40 39 40 39 38 37 35 35 37 34 34 33 33 33 33 34 34 34 37 37 40 42 42 40 39 41 40 42 43 42 42 41 42 43 42 44 47
53 51 52 50 46 45 43 45 44 43 43 42 42 41 41 40 40 40 40 40 40 42 43 43 45 48 48 49 47 46 45 41 41 43 48 50 49 49 50 50 51 49 49
50 51 51 51 52 49 48 49 50 48 47 46 46 47 48 46 47 47 48 48 49 51 51 52 55 55 54 54 54 54 51 52 52 51 50 52 53 54 55 56 55 55 57
54 55 55 57 56 55 54 56 53 52 54 54 54 52 52 54 56 57 56 55 55 57 57 57 57 57 57 54 52 51 51 51 52 53 52 53 55 56 58 59 60 60 62
56 57 56 54 51 53 57 62 60 60 59 61 61 60 61 62 61 62 63 64 62 61 60 61 62 60 57 54 53 52 51 52 53 54 55 56 58 59 61 63 64 65 65
61 59 61 60 60 62 60 58 58 69 68 67 68 63 67 66 61 64 66 67 69 72 64 62 61 58 57 55 55 55 55 57 59 60 60 60 61 63 65 67 70 72 74
50 48 52 56 64 63 65 64 67 74 71 68 69 60 68 62 62 67 72 76 72 75 80 75 64 61 59 58 58 60 62 64 66 66 66 68 67 68 69 72 75 77 78
43 51 49 42 46 50 52 54 58 58 56 58 55 47 52 46 53 62 68 70 72 71 71 73 67 58 57 60 61 61 63 63 63 65 67 68 68 72 71 70 73 74 76
37 40 43 46 47 47 47 50 52 52 57 58 58 56 56 57 55 53 51 51 49 49 50 52 54 55 56 58 58 59 59 61 61 62 64 66 68 68 68 68 68 71 73
35 35 36 38 39 41 43 45 48 50 51 52 53 52 51 55 54 54 54 54 52 52 51 52 53 56 57 57 57 58 58 58 60 60 60 62 65 67 67 70 72 72 73
38 41 42 41 42 43 44 45 45 46 47 49 51 53 54 54 55 55 57 57 55 55 54 55 55 55 55 56 57 57 58 59 59 61 62 62 63 64 65 66 66 66 65
37 38 40 42 43 43 45 47 49 50 51 51 52 53 52 53 53 53 52 53 53 53 53 53 54 54 55 55 56 56 57 57 58 59 58 58 59 59 57 57 56 56 60

GFSGL_500_spd_111.txt.gz
Wind_Speed
22 21 20 19 17 15 13 10 9 7 6 5 8 5 6 6 6 4 5 5 5 5 6 7 7 7 7 7 6 6 6 8 9 10 11 10 11 12 15 14 13 12 11
23 23 20 20 18 17 16 13 12 12 10 10 12 9 10 9 9 8 9 9 8 7 7 8 7 8 8 8 8 8 9 9 9 9 10 10 10 12 12 11 9 8 9
22 24 23 21 20 20 18 16 17 16 14 13 13 12 12 12 13 14 14 14 11 10 11 11 10 10 10 8 8 7 9 9 9 10 10 9 8 9 8 10 9 6 5
23 21 25 22 19 21 20 18 20 20 19 18 15 15 15 14 16 18 18 16 17 15 14 15 14 15 13 11 11 10 10 10 10 10 10 8 9 9 11 12 13 9 6
22 20 21 22 20 20 21 24 21 24 23 23 23 21 19 19 18 19 19 21 20 20 18 17 17 17 17 17 16 15 15 14 13 14 13 11 11 13 13 14 15 15 8
27 29 24 24 19 24 13 21 21 23 24 27 27 24 24 26 24 24 23 21 19 21 22 21 21 23 20 20 20 20 19 19 19 18 18 19 17 16 15 15 16 17 15
27 22 19 22 26 23 19 16 18 26 26 23 25 28 30 30 30 31 29 26 25 23 24 23 24 26 23 23 23 23 23 24 24 24 24 23 23 20 21 20 19 19 19
15 18 20 19 18 17 17 17 20 18 29 26 24 27 30 29 30 34 32 32 32 32 31 30 27 27 25 24 25 26 25 26 28 30 30 29 27 26 26 26 25 26 25
22 21 17 20 19 17 16 18 17 22 21 23 25 26 33 35 32 33 34 31 33 38 39 38 36 34 31 30 31 31 30 29 30 31 30 32 30 29 32 32 30 29 32
20 19 20 21 21 19 19 18 16 17 21 23 25 28 25 26 32 35 34 35 33 32 35 38 40 38 33 35 36 35 35 32 32 35 30 30 29 30 33 35 37 39 35
25 22 20 19 18 21 22 20 19 19 21 23 25 25 27 28 28 27 27 29 32 30 29 34 33 29 29 29 25 26 29 32 34 35 33 29 27 26 31 33 32 32 33
28 32 26 26 24 26 25 22 20 21 23 25 24 25 24 29 25 25 25 26 24 21 22 22 23 23 24 21 18 19 18 21 24 26 27 29 31 29 29 30 33 34 31
34 33 29 29 31 32 28 25 22 23 23 25 24 27 28 27 27 27 24 27 30 28 25 22 23 27 28 25 25 25 23 24 28 30 30 32 32 32 33 31 32 36 34
38 37 38 37 37 37 37 34 31 30 29 29 31 33 32 33 30 29 31 32 32 31 31 31 32 32 30 29 26 27 32 32 32 33 36 37 40 39 39 39 39 39 41
46 45 45 46 44 44 43 44 42 41 39 35 34 36 38 38 36 35 34 36 36 37 37 35 33 32 34 35 36 37 39 41 42 43 42 41 42 45 46 46 44 45 45
47 47 49 51 53 53 52 53 51 49 48 44 41 40 42 43 42 40 40 40 41 41 39 38 38 38 39 41 43 45 46 47 50 49 47 48 47 47 46 46 47 48 50
48 48 49 48 49 51 54 52 51 48 47 46 46 47 46 45 47 49 48 46 47 48 47 45 45 47 48 49 49 50 54 56 54 53 52 52 50 49 48 49 50 49 48
49 50 53 47 53 53 49 51 50 50 50 50 50 52 52 52 52 52 52 53 53 54 53 54 54 55 56 55 56 57 59 58 59 59 58 57 55 54 53 52 52 52 52
53 53 54 55 50 54 54 56 56 55 55 55 54 56 56 60 56 58 59 60 59 59 61 62 63 63 63 62 61 60 62 64 64 62 62 60 60 57 56 56 56 57 58
47 41 51 53 55 56 57 59 58 60 58 54 57 55 63 64 64 68 68 67 68 66 67 68 68 69 66 63 62 66 67 64 68 65 61 59 59 60 60 61 62 64 65
44 47 49 46 47 51 56 65 69 67 66 65 65 65 65 64 68 68 69 77 77 71 71 76 76 71 69 70 71 70 68 66 68 68 64 63 62 62 65 66 66 66 66
32 35 40 42 45 48 47 52 49 51 58 63 60 59 61 61 60 61 65 65 68 73 68 71 69 62 67 70 68 69 67 61 62 64 63 61 60 60 61 61 63 64 66
30 33 34 35 36 38 40 43 45 47 51 56 58 51 50 51 55 57 59 58 57 54 51 50 51 47 47 46 47 48 49 48 49 52 55 57 59 62 66 67 67 67 68
33 34 36 36 37 37 38 39 41 41 42 43 44 45 47 46 47 49 49 48 47 48 51 54 52 51 50 50 51 52 52 53 55 56 57 59 59 60 61 60 63 64 64
37 37 37 35 37 41 44 45 45 45 46 46 46 43 42 44 45 45 45 46 47 48 48 50 51 52 53 54 53 53 54 54 55 55 55 56 56 57 58 59 59 59 58
35 37 38 39 40 39 39 41 44 45 44 45 46 47 46 46 47 48 49 49 50 50 51 50 51 52 53 54 53 53 53 53 53 53 53 53 53 51 51 52 53 52 52

GFSGL_500_spd_114.txt.gz
Wind_Speed
23 21 19 17 15 14 11 10 10 9 10 12 13 10 8 7 8 8 7 7 7 8 8 8 7 8 7 7 6 6 7 7 6 6 5 5 7 7 5 4 6 8 11
24 22 23 19 19 18 16 14 13 12 10 11 11 10 10 10 11 10 10 9 9 9 9 10 9 10 11 9 7 7 7 8 7 6 5 6 7 6 4 6 7 10 10
25 28 25 24 22 20 19 18 18 16 14 13 13 14 14 12 14 13 13 12 12 12 12 13 13 12 11 11 10 10 8 10 9 7 6 6 4 5 7 9 8 9 8
27 29 26 26 25 22 22 20 20 19 18 19 18 17 16 18 17 17 14 16 17 17 15 15 17 18 16 14 13 12 12 12 11 10 7 9 9 8 8 9 10 8 8
29 32 29 23 25 25 18 17 16 21 22 22 23 23 22 21 18 18 16 19 19 19 19 20 21 21 19 18 17 17 17 15 15 14 12 12 11 12 12 13 14 12 13
15 29 24 25 25 22 22 20 15 14 22 24 25 26 27 27 23 21 20 19 19 20 19 22 25 25 23 22 20 22 22 20 21 18 17 17 15 17 17 16 17 20 18
24 20 29 25 27 26 27 22 21 21 19 26 25 28 29 29 29 27 27 26 25 26 24 25 27 26 24 24 25 23 23 24 24 23 22 22 21 23 24 23 22 22 22
22 19 27 38 33 31 28 28 27 22 24 29 34 34 27 26 29 30 30 31 31 32 33 32 33 32 30 28 28 28 27 27 27 26 27 25 26 27 30 29 28 27 25
22 25 27 38 24 23 27 29 25 25 25 24 25 27 24 26 26 27 31 29 30 33 34 35 36 38 38 36 34 33 32 32 33 32 31 26 26 28 27 26 31 33 31
32 27 33 34 24 25 25 19 24 22 23 24 24 28 29 28 30 32 30 37 33 36 38 36 35 37 38 39 40 39 38 37 37 35 35 33 30 30 31 30 28 28 30
28 22 26 23 27 27 27 24 22 22 22 22 24 27 27 29 29 25 27 26 28 29 31 34 32 34 37 39 40 38 36 38 37 34 27 27 27 27 28 27 27 27 27
35 23 16 25 23 25 19 19 22 22 25 25 28 27 26 25 25 24 25 29 30 33 31 30 30 29 31 29 29 29 28 25 24 21 20 20 21 25 27 27 28 28 28
23 21 22 26 34 27 25 19 24 26 25 27 28 29 30 28 28 28 26 28 30 29 31 28 26 28 26 27 28 29 30 30 27 25 26 27 29 29 31 33 33 33 32
40 37 34 32 31 26 27 27 31 33 32 30 29 29 31 32 32 32 31 32 31 29 29 33 35 34 32 31 33 33 31 30 29 29 31 34 35 36 37 38 40 41 42
45 44 43 39 39 37 36 37 37 38 39 39 39 38 39 39 38 38 38 36 37 38 36 37 38 38 39 36 34 36 36 36 37 37 38 40 40 42 44 44 43 43 44
47 47 48 48 48 48 48 47 45 46 47 47 48 48 48 47 45 44 44 44 44 43 43 40 39 40 42 43 41 42 41 41 42 44 45 46 46 47 46 46 45 46 45
50 49 49 48 48 52 54 54 54 53 53 53 55 51 50 49 51 49 49 49 48 47 46 46 45 47 48 48 49 50 50 50 51 51 52 53 52 53 54 53 51 50 51
51 50 49 50 51 51 53 53 54 55 54 56 55 53 51 50 51 52 51 48 52 53 52 51 53 54 54 54 55 57 58 59 59 60 61 59 57 57 60 61 62 60 58
48 49 49 50 50 50 53 54 52 52 52 53 57 56 54 55 54 55 56 56 56 57 55 59 60 60 60 60 61 63 65 66 67 69 68 66 65 65 68 69 68 62 62
45 44 42 47 45 54 54 57 58 58 60 60 56 56 58 61 61 61 59 55 55 59 65 66 65 60 64 67 68 69 71 74 74 75 74 74 73 70 69 69 69 69 68
34 34 36 39 43 41 48 47 48 46 48 54 59 64 64 64 64 63 62 66 67 65 67 65 68 72 72 73 73 72 76 80 80 79 79 80 73 65 63 64 70 74 70
31 32 35 38 39 40 41 42 44 46 48 48 47 50 53 54 55 56 60 65 67 68 70 69 70 71 70 73 74 73 72 74 69 66 62 62 60 59 64 63 60 59 59
28 29 31 33 36 36 37 38 38 38 40 43 41 42 44 46 50 52 53 53 54 56 58 59 58 55 54 54 54 54 59 57 55 53 51 48 47 48 50 53 55 56 59
32 35 37 38 40 40 41 43 44 43 44 44 45 44 44 44 44 43 45 47 47 50 52 53 53 53 55 56 56 58 57 54 54 52 52 52 51 52 55 56 58 59 61
38 39 38 38 39 42 43 44 45 44 45 47 49 50 48 46 46 47 47 48 48 48 49 50 50 50 51 50 50 50 50 50 52 52 52 53 55 56 57 57 57 57 59
39 37 37 38 39 39 40 41 42 43 44 45 46 47 47 47 47 48 49 50 50 50 51 52 53 53 52 52 52 52 53 53 53 54 54 53 52 52 52 53 53 51 50

GFSGL_500_spd_117.txt.gz
Wind_Speed
19 18 17 17 15 14 14 15 13 12 11 11 10 11 11 11 10 9 7 7 7 7 6 6 7 7 7 7 8 10 8 7 4 6 6 3 2 3 3 4 4 3 5
23 22 20 19 20 20 18 17 15 13 12 10 10 14 13 12 11 11 10 10 10 9 7 7 7 8 8 8 8 9 8 6 5 4 6 5 4 5 5 4 3 3 3
22 23 22 24 24 25 24 21 19 18 16 16 15 16 18 16 16 18 15 14 14 13 10 9 9 10 9 11 11 10 12 10 7 6 7 6 7 9 8 7 7 9 7
24 24 24 27 28 26 27 26 23 21 21 21 20 18 19 18 19 19 17 19 20 18 13 14 14 14 12 12 12 11 13 14 12 10 11 9 9 11 13 13 12 13 9
21 26 24 28 30 25 27 29 28 26 24 23 24 22 22 24 22 20 19 19 19 16 15 17 18 18 18 17 16 15 15 16 16 15 13 13 14 14 16 17 16 16 16
18 19 18 26 34 32 30 33 30 27 28 29 27 25 27 27 28 24 22 23 20 20 21 19 19 20 19 18 20 22 20 18 18 16 15 15 16 16 20 22 22 22 22
27 24 30 25 34 41 34 33 30 27 26 23 26 26 27 29 32 31 30 29 26 23 24 24 26 24 23 23 24 24 24 22 23 23 22 20 20 20 22 23 23 25 27
24 33 31 26 29 31 34 32 34 33 30 25 25 30 28 24 27 30 35 33 32 30 31 31 33 35 32 30 29 28 27 26 25 24 24 24 25 26 25 25 25 23 25
37 37 32 25 31 31 35 32 37 39 40 35 31 30 29 32 26 30 26 26 30 32 31 30 29 28 33 33 32 31 33 32 32 32 30 30 32 34 31 28 27 27 24
37 35 33 29 31 32 42 38 34 38 36 33 32 31 33 24 27 24 25 28 30 32 34 36 33 34 34 39 39 36 37 37 37 36 35 34 38 37 36 34 31 29 28
40 35 31 31 38 33 43 35 32 29 34 23 25 27 30 34 35 33 30 30 30 27 30 31 35 33 32 38 38 38 38 39 38 34 32 36 34 33 33 29 27 25 24
28 26 29 38 34 38 34 30 28 26 27 26 25 24 25 27 25 26 29 29 29 29 29 33 34 34 34 35 37 36 36 37 33 30 27 24 22 22 24 23 21 23 24
36 35 29 18 18 21 19 16 23 27 22 24 28 28 28 28 29 30 29 29 29 29 29 32 31 31 32 33 30 32 35 35 33 31 29 28 27 26 27 26 23 22 25
35 37 37 33 31 31 29 27 32 30 28 24 27 30 31 31 32 31 30 31 31 33 33 33 33 33 31 30 33 35 35 35 40 38 36 35 33 34 32 33 35 35 35
46 43 41 42 39 36 35 33 31 30 29 29 33 36 36 36 36 37 37 37 37 38 37 38 38 39 39 39 39 39 39 39 39 38 37 37 38 39 38 40 41 41 40
49 48 47 44 43 42 38 39 41 39 39 38 39 40 42 45 47 48 49 47 47 46 45 44 45 42 43 44 43 44 44 42 43 44 44 44 44 45 46 47 48 48 49
48 48 47 47 46 45 44 44 45 46 48 49 49 49 50 53 54 46 51 55 54 56 52 49 51 51 47 49 49 47 48 48 49 50 52 54 54 54 55 55 56 56 58
47 50 50 50 49 47 47 48 49 49 50 52 54 54 57 56 60 60 62 61 58 57 55 53 52 53 56 56 54 55 57 57 56 56 58 59 61 62 63 63 64 65 66
45 47 51 54 53 51 51 49 50 51 50 51 55 57 58 59 60 58 59 59 61 61 59 57 57 59 62 57 60 62 67 63 62 61 62 62 63 65 66 66 68 69 72
43 43 43 45 47 47 48 50 50 51 51 52 54 56 57 57 54 57 58 62 62 63 64 63 66 65 65 64 70 72 71 69 65 69 72 67 64 67 73 72 73 74 78
34 35 39 41 40 44 47 45 44 44 46 47 48 52 57 57 55 61 64 69 70 69 67 67 69 70 68 67 64 65 67 68 69 69 72 72 73 73 75 79 82 77 78
30 33 35 36 37 39 40 42 45 46 46 45 47 50 51 52 53 55 57 58 58 59 60 62 64 67 69 71 76 77 78 78 76 70 71 73 71 69 71 72 72 72 70
26 28 29 31 33 36 38 39 40 40 41 42 42 43 43 44 43 44 46 50 52 53 54 55 56 57 59 61 62 61 59 55 54 54 52 53 52 51 52 53 52 51 49
32 33 34 36 38 39 40 41 42 44 45 46 46 47 48 48 48 47 46 47 48 48 50 51 51 51 51 52 53 53 53 53 54 55 56 56 55 54 53 52 52 52 52
36 39 40 40 41 42 42 41 43 45 47 48 49 50 50 51 51 51 51 50 49 48 49 50 51 52 53 53 52 52 53 53 53 54 54 53 53 54 54 54 55 56 56
43 42 41 37 35 37 38 40 42 44 44 45 48 50 50 50 51 51 51 50 50 49 49 49 51 51 52 53 53 54 54 54 54 54 54 54 54 52 52 51 51 51 52

GFSGL_500_spd_120.txt.gz
Wind_Speed
17 16 16 15 13 12 13 14 12 12 12 12 13 11 9 8 8 6 6 6 7 7 7 8 9 8 8 7 8 8 7 8 9 10 9 6 5 4 4 4 4 3 2
22 21 20 18 17 17 16 15 16 16 16 14 14 12 10 11 10 10 10 10 9 7 9 10 10 9 8 8 7 6 7 7 8 11 9 7 8 8 6 6 7 6 6
24 24 23 22 22 22 22 20 19 19 19 18 15 13 14 14 14 13 13 14 14 13 12 13 13 12 11 10 9 8 8 7 8 9 9 8 11 11 9 9 10 10 11
29 29 27 27 26 25 25 24 23 23 23 22 20 18 18 17 17 17 18 18 19 20 20 19 18 15 13 12 12 13 12 11 10 11 13 14 14 15 15 13 14 13 13
28 24 30 28 30 30 28 28 30 27 26 25 23 24 23 23 21 19 21 19 19 21 19 20 20 17 17 16 17 17 16 15 15 15 17 17 18 20 19 17 17 19 18
33 32 29 27 29 29 33 31 31 28 28 27 27 28 28 29 29 25 23 24 23 23 23 21 20 17 17 17 19 18 18 18 18 17 18 18 19 20 20 21 21 22 25
31 34 30 24 19 22 30 35 37 35 32 30 31 28 31 33 31 30 28 27 28 27 26 26 22 21 21 23 23 24 22 19 20 19 20 22 23 24 23 22 23 25 26
34 30 31 28 29 38 35 31 37 41 36 33 32 32 29 31 31 33 34 28 24 31 33 32 30 29 28 27 27 28 29 28 28 27 25 24 25 27 27 27 28 29 30
34 40 36 39 37 45 34 31 33 31 33 40 29 40 33 34 32 33 27 33 27 30 32 33 33 32 34 29 26 29 27 30 33 32 32 32 32 32 33 34 33 31 31
41 42 38 32 39 35 30 33 37 38 36 36 45 44 46 35 34 32 27 27 25 21 21 28 30 32 35 30 35 33 32 36 37 36 35 35 36 37 37 39 40 40 38
47 42 41 27 32 32 29 31 37 39 44 48 38 45 37 37 35 38 29 34 27 26 34 32 29 29 29 29 34 34 32 32 35 37 37 37 37 38 37 36 36 34 32
31 30 28 28 40 36 33 40 41 45 39 36 32 34 39 33 29 34 29 31 31 27 23 23 28 30 32 34 36 37 37 34 33 33 33 32 32 33 31 29 28 26 25
32 30 29 33 36 29 35 44 37 37 36 32 29 30 40 33 24 24 27 29 28 25 25 27 29 30 30 31 35 36 35 35 34 36 33 28 28 26 28 30 30 28 26
36 33 34 31 28 39 24 26 17 16 17 18 20 20 19 22 24 30 32 31 30 31 31 32 32 32 32 34 34 35 35 36 37 37 34 35 37 38 38 35 35 34 33
38 40 39 31 35 34 33 35 27 27 27 21 20 24 25 25 29 33 35 37 38 38 38 37 38 38 39 41 41 40 40 40 42 41 42 40 40 40 40 41 42 43 43
35 32 37 37 36 36 37 36 38 39 32 29 34 30 33 35 37 38 41 42 43 45 45 46 47 49 49 47 47 47 48 48 48 47 45 45 44 44 45 45 46 47 49
32 31 30 35 38 37 36 38 37 39 42 40 43 40 46 44 45 46 49 51 51 53 55 54 50 51 53 54 53 55 54 54 53 51 51 50 50 50 51 52 54 56 58
38 39 37 35 37 40 40 37 38 38 39 43 45 47 50 50 50 52 52 54 56 55 58 60 58 63 60 60 57 58 56 54 55 56 57 57 56 58 60 60 63 65 64
37 37 37 37 37 36 36 38 38 39 40 42 44 45 48 51 52 54 56 59 59 60 57 64 60 53 64 64 62 57 59 60 61 61 64 64 65 64 64 65 63 62 64
29 31 32 33 33 34 34 34 34 37 41 43 44 45 47 49 52 54 56 58 60 61 59 59 58 61 59 65 65 65 65 66 67 67 69 68 67 70 74 73 75 73 70
26 26 28 30 31 31 32 34 36 37 39 41 46 50 50 51 53 54 57 59 59 59 61 62 66 72 68 74 77 74 68 68 72 73 72 71 69 72 73 72 71 71 72
21 22 23 23 24 25 28 30 31 33 34 36 38 41 42 45 46 48 49 49 51 54 57 58 61 63 64 66 67 64 64 64 63 59 59 60 64 68 63 61 63 61 62
21 22 25 27 28 29 29 30 32 35 37 38 39 41 42 43 45 47 49 50 50 51 52 53 52 51 51 51 51 52 53 54 55 56 58 58 56 55 57 54 52 51 51
29 31 33 33 33 34 37 39 39 40 39 39 40 41 44 46 48 50 51 51 52 52 52 52 53 53 54 54 54 54 54 53 52 51 52 52 52 51 50 49 50 51 52
35 37 39 40 39 40 41 43 43 42 42 42 43 44 46 46 47 47 47 48 48 49 50 51 51 51 52 52 53 53 53 53 53 52 52 52 52 51 51 50 51 52 51
37 38 37 36 36 36 36 37 38 40 41 42 44 46 46 48 50 50 50 51 51 51 50 51 50 50 51 50 50 50 50 50 50 50 49 49 49 49 49 49 49 50 49